<?xml version="1.0" encoding="UTF-8" standalone="no" ?>
<gpx xmlns="http://www.topografix.com/GPX/1/1" xmlns:xsi="http://www.w3.org/2001/XMLSchema-instance" xsi:schemaLocation="http://www.topografix.com/GPX/1/1 http://www.topografix.com/GPX/1/1/gpx.xsd" version="1.1" creator="VisuGPX - https://www.visugpx.com">
  <metadata>
    <name>Carces - Caramy</name>
    <desc><![CDATA[Carces, les cascades, le barrage, le long du canal.]]></desc>
  </metadata>
  <trk>
    <name><![CDATA[Carces - Caramy]]></name>
    <extensions>
      <line xmlns="http://www.topografix.com/GPX/gpx_style/0/2">
        <color>ff0000</color>
        <opacity>1</opacity>
        <width>5</width>
      </line>
    </extensions>
    <trkseg>
      <trkpt lat="43.47564" lon="6.18319">
        <ele>139</ele>
        <time>2025-04-14T12:04:59.352Z</time>
      </trkpt>
      <trkpt lat="43.47558" lon="6.18319">
        <ele>139</ele>
        <time>2025-04-14T12:04:59.352Z</time>
      </trkpt>
      <trkpt lat="43.47553" lon="6.18319">
        <ele>139.2</ele>
        <time>2025-04-14T12:04:59.352Z</time>
      </trkpt>
      <trkpt lat="43.47547" lon="6.18318">
        <ele>139.5</ele>
        <time>2025-04-14T12:04:59.352Z</time>
      </trkpt>
      <trkpt lat="43.47541" lon="6.18318">
        <ele>139.9</ele>
        <time>2025-04-14T12:04:59.352Z</time>
      </trkpt>
      <trkpt lat="43.4754" lon="6.18326">
        <ele>139.5</ele>
        <time>2025-04-14T12:04:59.352Z</time>
      </trkpt>
      <trkpt lat="43.47539" lon="6.18335">
        <ele>139.1</ele>
        <time>2025-04-14T12:04:59.352Z</time>
      </trkpt>
      <trkpt lat="43.47539" lon="6.18343">
        <ele>138.9</ele>
        <time>2025-04-14T12:04:59.352Z</time>
      </trkpt>
      <trkpt lat="43.47538" lon="6.18352">
        <ele>138.6</ele>
        <time>2025-04-14T12:04:59.352Z</time>
      </trkpt>
      <trkpt lat="43.47537" lon="6.1836">
        <ele>138.4</ele>
        <time>2025-04-14T12:04:59.352Z</time>
      </trkpt>
      <trkpt lat="43.47536" lon="6.18369">
        <ele>138</ele>
        <time>2025-04-14T12:04:59.352Z</time>
      </trkpt>
      <trkpt lat="43.47535" lon="6.18377">
        <ele>137.6</ele>
        <time>2025-04-14T12:04:59.352Z</time>
      </trkpt>
      <trkpt lat="43.47535" lon="6.18386">
        <ele>137.2</ele>
        <time>2025-04-14T12:04:59.352Z</time>
      </trkpt>
      <trkpt lat="43.47534" lon="6.18394">
        <ele>136.7</ele>
        <time>2025-04-14T12:04:59.352Z</time>
      </trkpt>
      <trkpt lat="43.47533" lon="6.18402">
        <ele>136.2</ele>
        <time>2025-04-14T12:04:59.352Z</time>
      </trkpt>
      <trkpt lat="43.47532" lon="6.18411">
        <ele>135.7</ele>
        <time>2025-04-14T12:04:59.352Z</time>
      </trkpt>
      <trkpt lat="43.47531" lon="6.18419">
        <ele>135</ele>
        <time>2025-04-14T12:04:59.352Z</time>
      </trkpt>
      <trkpt lat="43.4753" lon="6.18428">
        <ele>134.3</ele>
        <time>2025-04-14T12:04:59.352Z</time>
      </trkpt>
      <trkpt lat="43.4753" lon="6.18436">
        <ele>133.6</ele>
        <time>2025-04-14T12:04:59.352Z</time>
      </trkpt>
      <trkpt lat="43.47529" lon="6.18445">
        <ele>133</ele>
        <time>2025-04-14T12:04:59.352Z</time>
      </trkpt>
      <trkpt lat="43.47528" lon="6.18453">
        <ele>132.4</ele>
        <time>2025-04-14T12:04:59.352Z</time>
      </trkpt>
      <trkpt lat="43.47521" lon="6.18451">
        <ele>132.4</ele>
        <time>2025-04-14T12:04:59.352Z</time>
      </trkpt>
      <trkpt lat="43.47514" lon="6.1845">
        <ele>132.5</ele>
        <time>2025-04-14T12:04:59.352Z</time>
      </trkpt>
      <trkpt lat="43.47507" lon="6.18448">
        <ele>132.6</ele>
        <time>2025-04-14T12:04:59.352Z</time>
      </trkpt>
      <trkpt lat="43.47501" lon="6.18447">
        <ele>132.8</ele>
        <time>2025-04-14T12:04:59.352Z</time>
      </trkpt>
      <trkpt lat="43.47494" lon="6.18445">
        <ele>132.9</ele>
        <time>2025-04-14T12:04:59.352Z</time>
      </trkpt>
      <trkpt lat="43.47487" lon="6.18443">
        <ele>133.1</ele>
        <time>2025-04-14T12:04:59.352Z</time>
      </trkpt>
      <trkpt lat="43.4748" lon="6.18442">
        <ele>133.2</ele>
        <time>2025-04-14T12:04:59.352Z</time>
      </trkpt>
      <trkpt lat="43.47473" lon="6.1844">
        <ele>133.2</ele>
        <time>2025-04-14T12:04:59.352Z</time>
      </trkpt>
      <trkpt lat="43.47466" lon="6.18438">
        <ele>133</ele>
        <time>2025-04-14T12:04:59.352Z</time>
      </trkpt>
      <trkpt lat="43.47459" lon="6.18437">
        <ele>132.8</ele>
        <time>2025-04-14T12:04:59.352Z</time>
      </trkpt>
      <trkpt lat="43.47452" lon="6.18435">
        <ele>132.6</ele>
        <time>2025-04-14T12:04:59.352Z</time>
      </trkpt>
      <trkpt lat="43.47446" lon="6.18434">
        <ele>132.4</ele>
        <time>2025-04-14T12:04:59.352Z</time>
      </trkpt>
      <trkpt lat="43.47439" lon="6.18432">
        <ele>132.5</ele>
        <time>2025-04-14T12:04:59.352Z</time>
      </trkpt>
      <trkpt lat="43.47432" lon="6.1843">
        <ele>132.5</ele>
        <time>2025-04-14T12:04:59.352Z</time>
      </trkpt>
      <trkpt lat="43.47425" lon="6.18429">
        <ele>132.6</ele>
        <time>2025-04-14T12:04:59.352Z</time>
      </trkpt>
      <trkpt lat="43.47418" lon="6.18427">
        <ele>132.6</ele>
        <time>2025-04-14T12:04:59.352Z</time>
      </trkpt>
      <trkpt lat="43.4741" lon="6.18425">
        <ele>132.6</ele>
        <time>2025-04-14T12:04:59.352Z</time>
      </trkpt>
      <trkpt lat="43.47401" lon="6.18422">
        <ele>132.7</ele>
        <time>2025-04-14T12:04:59.352Z</time>
      </trkpt>
      <trkpt lat="43.47393" lon="6.1842">
        <ele>132.8</ele>
        <time>2025-04-14T12:04:59.352Z</time>
      </trkpt>
      <trkpt lat="43.47385" lon="6.18418">
        <ele>132.9</ele>
        <time>2025-04-14T12:04:59.352Z</time>
      </trkpt>
      <trkpt lat="43.47376" lon="6.18415">
        <ele>133</ele>
        <time>2025-04-14T12:04:59.352Z</time>
      </trkpt>
      <trkpt lat="43.47368" lon="6.18413">
        <ele>133</ele>
        <time>2025-04-14T12:04:59.352Z</time>
      </trkpt>
      <trkpt lat="43.47359" lon="6.1841">
        <ele>133</ele>
        <time>2025-04-14T12:04:59.352Z</time>
      </trkpt>
      <trkpt lat="43.47351" lon="6.18408">
        <ele>133</ele>
        <time>2025-04-14T12:04:59.352Z</time>
      </trkpt>
      <trkpt lat="43.47343" lon="6.18408">
        <ele>133</ele>
        <time>2025-04-14T12:04:59.352Z</time>
      </trkpt>
      <trkpt lat="43.47336" lon="6.18408">
        <ele>133</ele>
        <time>2025-04-14T12:04:59.352Z</time>
      </trkpt>
      <trkpt lat="43.47328" lon="6.18408">
        <ele>133.3</ele>
        <time>2025-04-14T12:04:59.352Z</time>
      </trkpt>
      <trkpt lat="43.4732" lon="6.18408">
        <ele>133.8</ele>
        <time>2025-04-14T12:04:59.352Z</time>
      </trkpt>
      <trkpt lat="43.47316" lon="6.18412">
        <ele>133.8</ele>
        <time>2025-04-14T12:04:59.352Z</time>
      </trkpt>
      <trkpt lat="43.47313" lon="6.18415">
        <ele>133.8</ele>
        <time>2025-04-14T12:04:59.352Z</time>
      </trkpt>
      <trkpt lat="43.47309" lon="6.18419">
        <ele>133.8</ele>
        <time>2025-04-14T12:04:59.352Z</time>
      </trkpt>
      <trkpt lat="43.47305" lon="6.18422">
        <ele>133.8</ele>
        <time>2025-04-14T12:04:59.352Z</time>
      </trkpt>
      <trkpt lat="43.47305" lon="6.18423">
        <ele>133.8</ele>
        <time>2025-04-14T12:04:59.352Z</time>
        <extensions>
          <visugpx:TrkExtension xmlns:visugpx="https://www.visugpx.com/editgpx/">
            <visugpx:node>1</visugpx:node>
            </visugpx:TrkExtension>
        </extensions>
      </trkpt>
      <trkpt lat="43.47305" lon="6.18423">
        <ele>133.8</ele>
        <time>2025-04-14T12:04:59.352Z</time>
      </trkpt>
      <trkpt lat="43.47301" lon="6.18431">
        <ele>133.6</ele>
        <time>2025-04-14T12:04:59.352Z</time>
      </trkpt>
      <trkpt lat="43.473" lon="6.1844">
        <ele>133.2</ele>
        <time>2025-04-14T12:04:59.352Z</time>
      </trkpt>
      <trkpt lat="43.47298" lon="6.18448">
        <ele>132.9</ele>
        <time>2025-04-14T12:04:59.352Z</time>
      </trkpt>
      <trkpt lat="43.47298" lon="6.1846">
        <ele>132.6</ele>
        <time>2025-04-14T12:04:59.352Z</time>
      </trkpt>
      <trkpt lat="43.47299" lon="6.18472">
        <ele>132.3</ele>
        <time>2025-04-14T12:04:59.352Z</time>
      </trkpt>
      <trkpt lat="43.47299" lon="6.18484">
        <ele>131.9</ele>
        <time>2025-04-14T12:04:59.352Z</time>
      </trkpt>
      <trkpt lat="43.47299" lon="6.18496">
        <ele>131.6</ele>
        <time>2025-04-14T12:04:59.352Z</time>
      </trkpt>
      <trkpt lat="43.47299" lon="6.18507">
        <ele>131.5</ele>
        <time>2025-04-14T12:04:59.352Z</time>
      </trkpt>
      <trkpt lat="43.473" lon="6.18519">
        <ele>131.4</ele>
        <time>2025-04-14T12:04:59.352Z</time>
      </trkpt>
      <trkpt lat="43.473" lon="6.18531">
        <ele>131.3</ele>
        <time>2025-04-14T12:04:59.352Z</time>
      </trkpt>
      <trkpt lat="43.473" lon="6.18543">
        <ele>130.9</ele>
        <time>2025-04-14T12:04:59.352Z</time>
      </trkpt>
      <trkpt lat="43.47301" lon="6.18553">
        <ele>130.4</ele>
        <time>2025-04-14T12:04:59.352Z</time>
        <extensions>
          <visugpx:TrkExtension xmlns:visugpx="https://www.visugpx.com/editgpx/">
            <visugpx:node>2</visugpx:node>
            </visugpx:TrkExtension>
        </extensions>
      </trkpt>
      <trkpt lat="43.47302" lon="6.18565">
        <ele>130.6</ele>
        <time>2025-04-14T12:04:59.352Z</time>
      </trkpt>
      <trkpt lat="43.47304" lon="6.18578">
        <ele>130.9</ele>
        <time>2025-04-14T12:04:59.352Z</time>
      </trkpt>
      <trkpt lat="43.47305" lon="6.1859">
        <ele>131.1</ele>
        <time>2025-04-14T12:04:59.352Z</time>
      </trkpt>
      <trkpt lat="43.47306" lon="6.18602">
        <ele>130.9</ele>
        <time>2025-04-14T12:04:59.352Z</time>
      </trkpt>
      <trkpt lat="43.47307" lon="6.18609">
        <ele>130.6</ele>
        <time>2025-04-14T12:04:59.352Z</time>
      </trkpt>
      <trkpt lat="43.47309" lon="6.18616">
        <ele>130.3</ele>
        <time>2025-04-14T12:04:59.352Z</time>
      </trkpt>
      <trkpt lat="43.4731" lon="6.18622">
        <ele>130</ele>
        <time>2025-04-14T12:04:59.352Z</time>
      </trkpt>
      <trkpt lat="43.47311" lon="6.18629">
        <ele>129.8</ele>
        <time>2025-04-14T12:04:59.352Z</time>
      </trkpt>
      <trkpt lat="43.47315" lon="6.18639">
        <ele>129.1</ele>
        <time>2025-04-14T12:04:59.352Z</time>
      </trkpt>
      <trkpt lat="43.47318" lon="6.18649">
        <ele>128.6</ele>
        <time>2025-04-14T12:04:59.352Z</time>
      </trkpt>
      <trkpt lat="43.47325" lon="6.18653">
        <ele>127.5</ele>
        <time>2025-04-14T12:04:59.352Z</time>
      </trkpt>
      <trkpt lat="43.47325" lon="6.18656">
        <ele>127.7</ele>
        <time>2025-04-14T12:04:59.352Z</time>
        <extensions>
          <visugpx:TrkExtension xmlns:visugpx="https://www.visugpx.com/editgpx/">
            <visugpx:node>3</visugpx:node>
            </visugpx:TrkExtension>
        </extensions>
      </trkpt>
      <trkpt lat="43.47325" lon="6.18653">
        <ele>127.5</ele>
        <time>2025-04-14T12:04:59.352Z</time>
      </trkpt>
      <trkpt lat="43.47327" lon="6.18655">
        <ele>127.3</ele>
        <time>2025-04-14T12:04:59.352Z</time>
      </trkpt>
      <trkpt lat="43.47328" lon="6.18663">
        <ele>127.6</ele>
        <time>2025-04-14T12:04:59.352Z</time>
      </trkpt>
      <trkpt lat="43.47329" lon="6.1867">
        <ele>128</ele>
        <time>2025-04-14T12:04:59.352Z</time>
      </trkpt>
      <trkpt lat="43.47329" lon="6.18678">
        <ele>128.6</ele>
        <time>2025-04-14T12:04:59.352Z</time>
      </trkpt>
      <trkpt lat="43.4733" lon="6.18685">
        <ele>129.3</ele>
        <time>2025-04-14T12:04:59.352Z</time>
      </trkpt>
      <trkpt lat="43.47323" lon="6.18684">
        <ele>129.9</ele>
        <time>2025-04-14T12:04:59.352Z</time>
      </trkpt>
      <trkpt lat="43.47316" lon="6.18683">
        <ele>130.5</ele>
        <time>2025-04-14T12:04:59.352Z</time>
      </trkpt>
      <trkpt lat="43.47308" lon="6.18681">
        <ele>131.2</ele>
        <time>2025-04-14T12:04:59.352Z</time>
      </trkpt>
      <trkpt lat="43.47301" lon="6.1868">
        <ele>131.7</ele>
        <time>2025-04-14T12:04:59.352Z</time>
      </trkpt>
      <trkpt lat="43.47294" lon="6.18679">
        <ele>132.1</ele>
        <time>2025-04-14T12:04:59.352Z</time>
      </trkpt>
      <trkpt lat="43.47287" lon="6.18678">
        <ele>132.5</ele>
        <time>2025-04-14T12:04:59.352Z</time>
      </trkpt>
      <trkpt lat="43.4728" lon="6.18676">
        <ele>132.9</ele>
        <time>2025-04-14T12:04:59.352Z</time>
      </trkpt>
      <trkpt lat="43.47273" lon="6.18675">
        <ele>133.2</ele>
        <time>2025-04-14T12:04:59.352Z</time>
      </trkpt>
      <trkpt lat="43.47265" lon="6.18674">
        <ele>133.4</ele>
        <time>2025-04-14T12:04:59.352Z</time>
      </trkpt>
      <trkpt lat="43.47258" lon="6.18673">
        <ele>133.7</ele>
        <time>2025-04-14T12:04:59.352Z</time>
      </trkpt>
      <trkpt lat="43.47251" lon="6.18671">
        <ele>134</ele>
        <time>2025-04-14T12:04:59.352Z</time>
      </trkpt>
      <trkpt lat="43.47244" lon="6.1867">
        <ele>134.6</ele>
        <time>2025-04-14T12:04:59.352Z</time>
      </trkpt>
      <trkpt lat="43.47237" lon="6.18669">
        <ele>135.1</ele>
        <time>2025-04-14T12:04:59.352Z</time>
      </trkpt>
      <trkpt lat="43.47229" lon="6.18668">
        <ele>135.6</ele>
        <time>2025-04-14T12:04:59.352Z</time>
      </trkpt>
      <trkpt lat="43.47222" lon="6.18666">
        <ele>136</ele>
        <time>2025-04-14T12:04:59.352Z</time>
      </trkpt>
      <trkpt lat="43.47215" lon="6.18665">
        <ele>136.7</ele>
        <time>2025-04-14T12:04:59.352Z</time>
      </trkpt>
      <trkpt lat="43.4721" lon="6.18667">
        <ele>137.4</ele>
        <time>2025-04-14T12:04:59.352Z</time>
      </trkpt>
      <trkpt lat="43.47204" lon="6.18668">
        <ele>138.3</ele>
        <time>2025-04-14T12:04:59.352Z</time>
      </trkpt>
      <trkpt lat="43.47199" lon="6.1867">
        <ele>139.4</ele>
        <time>2025-04-14T12:04:59.352Z</time>
      </trkpt>
      <trkpt lat="43.47193" lon="6.18672">
        <ele>140.5</ele>
        <time>2025-04-14T12:04:59.352Z</time>
      </trkpt>
      <trkpt lat="43.47188" lon="6.18673">
        <ele>141.2</ele>
        <time>2025-04-14T12:04:59.352Z</time>
      </trkpt>
      <trkpt lat="43.47182" lon="6.18675">
        <ele>141.8</ele>
        <time>2025-04-14T12:04:59.352Z</time>
      </trkpt>
      <trkpt lat="43.47177" lon="6.18676">
        <ele>142.4</ele>
        <time>2025-04-14T12:04:59.352Z</time>
      </trkpt>
      <trkpt lat="43.47171" lon="6.18678">
        <ele>142.9</ele>
        <time>2025-04-14T12:04:59.352Z</time>
      </trkpt>
      <trkpt lat="43.47167" lon="6.18683">
        <ele>144</ele>
        <time>2025-04-14T12:04:59.352Z</time>
      </trkpt>
      <trkpt lat="43.47164" lon="6.18689">
        <ele>145</ele>
        <time>2025-04-14T12:04:59.352Z</time>
      </trkpt>
      <trkpt lat="43.4716" lon="6.18694">
        <ele>145.7</ele>
        <time>2025-04-14T12:04:59.352Z</time>
      </trkpt>
      <trkpt lat="43.47156" lon="6.18699">
        <ele>146.2</ele>
        <time>2025-04-14T12:04:59.352Z</time>
      </trkpt>
      <trkpt lat="43.47149" lon="6.18704">
        <ele>146.4</ele>
        <time>2025-04-14T12:04:59.352Z</time>
      </trkpt>
      <trkpt lat="43.47141" lon="6.1871">
        <ele>146.3</ele>
        <time>2025-04-14T12:04:59.352Z</time>
      </trkpt>
      <trkpt lat="43.47134" lon="6.18715">
        <ele>146.5</ele>
        <time>2025-04-14T12:04:59.352Z</time>
      </trkpt>
      <trkpt lat="43.47126" lon="6.1872">
        <ele>146.5</ele>
        <time>2025-04-14T12:04:59.352Z</time>
        <extensions>
          <visugpx:TrkExtension xmlns:visugpx="https://www.visugpx.com/editgpx/">
            <visugpx:node>4</visugpx:node>
            </visugpx:TrkExtension>
        </extensions>
      </trkpt>
      <trkpt lat="43.47118" lon="6.18726">
        <ele>146.3</ele>
        <time>2025-04-14T12:04:59.352Z</time>
      </trkpt>
      <trkpt lat="43.47111" lon="6.18731">
        <ele>145.7</ele>
        <time>2025-04-14T12:04:59.352Z</time>
      </trkpt>
      <trkpt lat="43.47103" lon="6.18737">
        <ele>145.3</ele>
        <time>2025-04-14T12:04:59.352Z</time>
      </trkpt>
      <trkpt lat="43.47095" lon="6.18742">
        <ele>144.9</ele>
        <time>2025-04-14T12:04:59.352Z</time>
      </trkpt>
      <trkpt lat="43.47087" lon="6.18748">
        <ele>144.3</ele>
        <time>2025-04-14T12:04:59.352Z</time>
      </trkpt>
      <trkpt lat="43.4708" lon="6.18753">
        <ele>143.8</ele>
        <time>2025-04-14T12:04:59.352Z</time>
      </trkpt>
      <trkpt lat="43.47072" lon="6.18759">
        <ele>143.3</ele>
        <time>2025-04-14T12:04:59.352Z</time>
      </trkpt>
      <trkpt lat="43.47064" lon="6.18764">
        <ele>142.6</ele>
        <time>2025-04-14T12:04:59.352Z</time>
      </trkpt>
      <trkpt lat="43.47055" lon="6.18766">
        <ele>142.3</ele>
        <time>2025-04-14T12:04:59.352Z</time>
      </trkpt>
      <trkpt lat="43.47047" lon="6.18768">
        <ele>141.7</ele>
        <time>2025-04-14T12:04:59.352Z</time>
      </trkpt>
      <trkpt lat="43.47038" lon="6.18769">
        <ele>141.1</ele>
        <time>2025-04-14T12:04:59.352Z</time>
      </trkpt>
      <trkpt lat="43.47029" lon="6.18771">
        <ele>140.5</ele>
        <time>2025-04-14T12:04:59.352Z</time>
      </trkpt>
      <trkpt lat="43.47025" lon="6.18774">
        <ele>140.4</ele>
        <time>2025-04-14T12:04:59.352Z</time>
      </trkpt>
      <trkpt lat="43.47021" lon="6.18778">
        <ele>140.5</ele>
        <time>2025-04-14T12:04:59.352Z</time>
      </trkpt>
      <trkpt lat="43.47017" lon="6.18781">
        <ele>140.6</ele>
        <time>2025-04-14T12:04:59.352Z</time>
      </trkpt>
      <trkpt lat="43.47013" lon="6.18784">
        <ele>140.7</ele>
        <time>2025-04-14T12:04:59.352Z</time>
      </trkpt>
      <trkpt lat="43.4701" lon="6.18789">
        <ele>140.8</ele>
        <time>2025-04-14T12:04:59.352Z</time>
      </trkpt>
      <trkpt lat="43.47006" lon="6.18793">
        <ele>140.9</ele>
        <time>2025-04-14T12:04:59.352Z</time>
      </trkpt>
      <trkpt lat="43.47003" lon="6.18798">
        <ele>141</ele>
        <time>2025-04-14T12:04:59.352Z</time>
      </trkpt>
      <trkpt lat="43.46999" lon="6.18802">
        <ele>141.4</ele>
        <time>2025-04-14T12:04:59.352Z</time>
      </trkpt>
      <trkpt lat="43.46997" lon="6.18808">
        <ele>141.7</ele>
        <time>2025-04-14T12:04:59.352Z</time>
      </trkpt>
      <trkpt lat="43.46995" lon="6.18814">
        <ele>141.9</ele>
        <time>2025-04-14T12:04:59.352Z</time>
      </trkpt>
      <trkpt lat="43.46993" lon="6.1882">
        <ele>142.1</ele>
        <time>2025-04-14T12:04:59.352Z</time>
      </trkpt>
      <trkpt lat="43.46991" lon="6.18826">
        <ele>142.4</ele>
        <time>2025-04-14T12:04:59.352Z</time>
      </trkpt>
      <trkpt lat="43.46989" lon="6.18832">
        <ele>142.7</ele>
        <time>2025-04-14T12:04:59.352Z</time>
      </trkpt>
      <trkpt lat="43.46987" lon="6.18837">
        <ele>143</ele>
        <time>2025-04-14T12:04:59.352Z</time>
      </trkpt>
      <trkpt lat="43.46985" lon="6.18843">
        <ele>143.3</ele>
        <time>2025-04-14T12:04:59.352Z</time>
      </trkpt>
      <trkpt lat="43.46983" lon="6.18849">
        <ele>143.6</ele>
        <time>2025-04-14T12:04:59.352Z</time>
      </trkpt>
      <trkpt lat="43.46981" lon="6.18855">
        <ele>143.8</ele>
        <time>2025-04-14T12:04:59.352Z</time>
      </trkpt>
      <trkpt lat="43.46979" lon="6.18861">
        <ele>144</ele>
        <time>2025-04-14T12:04:59.352Z</time>
      </trkpt>
      <trkpt lat="43.46977" lon="6.18867">
        <ele>144.4</ele>
        <time>2025-04-14T12:04:59.352Z</time>
      </trkpt>
      <trkpt lat="43.46975" lon="6.18873">
        <ele>144.8</ele>
        <time>2025-04-14T12:04:59.352Z</time>
      </trkpt>
      <trkpt lat="43.46973" lon="6.18879">
        <ele>145.2</ele>
        <time>2025-04-14T12:04:59.352Z</time>
      </trkpt>
      <trkpt lat="43.46971" lon="6.18885">
        <ele>145.6</ele>
        <time>2025-04-14T12:04:59.352Z</time>
      </trkpt>
      <trkpt lat="43.46969" lon="6.18891">
        <ele>145.8</ele>
        <time>2025-04-14T12:04:59.352Z</time>
      </trkpt>
      <trkpt lat="43.46967" lon="6.18897">
        <ele>145.6</ele>
        <time>2025-04-14T12:04:59.352Z</time>
      </trkpt>
      <trkpt lat="43.46965" lon="6.18902">
        <ele>145.4</ele>
        <time>2025-04-14T12:04:59.352Z</time>
      </trkpt>
      <trkpt lat="43.46963" lon="6.18908">
        <ele>145.2</ele>
        <time>2025-04-14T12:04:59.352Z</time>
      </trkpt>
      <trkpt lat="43.46961" lon="6.18914">
        <ele>145</ele>
        <time>2025-04-14T12:04:59.352Z</time>
      </trkpt>
      <trkpt lat="43.46959" lon="6.1892">
        <ele>145</ele>
        <time>2025-04-14T12:04:59.352Z</time>
      </trkpt>
      <trkpt lat="43.46957" lon="6.18926">
        <ele>145</ele>
        <time>2025-04-14T12:04:59.352Z</time>
      </trkpt>
      <trkpt lat="43.46955" lon="6.18932">
        <ele>145</ele>
        <time>2025-04-14T12:04:59.352Z</time>
      </trkpt>
      <trkpt lat="43.46953" lon="6.18938">
        <ele>144.9</ele>
        <time>2025-04-14T12:04:59.352Z</time>
      </trkpt>
      <trkpt lat="43.46951" lon="6.18944">
        <ele>144.7</ele>
        <time>2025-04-14T12:04:59.352Z</time>
      </trkpt>
      <trkpt lat="43.46949" lon="6.1895">
        <ele>144.8</ele>
        <time>2025-04-14T12:04:59.352Z</time>
      </trkpt>
      <trkpt lat="43.46947" lon="6.18956">
        <ele>145</ele>
        <time>2025-04-14T12:04:59.352Z</time>
      </trkpt>
      <trkpt lat="43.46945" lon="6.18962">
        <ele>145.3</ele>
        <time>2025-04-14T12:04:59.352Z</time>
      </trkpt>
      <trkpt lat="43.46943" lon="6.18967">
        <ele>145.6</ele>
        <time>2025-04-14T12:04:59.352Z</time>
      </trkpt>
      <trkpt lat="43.46941" lon="6.18973">
        <ele>146.1</ele>
        <time>2025-04-14T12:04:59.352Z</time>
      </trkpt>
      <trkpt lat="43.46939" lon="6.18979">
        <ele>146.7</ele>
        <time>2025-04-14T12:04:59.352Z</time>
      </trkpt>
      <trkpt lat="43.46937" lon="6.18985">
        <ele>147.3</ele>
        <time>2025-04-14T12:04:59.352Z</time>
      </trkpt>
      <trkpt lat="43.46935" lon="6.18991">
        <ele>147.8</ele>
        <time>2025-04-14T12:04:59.352Z</time>
      </trkpt>
      <trkpt lat="43.46934" lon="6.18998">
        <ele>148</ele>
        <time>2025-04-14T12:04:59.352Z</time>
      </trkpt>
      <trkpt lat="43.46933" lon="6.19004">
        <ele>147.9</ele>
        <time>2025-04-14T12:04:59.352Z</time>
      </trkpt>
      <trkpt lat="43.46932" lon="6.19011">
        <ele>147.7</ele>
        <time>2025-04-14T12:04:59.352Z</time>
      </trkpt>
      <trkpt lat="43.46932" lon="6.19018">
        <ele>147.5</ele>
        <time>2025-04-14T12:04:59.352Z</time>
      </trkpt>
      <trkpt lat="43.46931" lon="6.19024">
        <ele>147.3</ele>
        <time>2025-04-14T12:04:59.352Z</time>
      </trkpt>
      <trkpt lat="43.4693" lon="6.19031">
        <ele>147</ele>
        <time>2025-04-14T12:04:59.352Z</time>
      </trkpt>
      <trkpt lat="43.46929" lon="6.19037">
        <ele>146.8</ele>
        <time>2025-04-14T12:04:59.352Z</time>
      </trkpt>
      <trkpt lat="43.46928" lon="6.19044">
        <ele>146.6</ele>
        <time>2025-04-14T12:04:59.352Z</time>
      </trkpt>
      <trkpt lat="43.46927" lon="6.19046">
        <ele>146.7</ele>
        <time>2025-04-14T12:04:59.352Z</time>
      </trkpt>
      <trkpt lat="43.46928" lon="6.19047">
        <ele>146.4</ele>
        <time>2025-04-14T12:04:59.352Z</time>
        <extensions>
          <visugpx:TrkExtension xmlns:visugpx="https://www.visugpx.com/editgpx/">
            <visugpx:node>5</visugpx:node>
            </visugpx:TrkExtension>
        </extensions>
      </trkpt>
      <trkpt lat="43.46927" lon="6.19046">
        <ele>146.7</ele>
        <time>2025-04-14T12:04:59.352Z</time>
      </trkpt>
      <trkpt lat="43.46928" lon="6.19044">
        <ele>146.6</ele>
        <time>2025-04-14T12:04:59.352Z</time>
      </trkpt>
      <trkpt lat="43.46922" lon="6.19051">
        <ele>147.8</ele>
        <time>2025-04-14T12:04:59.352Z</time>
      </trkpt>
      <trkpt lat="43.46916" lon="6.19057">
        <ele>148.9</ele>
        <time>2025-04-14T12:04:59.352Z</time>
      </trkpt>
      <trkpt lat="43.46911" lon="6.1906">
        <ele>149.2</ele>
        <time>2025-04-14T12:04:59.352Z</time>
      </trkpt>
      <trkpt lat="43.46906" lon="6.19063">
        <ele>149.6</ele>
        <time>2025-04-14T12:04:59.352Z</time>
      </trkpt>
      <trkpt lat="43.46901" lon="6.19065">
        <ele>150.1</ele>
        <time>2025-04-14T12:04:59.352Z</time>
      </trkpt>
      <trkpt lat="43.46896" lon="6.19068">
        <ele>150.5</ele>
        <time>2025-04-14T12:04:59.352Z</time>
      </trkpt>
      <trkpt lat="43.46891" lon="6.19067">
        <ele>151.4</ele>
        <time>2025-04-14T12:04:59.352Z</time>
      </trkpt>
      <trkpt lat="43.46887" lon="6.19066">
        <ele>151.9</ele>
        <time>2025-04-14T12:04:59.352Z</time>
      </trkpt>
      <trkpt lat="43.46882" lon="6.19065">
        <ele>151.9</ele>
        <time>2025-04-14T12:04:59.352Z</time>
      </trkpt>
      <trkpt lat="43.46877" lon="6.19064">
        <ele>152</ele>
        <time>2025-04-14T12:04:59.352Z</time>
      </trkpt>
      <trkpt lat="43.46872" lon="6.19062">
        <ele>152</ele>
        <time>2025-04-14T12:04:59.352Z</time>
      </trkpt>
      <trkpt lat="43.46868" lon="6.19061">
        <ele>151.9</ele>
        <time>2025-04-14T12:04:59.352Z</time>
      </trkpt>
      <trkpt lat="43.46863" lon="6.1906">
        <ele>151.9</ele>
        <time>2025-04-14T12:04:59.352Z</time>
      </trkpt>
      <trkpt lat="43.46858" lon="6.19059">
        <ele>151.7</ele>
        <time>2025-04-14T12:04:59.352Z</time>
      </trkpt>
      <trkpt lat="43.46852" lon="6.19059">
        <ele>151.2</ele>
        <time>2025-04-14T12:04:59.352Z</time>
        <extensions>
          <visugpx:TrkExtension xmlns:visugpx="https://www.visugpx.com/editgpx/">
            <visugpx:node>6</visugpx:node>
            </visugpx:TrkExtension>
        </extensions>
      </trkpt>
      <trkpt lat="43.46847" lon="6.19059">
        <ele>150.8</ele>
        <time>2025-04-14T12:04:59.352Z</time>
      </trkpt>
      <trkpt lat="43.46841" lon="6.1906">
        <ele>150.4</ele>
        <time>2025-04-14T12:04:59.352Z</time>
      </trkpt>
      <trkpt lat="43.46836" lon="6.1906">
        <ele>150</ele>
        <time>2025-04-14T12:04:59.352Z</time>
      </trkpt>
      <trkpt lat="43.4683" lon="6.1906">
        <ele>149.4</ele>
        <time>2025-04-14T12:04:59.352Z</time>
      </trkpt>
      <trkpt lat="43.46831" lon="6.19068">
        <ele>149.2</ele>
        <time>2025-04-14T12:04:59.352Z</time>
      </trkpt>
      <trkpt lat="43.46826" lon="6.19068">
        <ele>148.4</ele>
        <time>2025-04-14T12:04:59.352Z</time>
      </trkpt>
      <trkpt lat="43.4682" lon="6.19068">
        <ele>147.6</ele>
        <time>2025-04-14T12:04:59.352Z</time>
      </trkpt>
      <trkpt lat="43.46815" lon="6.19068">
        <ele>146.8</ele>
        <time>2025-04-14T12:04:59.352Z</time>
      </trkpt>
      <trkpt lat="43.46809" lon="6.19068">
        <ele>146</ele>
        <time>2025-04-14T12:04:59.352Z</time>
      </trkpt>
      <trkpt lat="43.46805" lon="6.19065">
        <ele>145.6</ele>
        <time>2025-04-14T12:04:59.352Z</time>
      </trkpt>
      <trkpt lat="43.46802" lon="6.19061">
        <ele>145.1</ele>
        <time>2025-04-14T12:04:59.352Z</time>
      </trkpt>
      <trkpt lat="43.46798" lon="6.19058">
        <ele>144.5</ele>
        <time>2025-04-14T12:04:59.352Z</time>
      </trkpt>
      <trkpt lat="43.46794" lon="6.19054">
        <ele>144.1</ele>
        <time>2025-04-14T12:04:59.352Z</time>
      </trkpt>
      <trkpt lat="43.4679" lon="6.19051">
        <ele>143.9</ele>
        <time>2025-04-14T12:04:59.352Z</time>
      </trkpt>
      <trkpt lat="43.46787" lon="6.19047">
        <ele>143.5</ele>
        <time>2025-04-14T12:04:59.352Z</time>
      </trkpt>
      <trkpt lat="43.46783" lon="6.19044">
        <ele>143</ele>
        <time>2025-04-14T12:04:59.352Z</time>
      </trkpt>
      <trkpt lat="43.46779" lon="6.1904">
        <ele>142.4</ele>
        <time>2025-04-14T12:04:59.352Z</time>
      </trkpt>
      <trkpt lat="43.46774" lon="6.19043">
        <ele>141</ele>
        <time>2025-04-14T12:04:59.352Z</time>
      </trkpt>
      <trkpt lat="43.46769" lon="6.19046">
        <ele>139.7</ele>
        <time>2025-04-14T12:04:59.352Z</time>
      </trkpt>
      <trkpt lat="43.46768" lon="6.19053">
        <ele>139.1</ele>
        <time>2025-04-14T12:04:59.352Z</time>
      </trkpt>
      <trkpt lat="43.46768" lon="6.1906">
        <ele>138.6</ele>
        <time>2025-04-14T12:04:59.352Z</time>
      </trkpt>
      <trkpt lat="43.46767" lon="6.19067">
        <ele>138.2</ele>
        <time>2025-04-14T12:04:59.352Z</time>
      </trkpt>
      <trkpt lat="43.46766" lon="6.19074">
        <ele>137.8</ele>
        <time>2025-04-14T12:04:59.352Z</time>
      </trkpt>
      <trkpt lat="43.46766" lon="6.19074">
        <ele>137.8</ele>
        <time>2025-04-14T12:04:59.352Z</time>
        <extensions>
          <visugpx:TrkExtension xmlns:visugpx="https://www.visugpx.com/editgpx/">
            <visugpx:node>7</visugpx:node>
            </visugpx:TrkExtension>
        </extensions>
      </trkpt>
      <trkpt lat="43.46765" lon="6.19081">
        <ele>137.4</ele>
        <time>2025-04-14T12:04:59.352Z</time>
      </trkpt>
      <trkpt lat="43.46765" lon="6.19088">
        <ele>136.7</ele>
        <time>2025-04-14T12:04:59.352Z</time>
      </trkpt>
      <trkpt lat="43.46764" lon="6.19095">
        <ele>135.9</ele>
        <time>2025-04-14T12:04:59.352Z</time>
      </trkpt>
      <trkpt lat="43.46763" lon="6.19102">
        <ele>135.1</ele>
        <time>2025-04-14T12:04:59.352Z</time>
      </trkpt>
      <trkpt lat="43.46759" lon="6.19101">
        <ele>134.1</ele>
        <time>2025-04-14T12:04:59.352Z</time>
      </trkpt>
      <trkpt lat="43.46754" lon="6.191">
        <ele>133.2</ele>
        <time>2025-04-14T12:04:59.352Z</time>
      </trkpt>
      <trkpt lat="43.46748" lon="6.19102">
        <ele>132.1</ele>
        <time>2025-04-14T12:04:59.352Z</time>
      </trkpt>
      <trkpt lat="43.46742" lon="6.19103">
        <ele>132.3</ele>
        <time>2025-04-14T12:04:59.352Z</time>
      </trkpt>
      <trkpt lat="43.46737" lon="6.19107">
        <ele>132.2</ele>
        <time>2025-04-14T12:04:59.352Z</time>
      </trkpt>
      <trkpt lat="43.46733" lon="6.19111">
        <ele>132.3</ele>
        <time>2025-04-14T12:04:59.352Z</time>
      </trkpt>
      <trkpt lat="43.46728" lon="6.19115">
        <ele>132.3</ele>
        <time>2025-04-14T12:04:59.352Z</time>
      </trkpt>
      <trkpt lat="43.46724" lon="6.19119">
        <ele>132.1</ele>
        <time>2025-04-14T12:04:59.352Z</time>
      </trkpt>
      <trkpt lat="43.46719" lon="6.19122">
        <ele>132.1</ele>
        <time>2025-04-14T12:04:59.352Z</time>
      </trkpt>
      <trkpt lat="43.46714" lon="6.19126">
        <ele>132.1</ele>
        <time>2025-04-14T12:04:59.352Z</time>
      </trkpt>
      <trkpt lat="43.4671" lon="6.1913">
        <ele>132.2</ele>
        <time>2025-04-14T12:04:59.352Z</time>
      </trkpt>
      <trkpt lat="43.46705" lon="6.19134">
        <ele>132.3</ele>
        <time>2025-04-14T12:04:59.352Z</time>
      </trkpt>
      <trkpt lat="43.46703" lon="6.1913">
        <ele>132.8</ele>
        <time>2025-04-14T12:04:59.352Z</time>
        <extensions>
          <visugpx:TrkExtension xmlns:visugpx="https://www.visugpx.com/editgpx/">
            <visugpx:node>8</visugpx:node>
            </visugpx:TrkExtension>
        </extensions>
      </trkpt>
      <trkpt lat="43.46705" lon="6.19134">
        <ele>132.3</ele>
        <time>2025-04-14T12:04:59.352Z</time>
      </trkpt>
      <trkpt lat="43.46699" lon="6.19139">
        <ele>132.5</ele>
        <time>2025-04-14T12:04:59.352Z</time>
      </trkpt>
      <trkpt lat="43.46692" lon="6.19145">
        <ele>132.6</ele>
        <time>2025-04-14T12:04:59.352Z</time>
      </trkpt>
      <trkpt lat="43.46686" lon="6.1915">
        <ele>132.6</ele>
        <time>2025-04-14T12:04:59.352Z</time>
      </trkpt>
      <trkpt lat="43.46679" lon="6.19155">
        <ele>132.7</ele>
        <time>2025-04-14T12:04:59.352Z</time>
      </trkpt>
      <trkpt lat="43.46675" lon="6.19159">
        <ele>132.8</ele>
        <time>2025-04-14T12:04:59.352Z</time>
      </trkpt>
      <trkpt lat="43.4667" lon="6.19163">
        <ele>132.9</ele>
        <time>2025-04-14T12:04:59.352Z</time>
      </trkpt>
      <trkpt lat="43.46666" lon="6.19167">
        <ele>133.1</ele>
        <time>2025-04-14T12:04:59.352Z</time>
      </trkpt>
      <trkpt lat="43.46662" lon="6.19171">
        <ele>133.2</ele>
        <time>2025-04-14T12:04:59.352Z</time>
      </trkpt>
      <trkpt lat="43.46657" lon="6.19175">
        <ele>133.4</ele>
        <time>2025-04-14T12:04:59.352Z</time>
      </trkpt>
      <trkpt lat="43.46653" lon="6.19179">
        <ele>133.6</ele>
        <time>2025-04-14T12:04:59.352Z</time>
      </trkpt>
      <trkpt lat="43.46648" lon="6.19183">
        <ele>133.8</ele>
        <time>2025-04-14T12:04:59.352Z</time>
      </trkpt>
      <trkpt lat="43.46644" lon="6.19187">
        <ele>134</ele>
        <time>2025-04-14T12:04:59.352Z</time>
        <extensions>
          <visugpx:TrkExtension xmlns:visugpx="https://www.visugpx.com/editgpx/">
            <visugpx:node>9</visugpx:node>
            </visugpx:TrkExtension>
        </extensions>
      </trkpt>
      <trkpt lat="43.46638" lon="6.19192">
        <ele>134.2</ele>
        <time>2025-04-14T12:04:59.352Z</time>
      </trkpt>
      <trkpt lat="43.46632" lon="6.19198">
        <ele>134.5</ele>
        <time>2025-04-14T12:04:59.352Z</time>
      </trkpt>
      <trkpt lat="43.46626" lon="6.19203">
        <ele>134.9</ele>
        <time>2025-04-14T12:04:59.352Z</time>
      </trkpt>
      <trkpt lat="43.46621" lon="6.19208">
        <ele>135.3</ele>
        <time>2025-04-14T12:04:59.352Z</time>
      </trkpt>
      <trkpt lat="43.46615" lon="6.19213">
        <ele>135.7</ele>
        <time>2025-04-14T12:04:59.352Z</time>
      </trkpt>
      <trkpt lat="43.46609" lon="6.19219">
        <ele>136</ele>
        <time>2025-04-14T12:04:59.352Z</time>
      </trkpt>
      <trkpt lat="43.46603" lon="6.19224">
        <ele>135.8</ele>
        <time>2025-04-14T12:04:59.352Z</time>
      </trkpt>
      <trkpt lat="43.46597" lon="6.19229">
        <ele>135.3</ele>
        <time>2025-04-14T12:04:59.352Z</time>
      </trkpt>
      <trkpt lat="43.46591" lon="6.19234">
        <ele>134.7</ele>
        <time>2025-04-14T12:04:59.352Z</time>
      </trkpt>
      <trkpt lat="43.46584" lon="6.19239">
        <ele>134.2</ele>
        <time>2025-04-14T12:04:59.352Z</time>
      </trkpt>
      <trkpt lat="43.46578" lon="6.1924">
        <ele>134.5</ele>
        <time>2025-04-14T12:04:59.352Z</time>
      </trkpt>
      <trkpt lat="43.46573" lon="6.19242">
        <ele>135</ele>
        <time>2025-04-14T12:04:59.352Z</time>
      </trkpt>
      <trkpt lat="43.46567" lon="6.19243">
        <ele>135.6</ele>
        <time>2025-04-14T12:04:59.352Z</time>
      </trkpt>
      <trkpt lat="43.46561" lon="6.19244">
        <ele>136.2</ele>
        <time>2025-04-14T12:04:59.352Z</time>
      </trkpt>
      <trkpt lat="43.46555" lon="6.19243">
        <ele>136.6</ele>
        <time>2025-04-14T12:04:59.352Z</time>
      </trkpt>
      <trkpt lat="43.46549" lon="6.19242">
        <ele>136</ele>
        <time>2025-04-14T12:04:59.352Z</time>
      </trkpt>
      <trkpt lat="43.46542" lon="6.1924">
        <ele>135.4</ele>
        <time>2025-04-14T12:04:59.352Z</time>
      </trkpt>
      <trkpt lat="43.46536" lon="6.19239">
        <ele>134.9</ele>
        <time>2025-04-14T12:04:59.352Z</time>
      </trkpt>
      <trkpt lat="43.46532" lon="6.19243">
        <ele>134.2</ele>
        <time>2025-04-14T12:04:59.352Z</time>
      </trkpt>
      <trkpt lat="43.46527" lon="6.19246">
        <ele>133.5</ele>
        <time>2025-04-14T12:04:59.352Z</time>
      </trkpt>
      <trkpt lat="43.46521" lon="6.19252">
        <ele>133.5</ele>
        <time>2025-04-14T12:04:59.352Z</time>
      </trkpt>
      <trkpt lat="43.46516" lon="6.19258">
        <ele>133.3</ele>
        <time>2025-04-14T12:04:59.352Z</time>
      </trkpt>
      <trkpt lat="43.4651" lon="6.19264">
        <ele>133.4</ele>
        <time>2025-04-14T12:04:59.352Z</time>
      </trkpt>
      <trkpt lat="43.46504" lon="6.1927">
        <ele>133.8</ele>
        <time>2025-04-14T12:04:59.352Z</time>
      </trkpt>
      <trkpt lat="43.465" lon="6.19281">
        <ele>133.8</ele>
        <time>2025-04-14T12:04:59.352Z</time>
      </trkpt>
      <trkpt lat="43.46495" lon="6.19291">
        <ele>133.3</ele>
        <time>2025-04-14T12:04:59.352Z</time>
      </trkpt>
      <trkpt lat="43.46492" lon="6.19296">
        <ele>133.3</ele>
        <time>2025-04-14T12:04:59.352Z</time>
      </trkpt>
      <trkpt lat="43.46489" lon="6.19301">
        <ele>133.3</ele>
        <time>2025-04-14T12:04:59.352Z</time>
      </trkpt>
      <trkpt lat="43.46486" lon="6.19306">
        <ele>133.5</ele>
        <time>2025-04-14T12:04:59.352Z</time>
      </trkpt>
      <trkpt lat="43.46483" lon="6.19311">
        <ele>133.8</ele>
        <time>2025-04-14T12:04:59.352Z</time>
      </trkpt>
      <trkpt lat="43.46475" lon="6.19311">
        <ele>135.2</ele>
        <time>2025-04-14T12:04:59.352Z</time>
      </trkpt>
      <trkpt lat="43.46466" lon="6.19311">
        <ele>135.9</ele>
        <time>2025-04-14T12:04:59.352Z</time>
      </trkpt>
      <trkpt lat="43.4646" lon="6.19316">
        <ele>136.1</ele>
        <time>2025-04-14T12:04:59.352Z</time>
      </trkpt>
      <trkpt lat="43.46454" lon="6.1932">
        <ele>136.3</ele>
        <time>2025-04-14T12:04:59.352Z</time>
      </trkpt>
      <trkpt lat="43.46447" lon="6.19325">
        <ele>136.8</ele>
        <time>2025-04-14T12:04:59.352Z</time>
      </trkpt>
      <trkpt lat="43.46441" lon="6.19329">
        <ele>137.2</ele>
        <time>2025-04-14T12:04:59.352Z</time>
      </trkpt>
      <trkpt lat="43.46433" lon="6.19332">
        <ele>137.8</ele>
        <time>2025-04-14T12:04:59.352Z</time>
      </trkpt>
      <trkpt lat="43.46425" lon="6.19335">
        <ele>138.4</ele>
        <time>2025-04-14T12:04:59.352Z</time>
      </trkpt>
      <trkpt lat="43.46417" lon="6.19338">
        <ele>139</ele>
        <time>2025-04-14T12:04:59.352Z</time>
      </trkpt>
      <trkpt lat="43.46409" lon="6.19341">
        <ele>140.7</ele>
        <time>2025-04-14T12:04:59.352Z</time>
      </trkpt>
      <trkpt lat="43.46403" lon="6.19346">
        <ele>142.4</ele>
        <time>2025-04-14T12:04:59.352Z</time>
      </trkpt>
      <trkpt lat="43.464" lon="6.1935">
        <ele>143.4</ele>
        <time>2025-04-14T12:04:59.352Z</time>
      </trkpt>
      <trkpt lat="43.464" lon="6.19359">
        <ele>144.2</ele>
        <time>2025-04-14T12:04:59.352Z</time>
      </trkpt>
      <trkpt lat="43.46402" lon="6.19369">
        <ele>144.3</ele>
        <time>2025-04-14T12:04:59.352Z</time>
      </trkpt>
      <trkpt lat="43.46404" lon="6.19379">
        <ele>144.3</ele>
        <time>2025-04-14T12:04:59.352Z</time>
      </trkpt>
      <trkpt lat="43.46406" lon="6.19378">
        <ele>143.5</ele>
        <time>2025-04-14T12:04:59.352Z</time>
        <extensions>
          <visugpx:TrkExtension xmlns:visugpx="https://www.visugpx.com/editgpx/">
            <visugpx:node>10</visugpx:node>
            </visugpx:TrkExtension>
        </extensions>
      </trkpt>
      <trkpt lat="43.46404" lon="6.19379">
        <ele>144.3</ele>
        <time>2025-04-14T12:04:59.352Z</time>
      </trkpt>
      <trkpt lat="43.46406" lon="6.19385">
        <ele>144.2</ele>
        <time>2025-04-14T12:04:59.352Z</time>
      </trkpt>
      <trkpt lat="43.46407" lon="6.19392">
        <ele>144.1</ele>
        <time>2025-04-14T12:04:59.352Z</time>
      </trkpt>
      <trkpt lat="43.46409" lon="6.19398">
        <ele>144.1</ele>
        <time>2025-04-14T12:04:59.352Z</time>
      </trkpt>
      <trkpt lat="43.4641" lon="6.19404">
        <ele>144.1</ele>
        <time>2025-04-14T12:04:59.352Z</time>
      </trkpt>
      <trkpt lat="43.46412" lon="6.1941">
        <ele>144</ele>
        <time>2025-04-14T12:04:59.352Z</time>
      </trkpt>
      <trkpt lat="43.46413" lon="6.19417">
        <ele>143.8</ele>
        <time>2025-04-14T12:04:59.352Z</time>
      </trkpt>
      <trkpt lat="43.46415" lon="6.19423">
        <ele>143.7</ele>
        <time>2025-04-14T12:04:59.352Z</time>
      </trkpt>
      <trkpt lat="43.46416" lon="6.19429">
        <ele>143.7</ele>
        <time>2025-04-14T12:04:59.352Z</time>
      </trkpt>
      <trkpt lat="43.46417" lon="6.19436">
        <ele>144.2</ele>
        <time>2025-04-14T12:04:59.352Z</time>
      </trkpt>
      <trkpt lat="43.46417" lon="6.19443">
        <ele>144.8</ele>
        <time>2025-04-14T12:04:59.352Z</time>
      </trkpt>
      <trkpt lat="43.46418" lon="6.1945">
        <ele>144.8</ele>
        <time>2025-04-14T12:04:59.352Z</time>
      </trkpt>
      <trkpt lat="43.46418" lon="6.19457">
        <ele>144.7</ele>
        <time>2025-04-14T12:04:59.352Z</time>
      </trkpt>
      <trkpt lat="43.46419" lon="6.19464">
        <ele>144.5</ele>
        <time>2025-04-14T12:04:59.352Z</time>
      </trkpt>
      <trkpt lat="43.46419" lon="6.19471">
        <ele>144.4</ele>
        <time>2025-04-14T12:04:59.352Z</time>
      </trkpt>
      <trkpt lat="43.4642" lon="6.19478">
        <ele>144</ele>
        <time>2025-04-14T12:04:59.352Z</time>
      </trkpt>
      <trkpt lat="43.4642" lon="6.19485">
        <ele>143.6</ele>
        <time>2025-04-14T12:04:59.352Z</time>
      </trkpt>
      <trkpt lat="43.4642" lon="6.19493">
        <ele>143.4</ele>
        <time>2025-04-14T12:04:59.352Z</time>
      </trkpt>
      <trkpt lat="43.46419" lon="6.19501">
        <ele>143.3</ele>
        <time>2025-04-14T12:04:59.352Z</time>
      </trkpt>
      <trkpt lat="43.46419" lon="6.19508">
        <ele>143.6</ele>
        <time>2025-04-14T12:04:59.352Z</time>
      </trkpt>
      <trkpt lat="43.46418" lon="6.19516">
        <ele>144</ele>
        <time>2025-04-14T12:04:59.352Z</time>
      </trkpt>
      <trkpt lat="43.46418" lon="6.19524">
        <ele>144.5</ele>
        <time>2025-04-14T12:04:59.352Z</time>
      </trkpt>
      <trkpt lat="43.46417" lon="6.19532">
        <ele>144.8</ele>
        <time>2025-04-14T12:04:59.352Z</time>
      </trkpt>
      <trkpt lat="43.46417" lon="6.19539">
        <ele>145.1</ele>
        <time>2025-04-14T12:04:59.352Z</time>
      </trkpt>
      <trkpt lat="43.46416" lon="6.19547">
        <ele>145.4</ele>
        <time>2025-04-14T12:04:59.352Z</time>
      </trkpt>
      <trkpt lat="43.46415" lon="6.19558">
        <ele>146.3</ele>
        <time>2025-04-14T12:04:59.352Z</time>
      </trkpt>
      <trkpt lat="43.46413" lon="6.19568">
        <ele>147.8</ele>
        <time>2025-04-14T12:04:59.352Z</time>
      </trkpt>
      <trkpt lat="43.46412" lon="6.19579">
        <ele>149.2</ele>
        <time>2025-04-14T12:04:59.352Z</time>
      </trkpt>
      <trkpt lat="43.4641" lon="6.1959">
        <ele>149.7</ele>
        <time>2025-04-14T12:04:59.352Z</time>
      </trkpt>
      <trkpt lat="43.46409" lon="6.196">
        <ele>149.6</ele>
        <time>2025-04-14T12:04:59.352Z</time>
      </trkpt>
      <trkpt lat="43.46407" lon="6.19611">
        <ele>149.5</ele>
        <time>2025-04-14T12:04:59.352Z</time>
      </trkpt>
      <trkpt lat="43.46406" lon="6.19621">
        <ele>149.8</ele>
        <time>2025-04-14T12:04:59.352Z</time>
      </trkpt>
      <trkpt lat="43.46404" lon="6.19632">
        <ele>149.9</ele>
        <time>2025-04-14T12:04:59.352Z</time>
      </trkpt>
      <trkpt lat="43.46401" lon="6.19641">
        <ele>150.8</ele>
        <time>2025-04-14T12:04:59.352Z</time>
      </trkpt>
      <trkpt lat="43.46398" lon="6.1965">
        <ele>152.7</ele>
        <time>2025-04-14T12:04:59.352Z</time>
      </trkpt>
      <trkpt lat="43.464" lon="6.19661">
        <ele>152.8</ele>
        <time>2025-04-14T12:04:59.352Z</time>
      </trkpt>
      <trkpt lat="43.46403" lon="6.19671">
        <ele>153.2</ele>
        <time>2025-04-14T12:04:59.352Z</time>
      </trkpt>
      <trkpt lat="43.46405" lon="6.19682">
        <ele>153.9</ele>
        <time>2025-04-14T12:04:59.352Z</time>
      </trkpt>
      <trkpt lat="43.46407" lon="6.19692">
        <ele>154.2</ele>
        <time>2025-04-14T12:04:59.352Z</time>
      </trkpt>
      <trkpt lat="43.46409" lon="6.19699">
        <ele>154.2</ele>
        <time>2025-04-14T12:04:59.352Z</time>
        <extensions>
          <visugpx:TrkExtension xmlns:visugpx="https://www.visugpx.com/editgpx/">
            <visugpx:node>11</visugpx:node>
            </visugpx:TrkExtension>
        </extensions>
      </trkpt>
      <trkpt lat="43.46411" lon="6.19705">
        <ele>154.2</ele>
        <time>2025-04-14T12:04:59.352Z</time>
      </trkpt>
      <trkpt lat="43.46412" lon="6.19711">
        <ele>154.1</ele>
        <time>2025-04-14T12:04:59.352Z</time>
      </trkpt>
      <trkpt lat="43.46414" lon="6.19717">
        <ele>153.9</ele>
        <time>2025-04-14T12:04:59.352Z</time>
      </trkpt>
      <trkpt lat="43.46416" lon="6.19724">
        <ele>153.8</ele>
        <time>2025-04-14T12:04:59.352Z</time>
      </trkpt>
      <trkpt lat="43.46417" lon="6.1973">
        <ele>153.9</ele>
        <time>2025-04-14T12:04:59.352Z</time>
      </trkpt>
      <trkpt lat="43.46419" lon="6.19736">
        <ele>154.1</ele>
        <time>2025-04-14T12:04:59.352Z</time>
      </trkpt>
      <trkpt lat="43.4642" lon="6.19742">
        <ele>154.2</ele>
        <time>2025-04-14T12:04:59.352Z</time>
      </trkpt>
      <trkpt lat="43.46422" lon="6.19748">
        <ele>154.4</ele>
        <time>2025-04-14T12:04:59.352Z</time>
      </trkpt>
      <trkpt lat="43.46425" lon="6.19754">
        <ele>154.2</ele>
        <time>2025-04-14T12:04:59.352Z</time>
      </trkpt>
      <trkpt lat="43.46428" lon="6.19759">
        <ele>154.3</ele>
        <time>2025-04-14T12:04:59.352Z</time>
      </trkpt>
      <trkpt lat="43.46431" lon="6.19765">
        <ele>154.4</ele>
        <time>2025-04-14T12:04:59.352Z</time>
      </trkpt>
      <trkpt lat="43.46434" lon="6.1977">
        <ele>154.5</ele>
        <time>2025-04-14T12:04:59.352Z</time>
      </trkpt>
      <trkpt lat="43.46436" lon="6.19776">
        <ele>154.6</ele>
        <time>2025-04-14T12:04:59.352Z</time>
      </trkpt>
      <trkpt lat="43.46439" lon="6.19781">
        <ele>154.5</ele>
        <time>2025-04-14T12:04:59.352Z</time>
      </trkpt>
      <trkpt lat="43.46442" lon="6.19787">
        <ele>154.2</ele>
        <time>2025-04-14T12:04:59.352Z</time>
      </trkpt>
      <trkpt lat="43.46445" lon="6.19792">
        <ele>153.8</ele>
        <time>2025-04-14T12:04:59.352Z</time>
      </trkpt>
      <trkpt lat="43.46447" lon="6.19798">
        <ele>153.6</ele>
        <time>2025-04-14T12:04:59.352Z</time>
      </trkpt>
      <trkpt lat="43.46449" lon="6.19804">
        <ele>153.4</ele>
        <time>2025-04-14T12:04:59.352Z</time>
      </trkpt>
      <trkpt lat="43.46451" lon="6.1981">
        <ele>153.1</ele>
        <time>2025-04-14T12:04:59.352Z</time>
      </trkpt>
      <trkpt lat="43.46453" lon="6.19816">
        <ele>152.8</ele>
        <time>2025-04-14T12:04:59.352Z</time>
      </trkpt>
      <trkpt lat="43.46455" lon="6.19822">
        <ele>152.7</ele>
        <time>2025-04-14T12:04:59.352Z</time>
      </trkpt>
      <trkpt lat="43.46457" lon="6.19828">
        <ele>152.6</ele>
        <time>2025-04-14T12:04:59.352Z</time>
      </trkpt>
      <trkpt lat="43.46459" lon="6.19834">
        <ele>152.5</ele>
        <time>2025-04-14T12:04:59.352Z</time>
      </trkpt>
      <trkpt lat="43.46461" lon="6.1984">
        <ele>152.7</ele>
        <time>2025-04-14T12:04:59.352Z</time>
      </trkpt>
      <trkpt lat="43.46462" lon="6.19846">
        <ele>152.9</ele>
        <time>2025-04-14T12:04:59.352Z</time>
      </trkpt>
      <trkpt lat="43.46464" lon="6.19852">
        <ele>153</ele>
        <time>2025-04-14T12:04:59.352Z</time>
      </trkpt>
      <trkpt lat="43.46466" lon="6.19858">
        <ele>153.2</ele>
        <time>2025-04-14T12:04:59.352Z</time>
      </trkpt>
      <trkpt lat="43.46468" lon="6.19864">
        <ele>153.2</ele>
        <time>2025-04-14T12:04:59.352Z</time>
      </trkpt>
      <trkpt lat="43.4647" lon="6.1987">
        <ele>152.9</ele>
        <time>2025-04-14T12:04:59.352Z</time>
      </trkpt>
      <trkpt lat="43.46472" lon="6.19876">
        <ele>152.7</ele>
        <time>2025-04-14T12:04:59.352Z</time>
      </trkpt>
      <trkpt lat="43.46474" lon="6.19882">
        <ele>152.7</ele>
        <time>2025-04-14T12:04:59.352Z</time>
      </trkpt>
      <trkpt lat="43.46476" lon="6.19888">
        <ele>152.9</ele>
        <time>2025-04-14T12:04:59.352Z</time>
      </trkpt>
      <trkpt lat="43.46482" lon="6.19893">
        <ele>152.7</ele>
        <time>2025-04-14T12:04:59.352Z</time>
      </trkpt>
      <trkpt lat="43.46488" lon="6.19897">
        <ele>152.6</ele>
        <time>2025-04-14T12:04:59.352Z</time>
      </trkpt>
      <trkpt lat="43.46493" lon="6.19902">
        <ele>152.4</ele>
        <time>2025-04-14T12:04:59.352Z</time>
      </trkpt>
      <trkpt lat="43.46499" lon="6.19906">
        <ele>152.2</ele>
        <time>2025-04-14T12:04:59.352Z</time>
      </trkpt>
      <trkpt lat="43.46503" lon="6.19914">
        <ele>153.3</ele>
        <time>2025-04-14T12:04:59.352Z</time>
      </trkpt>
      <trkpt lat="43.46507" lon="6.19923">
        <ele>153.4</ele>
        <time>2025-04-14T12:04:59.352Z</time>
      </trkpt>
      <trkpt lat="43.46511" lon="6.19931">
        <ele>153.3</ele>
        <time>2025-04-14T12:04:59.352Z</time>
      </trkpt>
      <trkpt lat="43.46515" lon="6.19939">
        <ele>153.3</ele>
        <time>2025-04-14T12:04:59.352Z</time>
      </trkpt>
      <trkpt lat="43.46519" lon="6.19947">
        <ele>153.3</ele>
        <time>2025-04-14T12:04:59.352Z</time>
      </trkpt>
      <trkpt lat="43.46523" lon="6.19956">
        <ele>153.5</ele>
        <time>2025-04-14T12:04:59.352Z</time>
      </trkpt>
      <trkpt lat="43.46527" lon="6.19964">
        <ele>153.7</ele>
        <time>2025-04-14T12:04:59.352Z</time>
      </trkpt>
      <trkpt lat="43.46531" lon="6.19972">
        <ele>154</ele>
        <time>2025-04-14T12:04:59.352Z</time>
      </trkpt>
      <trkpt lat="43.46535" lon="6.19983">
        <ele>153.9</ele>
        <time>2025-04-14T12:04:59.352Z</time>
      </trkpt>
      <trkpt lat="43.46538" lon="6.19993">
        <ele>153.8</ele>
        <time>2025-04-14T12:04:59.352Z</time>
      </trkpt>
      <trkpt lat="43.46542" lon="6.20004">
        <ele>154.1</ele>
        <time>2025-04-14T12:04:59.352Z</time>
      </trkpt>
      <trkpt lat="43.46545" lon="6.20014">
        <ele>155</ele>
        <time>2025-04-14T12:04:59.352Z</time>
      </trkpt>
      <trkpt lat="43.4655" lon="6.2002">
        <ele>154.8</ele>
        <time>2025-04-14T12:04:59.352Z</time>
      </trkpt>
      <trkpt lat="43.46555" lon="6.20025">
        <ele>154.6</ele>
        <time>2025-04-14T12:04:59.352Z</time>
      </trkpt>
      <trkpt lat="43.46564" lon="6.20028">
        <ele>154.2</ele>
        <time>2025-04-14T12:04:59.352Z</time>
      </trkpt>
      <trkpt lat="43.46572" lon="6.20031">
        <ele>153.8</ele>
        <time>2025-04-14T12:04:59.352Z</time>
      </trkpt>
      <trkpt lat="43.46576" lon="6.20034">
        <ele>153.8</ele>
        <time>2025-04-14T12:04:59.352Z</time>
      </trkpt>
      <trkpt lat="43.46581" lon="6.20038">
        <ele>154</ele>
        <time>2025-04-14T12:04:59.352Z</time>
      </trkpt>
      <trkpt lat="43.46585" lon="6.20041">
        <ele>154</ele>
        <time>2025-04-14T12:04:59.352Z</time>
      </trkpt>
      <trkpt lat="43.4659" lon="6.20044">
        <ele>153.8</ele>
        <time>2025-04-14T12:04:59.352Z</time>
      </trkpt>
      <trkpt lat="43.46594" lon="6.20047">
        <ele>153.7</ele>
        <time>2025-04-14T12:04:59.352Z</time>
      </trkpt>
      <trkpt lat="43.46598" lon="6.20051">
        <ele>153.6</ele>
        <time>2025-04-14T12:04:59.352Z</time>
      </trkpt>
      <trkpt lat="43.46603" lon="6.20054">
        <ele>153.8</ele>
        <time>2025-04-14T12:04:59.352Z</time>
      </trkpt>
      <trkpt lat="43.46607" lon="6.20057">
        <ele>154</ele>
        <time>2025-04-14T12:04:59.352Z</time>
      </trkpt>
      <trkpt lat="43.46608" lon="6.20056">
        <ele>153.6</ele>
        <time>2025-04-14T12:04:59.352Z</time>
        <extensions>
          <visugpx:TrkExtension xmlns:visugpx="https://www.visugpx.com/editgpx/">
            <visugpx:node>12</visugpx:node>
            </visugpx:TrkExtension>
        </extensions>
      </trkpt>
      <trkpt lat="43.46607" lon="6.20057">
        <ele>154</ele>
        <time>2025-04-14T12:04:59.352Z</time>
      </trkpt>
      <trkpt lat="43.46608" lon="6.20058">
        <ele>154.1</ele>
        <time>2025-04-14T12:04:59.352Z</time>
      </trkpt>
      <trkpt lat="43.46616" lon="6.2006">
        <ele>153.6</ele>
        <time>2025-04-14T12:04:59.352Z</time>
      </trkpt>
      <trkpt lat="43.46624" lon="6.20061">
        <ele>153.3</ele>
        <time>2025-04-14T12:04:59.352Z</time>
      </trkpt>
      <trkpt lat="43.46629" lon="6.20065">
        <ele>153.9</ele>
        <time>2025-04-14T12:04:59.352Z</time>
      </trkpt>
      <trkpt lat="43.46633" lon="6.20068">
        <ele>154.6</ele>
        <time>2025-04-14T12:04:59.352Z</time>
      </trkpt>
      <trkpt lat="43.46638" lon="6.20072">
        <ele>155.3</ele>
        <time>2025-04-14T12:04:59.352Z</time>
      </trkpt>
      <trkpt lat="43.46642" lon="6.20075">
        <ele>155.2</ele>
        <time>2025-04-14T12:04:59.352Z</time>
      </trkpt>
      <trkpt lat="43.46645" lon="6.20081">
        <ele>155.7</ele>
        <time>2025-04-14T12:04:59.352Z</time>
      </trkpt>
      <trkpt lat="43.46648" lon="6.20086">
        <ele>155.4</ele>
        <time>2025-04-14T12:04:59.352Z</time>
      </trkpt>
      <trkpt lat="43.4665" lon="6.20092">
        <ele>154.7</ele>
        <time>2025-04-14T12:04:59.352Z</time>
      </trkpt>
      <trkpt lat="43.46653" lon="6.20097">
        <ele>154.2</ele>
        <time>2025-04-14T12:04:59.352Z</time>
      </trkpt>
      <trkpt lat="43.46656" lon="6.20103">
        <ele>153.8</ele>
        <time>2025-04-14T12:04:59.352Z</time>
      </trkpt>
      <trkpt lat="43.46659" lon="6.20108">
        <ele>153.7</ele>
        <time>2025-04-14T12:04:59.352Z</time>
      </trkpt>
      <trkpt lat="43.46661" lon="6.20114">
        <ele>153.8</ele>
        <time>2025-04-14T12:04:59.352Z</time>
      </trkpt>
      <trkpt lat="43.46664" lon="6.20119">
        <ele>154.3</ele>
        <time>2025-04-14T12:04:59.352Z</time>
      </trkpt>
      <trkpt lat="43.46669" lon="6.20121">
        <ele>154.1</ele>
        <time>2025-04-14T12:04:59.352Z</time>
      </trkpt>
      <trkpt lat="43.46673" lon="6.20124">
        <ele>154.4</ele>
        <time>2025-04-14T12:04:59.352Z</time>
      </trkpt>
      <trkpt lat="43.46678" lon="6.20126">
        <ele>154.8</ele>
        <time>2025-04-14T12:04:59.352Z</time>
      </trkpt>
      <trkpt lat="43.46682" lon="6.20128">
        <ele>155.1</ele>
        <time>2025-04-14T12:04:59.352Z</time>
      </trkpt>
      <trkpt lat="43.46687" lon="6.20129">
        <ele>155.2</ele>
        <time>2025-04-14T12:04:59.352Z</time>
      </trkpt>
      <trkpt lat="43.46691" lon="6.2013">
        <ele>155.2</ele>
        <time>2025-04-14T12:04:59.352Z</time>
      </trkpt>
      <trkpt lat="43.46696" lon="6.20129">
        <ele>154.9</ele>
        <time>2025-04-14T12:04:59.352Z</time>
      </trkpt>
      <trkpt lat="43.46701" lon="6.20129">
        <ele>154.8</ele>
        <time>2025-04-14T12:04:59.352Z</time>
      </trkpt>
      <trkpt lat="43.46706" lon="6.20128">
        <ele>154.7</ele>
        <time>2025-04-14T12:04:59.352Z</time>
      </trkpt>
      <trkpt lat="43.46711" lon="6.20127">
        <ele>154.6</ele>
        <time>2025-04-14T12:04:59.352Z</time>
      </trkpt>
      <trkpt lat="43.46719" lon="6.20128">
        <ele>154.7</ele>
        <time>2025-04-14T12:04:59.352Z</time>
      </trkpt>
      <trkpt lat="43.46727" lon="6.20128">
        <ele>154.6</ele>
        <time>2025-04-14T12:04:59.352Z</time>
      </trkpt>
      <trkpt lat="43.46732" lon="6.20132">
        <ele>154.8</ele>
        <time>2025-04-14T12:04:59.352Z</time>
      </trkpt>
      <trkpt lat="43.46736" lon="6.20136">
        <ele>154.8</ele>
        <time>2025-04-14T12:04:59.352Z</time>
      </trkpt>
      <trkpt lat="43.46738" lon="6.20144">
        <ele>154.8</ele>
        <time>2025-04-14T12:04:59.352Z</time>
      </trkpt>
      <trkpt lat="43.4674" lon="6.20152">
        <ele>154.4</ele>
        <time>2025-04-14T12:04:59.352Z</time>
      </trkpt>
      <trkpt lat="43.46739" lon="6.20162">
        <ele>154.3</ele>
        <time>2025-04-14T12:04:59.352Z</time>
      </trkpt>
      <trkpt lat="43.46737" lon="6.20172">
        <ele>154.3</ele>
        <time>2025-04-14T12:04:59.352Z</time>
      </trkpt>
      <trkpt lat="43.46733" lon="6.2018">
        <ele>154.6</ele>
        <time>2025-04-14T12:04:59.352Z</time>
      </trkpt>
      <trkpt lat="43.46728" lon="6.20187">
        <ele>154.8</ele>
        <time>2025-04-14T12:04:59.352Z</time>
        <extensions>
          <visugpx:TrkExtension xmlns:visugpx="https://www.visugpx.com/editgpx/">
            <visugpx:node>13</visugpx:node>
            </visugpx:TrkExtension>
        </extensions>
      </trkpt>
      <trkpt lat="43.46728" lon="6.20187">
        <ele>154.8</ele>
        <time>2025-04-14T12:04:59.352Z</time>
      </trkpt>
      <trkpt lat="43.46723" lon="6.20193">
        <ele>155</ele>
        <time>2025-04-14T12:04:59.352Z</time>
      </trkpt>
      <trkpt lat="43.46719" lon="6.20202">
        <ele>155.5</ele>
        <time>2025-04-14T12:04:59.352Z</time>
      </trkpt>
      <trkpt lat="43.46718" lon="6.20209">
        <ele>155.5</ele>
        <time>2025-04-14T12:04:59.352Z</time>
      </trkpt>
      <trkpt lat="43.46717" lon="6.20216">
        <ele>155.6</ele>
        <time>2025-04-14T12:04:59.352Z</time>
      </trkpt>
      <trkpt lat="43.46715" lon="6.20223">
        <ele>155.7</ele>
        <time>2025-04-14T12:04:59.352Z</time>
      </trkpt>
      <trkpt lat="43.46714" lon="6.2023">
        <ele>155.1</ele>
        <time>2025-04-14T12:04:59.352Z</time>
      </trkpt>
      <trkpt lat="43.46715" lon="6.20237">
        <ele>154.2</ele>
        <time>2025-04-14T12:04:59.352Z</time>
      </trkpt>
      <trkpt lat="43.46715" lon="6.20244">
        <ele>153.3</ele>
        <time>2025-04-14T12:04:59.352Z</time>
      </trkpt>
      <trkpt lat="43.46716" lon="6.20251">
        <ele>152.5</ele>
        <time>2025-04-14T12:04:59.352Z</time>
      </trkpt>
      <trkpt lat="43.46716" lon="6.20258">
        <ele>153</ele>
        <time>2025-04-14T12:04:59.352Z</time>
      </trkpt>
      <trkpt lat="43.46721" lon="6.20267">
        <ele>153</ele>
        <time>2025-04-14T12:04:59.352Z</time>
      </trkpt>
      <trkpt lat="43.46725" lon="6.20275">
        <ele>152.6</ele>
        <time>2025-04-14T12:04:59.352Z</time>
      </trkpt>
      <trkpt lat="43.46729" lon="6.20281">
        <ele>151.7</ele>
        <time>2025-04-14T12:04:59.352Z</time>
      </trkpt>
      <trkpt lat="43.46733" lon="6.20286">
        <ele>150.9</ele>
        <time>2025-04-14T12:04:59.352Z</time>
      </trkpt>
      <trkpt lat="43.46736" lon="6.20292">
        <ele>150.2</ele>
        <time>2025-04-14T12:04:59.352Z</time>
      </trkpt>
      <trkpt lat="43.4674" lon="6.20297">
        <ele>149.7</ele>
        <time>2025-04-14T12:04:59.352Z</time>
      </trkpt>
      <trkpt lat="43.46742" lon="6.20303">
        <ele>150</ele>
        <time>2025-04-14T12:04:59.352Z</time>
      </trkpt>
      <trkpt lat="43.46744" lon="6.20309">
        <ele>150.4</ele>
        <time>2025-04-14T12:04:59.352Z</time>
      </trkpt>
      <trkpt lat="43.46745" lon="6.20315">
        <ele>151</ele>
        <time>2025-04-14T12:04:59.352Z</time>
      </trkpt>
      <trkpt lat="43.46747" lon="6.20321">
        <ele>151.7</ele>
        <time>2025-04-14T12:04:59.352Z</time>
      </trkpt>
      <trkpt lat="43.46749" lon="6.20326">
        <ele>152.7</ele>
        <time>2025-04-14T12:04:59.352Z</time>
      </trkpt>
      <trkpt lat="43.46751" lon="6.20332">
        <ele>153.5</ele>
        <time>2025-04-14T12:04:59.352Z</time>
      </trkpt>
      <trkpt lat="43.46752" lon="6.20338">
        <ele>152.9</ele>
        <time>2025-04-14T12:04:59.352Z</time>
      </trkpt>
      <trkpt lat="43.46754" lon="6.20344">
        <ele>152.3</ele>
        <time>2025-04-14T12:04:59.352Z</time>
      </trkpt>
      <trkpt lat="43.46756" lon="6.2035">
        <ele>151.6</ele>
        <time>2025-04-14T12:04:59.352Z</time>
      </trkpt>
      <trkpt lat="43.46758" lon="6.20356">
        <ele>150.8</ele>
        <time>2025-04-14T12:04:59.352Z</time>
      </trkpt>
      <trkpt lat="43.46759" lon="6.20362">
        <ele>150.1</ele>
        <time>2025-04-14T12:04:59.352Z</time>
      </trkpt>
      <trkpt lat="43.46761" lon="6.20368">
        <ele>149.4</ele>
        <time>2025-04-14T12:04:59.352Z</time>
      </trkpt>
      <trkpt lat="43.46763" lon="6.20373">
        <ele>148.9</ele>
        <time>2025-04-14T12:04:59.352Z</time>
      </trkpt>
      <trkpt lat="43.46765" lon="6.20379">
        <ele>148.6</ele>
        <time>2025-04-14T12:04:59.352Z</time>
      </trkpt>
      <trkpt lat="43.46766" lon="6.20385">
        <ele>148.5</ele>
        <time>2025-04-14T12:04:59.352Z</time>
      </trkpt>
      <trkpt lat="43.46768" lon="6.20391">
        <ele>148.5</ele>
        <time>2025-04-14T12:04:59.352Z</time>
      </trkpt>
      <trkpt lat="43.46769" lon="6.20399">
        <ele>149.2</ele>
        <time>2025-04-14T12:04:59.352Z</time>
      </trkpt>
      <trkpt lat="43.46769" lon="6.20407">
        <ele>150</ele>
        <time>2025-04-14T12:04:59.352Z</time>
      </trkpt>
      <trkpt lat="43.4677" lon="6.20415">
        <ele>150.9</ele>
        <time>2025-04-14T12:04:59.352Z</time>
      </trkpt>
      <trkpt lat="43.4677" lon="6.20423">
        <ele>151.9</ele>
        <time>2025-04-14T12:04:59.352Z</time>
      </trkpt>
      <trkpt lat="43.46774" lon="6.20431">
        <ele>152.5</ele>
        <time>2025-04-14T12:04:59.352Z</time>
      </trkpt>
      <trkpt lat="43.46778" lon="6.20438">
        <ele>153.5</ele>
        <time>2025-04-14T12:04:59.352Z</time>
      </trkpt>
      <trkpt lat="43.46782" lon="6.20446">
        <ele>152.9</ele>
        <time>2025-04-14T12:04:59.352Z</time>
      </trkpt>
      <trkpt lat="43.46786" lon="6.20453">
        <ele>151.3</ele>
        <time>2025-04-14T12:04:59.352Z</time>
      </trkpt>
      <trkpt lat="43.46785" lon="6.20456">
        <ele>152</ele>
        <time>2025-04-14T12:04:59.352Z</time>
      </trkpt>
      <trkpt lat="43.46785" lon="6.20456">
        <ele>152</ele>
        <time>2025-04-14T12:04:59.352Z</time>
        <extensions>
          <visugpx:TrkExtension xmlns:visugpx="https://www.visugpx.com/editgpx/">
            <visugpx:node>14</visugpx:node>
            </visugpx:TrkExtension>
        </extensions>
      </trkpt>
      <trkpt lat="43.46783" lon="6.20466">
        <ele>153.4</ele>
        <time>2025-04-14T12:05:09.294Z</time>
      </trkpt>
      <trkpt lat="43.46781" lon="6.20475">
        <ele>154.4</ele>
        <time>2025-04-14T12:05:19.236Z</time>
      </trkpt>
      <trkpt lat="43.4678" lon="6.20481">
        <ele>154.3</ele>
        <time>2025-04-14T12:05:25.510Z</time>
      </trkpt>
      <trkpt lat="43.46779" lon="6.20487">
        <ele>154.1</ele>
        <time>2025-04-14T12:05:31.784Z</time>
      </trkpt>
      <trkpt lat="43.46778" lon="6.20493">
        <ele>154.1</ele>
        <time>2025-04-14T12:05:38.058Z</time>
      </trkpt>
      <trkpt lat="43.46778" lon="6.205">
        <ele>154.1</ele>
        <time>2025-04-14T12:05:44.332Z</time>
      </trkpt>
      <trkpt lat="43.46777" lon="6.20506">
        <ele>153.9</ele>
        <time>2025-04-14T12:05:50.606Z</time>
      </trkpt>
      <trkpt lat="43.46776" lon="6.20512">
        <ele>153.7</ele>
        <time>2025-04-14T12:05:56.880Z</time>
      </trkpt>
      <trkpt lat="43.46775" lon="6.20518">
        <ele>153.6</ele>
        <time>2025-04-14T12:06:03.154Z</time>
      </trkpt>
      <trkpt lat="43.46774" lon="6.20524">
        <ele>153.5</ele>
        <time>2025-04-14T12:06:09.428Z</time>
      </trkpt>
      <trkpt lat="43.46771" lon="6.20532">
        <ele>153.5</ele>
        <time>2025-04-14T12:06:18.478Z</time>
      </trkpt>
      <trkpt lat="43.4677" lon="6.20531">
        <ele>153.7</ele>
        <time>2025-04-14T12:06:20.189Z</time>
        <extensions>
          <visugpx:TrkExtension xmlns:visugpx="https://www.visugpx.com/editgpx/">
            <visugpx:node>15</visugpx:node>
            </visugpx:TrkExtension>
        </extensions>
      </trkpt>
      <trkpt lat="43.46776" lon="6.20537">
        <ele>152.7</ele>
        <time>2025-04-14T12:06:29.595Z</time>
      </trkpt>
      <trkpt lat="43.46781" lon="6.20542">
        <ele>150.9</ele>
        <time>2025-04-14T12:06:39Z</time>
      </trkpt>
      <trkpt lat="43.46786" lon="6.20547">
        <ele>149.1</ele>
        <time>2025-04-14T12:06:47.000Z</time>
      </trkpt>
      <trkpt lat="43.4679" lon="6.20552">
        <ele>147.3</ele>
        <time>2025-04-14T12:06:55Z</time>
      </trkpt>
      <trkpt lat="43.46791" lon="6.2056">
        <ele>146.3</ele>
        <time>2025-04-14T12:07:24Z</time>
      </trkpt>
      <trkpt lat="43.46788" lon="6.20564">
        <ele>146.7</ele>
        <time>2025-04-14T12:07:43Z</time>
      </trkpt>
      <trkpt lat="43.46785" lon="6.2057">
        <ele>146.7</ele>
        <time>2025-04-14T12:07:51.499Z</time>
      </trkpt>
      <trkpt lat="43.46782" lon="6.20576">
        <ele>146.5</ele>
        <time>2025-04-14T12:08:00Z</time>
      </trkpt>
      <trkpt lat="43.46778" lon="6.20582">
        <ele>146.4</ele>
        <time>2025-04-14T12:08:08.499Z</time>
      </trkpt>
      <trkpt lat="43.46773" lon="6.20587">
        <ele>146.3</ele>
        <time>2025-04-14T12:08:17Z</time>
      </trkpt>
      <trkpt lat="43.46772" lon="6.20587">
        <ele>146.6</ele>
        <time>2025-04-14T12:08:38Z</time>
      </trkpt>
      <trkpt lat="43.46771" lon="6.20589">
        <ele>146.3</ele>
        <time>2025-04-14T12:08:41.346Z</time>
      </trkpt>
      <trkpt lat="43.46765" lon="6.20593">
        <ele>146.5</ele>
        <time>2025-04-14T12:08:54Z</time>
      </trkpt>
      <trkpt lat="43.46761" lon="6.20599">
        <ele>145.5</ele>
        <time>2025-04-14T12:09:12Z</time>
      </trkpt>
      <trkpt lat="43.46767" lon="6.20599">
        <ele>144.5</ele>
        <time>2025-04-14T12:09:33Z</time>
      </trkpt>
      <trkpt lat="43.46762" lon="6.20605">
        <ele>143.5</ele>
        <time>2025-04-14T12:09:46Z</time>
      </trkpt>
      <trkpt lat="43.46759" lon="6.20607">
        <ele>143.3</ele>
        <time>2025-04-14T12:10:04Z</time>
      </trkpt>
      <trkpt lat="43.46758" lon="6.20612">
        <ele>142.1</ele>
        <time>2025-04-14T12:10:37Z</time>
      </trkpt>
      <trkpt lat="43.46755" lon="6.20609">
        <ele>143.2</ele>
        <time>2025-04-14T12:11:33Z</time>
      </trkpt>
      <trkpt lat="43.46756" lon="6.20602">
        <ele>145.4</ele>
        <time>2025-04-14T12:11:38.500Z</time>
      </trkpt>
      <trkpt lat="43.46756" lon="6.20595">
        <ele>147.7</ele>
        <time>2025-04-14T12:11:44Z</time>
      </trkpt>
      <trkpt lat="43.46762" lon="6.20589">
        <ele>148.3</ele>
        <time>2025-04-14T12:11:54Z</time>
      </trkpt>
      <trkpt lat="43.46765" lon="6.20584">
        <ele>149</ele>
        <time>2025-04-14T12:12:00.500Z</time>
      </trkpt>
      <trkpt lat="43.46768" lon="6.20579">
        <ele>149.1</ele>
        <time>2025-04-14T12:12:07Z</time>
      </trkpt>
      <trkpt lat="43.46764" lon="6.20571">
        <ele>151.3</ele>
        <time>2025-04-14T12:12:27Z</time>
      </trkpt>
      <trkpt lat="43.46759" lon="6.20578">
        <ele>151.4</ele>
        <time>2025-04-14T12:12:41Z</time>
      </trkpt>
      <trkpt lat="43.46753" lon="6.20584">
        <ele>152</ele>
        <time>2025-04-14T12:13:06Z</time>
      </trkpt>
      <trkpt lat="43.46749" lon="6.20588">
        <ele>151.5</ele>
        <time>2025-04-14T12:13:29Z</time>
      </trkpt>
      <trkpt lat="43.46746" lon="6.20594">
        <ele>150.5</ele>
        <time>2025-04-14T12:13:37.999Z</time>
      </trkpt>
      <trkpt lat="43.46742" lon="6.20599">
        <ele>149.8</ele>
        <time>2025-04-14T12:13:47Z</time>
      </trkpt>
      <trkpt lat="43.46741" lon="6.20608">
        <ele>147.9</ele>
        <time>2025-04-14T12:13:56.499Z</time>
      </trkpt>
      <trkpt lat="43.46739" lon="6.20617">
        <ele>146.7</ele>
        <time>2025-04-14T12:14:06Z</time>
      </trkpt>
      <trkpt lat="43.46736" lon="6.20616">
        <ele>148</ele>
        <time>2025-04-14T12:14:19Z</time>
      </trkpt>
      <trkpt lat="43.46736" lon="6.20613">
        <ele>148.6</ele>
        <time>2025-04-14T12:14:40Z</time>
      </trkpt>
      <trkpt lat="43.46734" lon="6.20622">
        <ele>147.3</ele>
        <time>2025-04-14T12:15:02Z</time>
      </trkpt>
      <trkpt lat="43.46733" lon="6.20624">
        <ele>147.1</ele>
        <time>2025-04-14T12:15:35Z</time>
      </trkpt>
      <trkpt lat="43.46728" lon="6.20629">
        <ele>147.1</ele>
        <time>2025-04-14T12:15:53Z</time>
      </trkpt>
      <trkpt lat="43.46732" lon="6.20627">
        <ele>146.7</ele>
        <time>2025-04-14T12:16:23Z</time>
      </trkpt>
      <trkpt lat="43.46734" lon="6.20622">
        <ele>147.3</ele>
        <time>2025-04-14T12:16:45Z</time>
      </trkpt>
      <trkpt lat="43.4673" lon="6.20623">
        <ele>148.5</ele>
        <time>2025-04-14T12:16:53.500Z</time>
      </trkpt>
      <trkpt lat="43.46725" lon="6.20624">
        <ele>149.5</ele>
        <time>2025-04-14T12:17:02Z</time>
      </trkpt>
      <trkpt lat="43.4672" lon="6.20629">
        <ele>149.3</ele>
        <time>2025-04-14T12:17:07.999Z</time>
      </trkpt>
      <trkpt lat="43.46715" lon="6.20633">
        <ele>149.3</ele>
        <time>2025-04-14T12:17:14Z</time>
      </trkpt>
      <trkpt lat="43.46709" lon="6.20637">
        <ele>150.2</ele>
        <time>2025-04-14T12:17:20.499Z</time>
      </trkpt>
      <trkpt lat="43.46703" lon="6.20641">
        <ele>151.7</ele>
        <time>2025-04-14T12:17:27Z</time>
      </trkpt>
      <trkpt lat="43.46698" lon="6.20647">
        <ele>152.5</ele>
        <time>2025-04-14T12:17:34.999Z</time>
      </trkpt>
      <trkpt lat="43.46693" lon="6.20653">
        <ele>152.8</ele>
        <time>2025-04-14T12:17:43Z</time>
      </trkpt>
      <trkpt lat="43.46687" lon="6.20662">
        <ele>152.4</ele>
        <time>2025-04-14T12:18:09Z</time>
      </trkpt>
      <trkpt lat="43.46684" lon="6.2067">
        <ele>152.4</ele>
        <time>2025-04-14T12:18:13.999Z</time>
      </trkpt>
      <trkpt lat="43.4668" lon="6.20677">
        <ele>153.3</ele>
        <time>2025-04-14T12:18:19Z</time>
      </trkpt>
      <trkpt lat="43.46677" lon="6.20686">
        <ele>153.9</ele>
        <time>2025-04-14T12:18:23.999Z</time>
      </trkpt>
      <trkpt lat="43.46673" lon="6.20695">
        <ele>154.3</ele>
        <time>2025-04-14T12:18:29Z</time>
      </trkpt>
      <trkpt lat="43.46678" lon="6.20701">
        <ele>154.1</ele>
        <time>2025-04-14T12:18:34.500Z</time>
      </trkpt>
      <trkpt lat="43.46683" lon="6.20707">
        <ele>154</ele>
        <time>2025-04-14T12:18:40Z</time>
      </trkpt>
      <trkpt lat="43.46688" lon="6.20709">
        <ele>153.9</ele>
        <time>2025-04-14T12:18:47.500Z</time>
      </trkpt>
      <trkpt lat="43.46692" lon="6.2071">
        <ele>153.8</ele>
        <time>2025-04-14T12:18:55Z</time>
      </trkpt>
      <trkpt lat="43.46698" lon="6.20708">
        <ele>153.2</ele>
        <time>2025-04-14T12:19:04.000Z</time>
      </trkpt>
      <trkpt lat="43.46704" lon="6.20705">
        <ele>152.5</ele>
        <time>2025-04-14T12:19:13Z</time>
      </trkpt>
      <trkpt lat="43.46707" lon="6.20711">
        <ele>153.2</ele>
        <time>2025-04-14T12:19:31Z</time>
      </trkpt>
      <trkpt lat="43.46712" lon="6.2071">
        <ele>152.9</ele>
        <time>2025-04-14T12:19:38.000Z</time>
      </trkpt>
      <trkpt lat="43.46716" lon="6.20709">
        <ele>152.5</ele>
        <time>2025-04-14T12:19:45Z</time>
      </trkpt>
      <trkpt lat="43.46721" lon="6.20709">
        <ele>152.2</ele>
        <time>2025-04-14T12:19:57.500Z</time>
      </trkpt>
      <trkpt lat="43.46726" lon="6.20709">
        <ele>152.1</ele>
        <time>2025-04-14T12:20:10Z</time>
      </trkpt>
      <trkpt lat="43.46725" lon="6.20713">
        <ele>152.9</ele>
        <time>2025-04-14T12:20:34.711Z</time>
      </trkpt>
      <trkpt lat="43.46719" lon="6.20713">
        <ele>153.1</ele>
        <time>2025-04-14T12:21:23Z</time>
      </trkpt>
      <trkpt lat="43.46713" lon="6.20715">
        <ele>153.7</ele>
        <time>2025-04-14T12:21:30.999Z</time>
      </trkpt>
      <trkpt lat="43.46707" lon="6.20717">
        <ele>154.2</ele>
        <time>2025-04-14T12:21:39Z</time>
      </trkpt>
      <trkpt lat="43.46703" lon="6.20716">
        <ele>154.1</ele>
        <time>2025-04-14T12:21:47.999Z</time>
      </trkpt>
      <trkpt lat="43.46698" lon="6.20714">
        <ele>154</ele>
        <time>2025-04-14T12:21:57Z</time>
      </trkpt>
      <trkpt lat="43.46691" lon="6.20707">
        <ele>153.6</ele>
        <time>2025-04-14T12:22:13Z</time>
      </trkpt>
      <trkpt lat="43.46687" lon="6.20706">
        <ele>153.7</ele>
        <time>2025-04-14T12:22:30Z</time>
      </trkpt>
      <trkpt lat="43.46683" lon="6.20709">
        <ele>154.2</ele>
        <time>2025-04-14T12:22:40.499Z</time>
      </trkpt>
      <trkpt lat="43.46679" lon="6.20712">
        <ele>154.5</ele>
        <time>2025-04-14T12:22:51Z</time>
      </trkpt>
      <trkpt lat="43.46675" lon="6.20717">
        <ele>154.8</ele>
        <time>2025-04-14T12:22:56.999Z</time>
      </trkpt>
      <trkpt lat="43.46671" lon="6.20722">
        <ele>155</ele>
        <time>2025-04-14T12:23:03Z</time>
      </trkpt>
      <trkpt lat="43.46668" lon="6.20729">
        <ele>155</ele>
        <time>2025-04-14T12:23:08.999Z</time>
      </trkpt>
      <trkpt lat="43.46664" lon="6.20735">
        <ele>155.1</ele>
        <time>2025-04-14T12:23:15Z</time>
      </trkpt>
      <trkpt lat="43.46659" lon="6.20736">
        <ele>155.4</ele>
        <time>2025-04-14T12:23:35Z</time>
      </trkpt>
      <trkpt lat="43.46651" lon="6.20737">
        <ele>155.8</ele>
        <time>2025-04-14T12:23:54Z</time>
      </trkpt>
      <trkpt lat="43.46645" lon="6.20739">
        <ele>156.1</ele>
        <time>2025-04-14T12:23:59.000Z</time>
      </trkpt>
      <trkpt lat="43.46638" lon="6.2074">
        <ele>156.4</ele>
        <time>2025-04-14T12:24:04Z</time>
      </trkpt>
      <trkpt lat="43.46634" lon="6.20743">
        <ele>156.6</ele>
        <time>2025-04-14T12:24:17Z</time>
      </trkpt>
      <trkpt lat="43.46639" lon="6.20753">
        <ele>155.8</ele>
        <time>2025-04-14T12:24:26.000Z</time>
      </trkpt>
      <trkpt lat="43.46644" lon="6.20762">
        <ele>155</ele>
        <time>2025-04-14T12:24:35Z</time>
      </trkpt>
      <trkpt lat="43.46638" lon="6.20754">
        <ele>155.8</ele>
        <time>2025-04-14T12:25:37.499Z</time>
      </trkpt>
      <trkpt lat="43.46632" lon="6.20745">
        <ele>156.6</ele>
        <time>2025-04-14T12:26:40Z</time>
      </trkpt>
      <trkpt lat="43.46625" lon="6.20749">
        <ele>156.6</ele>
        <time>2025-04-14T12:26:44.999Z</time>
      </trkpt>
      <trkpt lat="43.46618" lon="6.20753">
        <ele>156.5</ele>
        <time>2025-04-14T12:26:50Z</time>
      </trkpt>
      <trkpt lat="43.46611" lon="6.20758">
        <ele>156.2</ele>
        <time>2025-04-14T12:26:54.499Z</time>
      </trkpt>
      <trkpt lat="43.46604" lon="6.20763">
        <ele>156.5</ele>
        <time>2025-04-14T12:26:59Z</time>
      </trkpt>
      <trkpt lat="43.46599" lon="6.20766">
        <ele>156.8</ele>
        <time>2025-04-14T12:27:03.499Z</time>
      </trkpt>
      <trkpt lat="43.46594" lon="6.20769">
        <ele>157</ele>
        <time>2025-04-14T12:27:08Z</time>
      </trkpt>
      <trkpt lat="43.4659" lon="6.20774">
        <ele>156.8</ele>
        <time>2025-04-14T12:27:13.499Z</time>
      </trkpt>
      <trkpt lat="43.46586" lon="6.20779">
        <ele>156.6</ele>
        <time>2025-04-14T12:27:19Z</time>
      </trkpt>
      <trkpt lat="43.46582" lon="6.20785">
        <ele>156.5</ele>
        <time>2025-04-14T12:27:25.499Z</time>
      </trkpt>
      <trkpt lat="43.46577" lon="6.2079">
        <ele>156.4</ele>
        <time>2025-04-14T12:27:32Z</time>
      </trkpt>
      <trkpt lat="43.46572" lon="6.20796">
        <ele>156.1</ele>
        <time>2025-04-14T12:27:36.499Z</time>
      </trkpt>
      <trkpt lat="43.46567" lon="6.20801">
        <ele>155.5</ele>
        <time>2025-04-14T12:27:41Z</time>
      </trkpt>
      <trkpt lat="43.46563" lon="6.20805">
        <ele>155</ele>
        <time>2025-04-14T12:27:44.999Z</time>
      </trkpt>
      <trkpt lat="43.46558" lon="6.20808">
        <ele>154.8</ele>
        <time>2025-04-14T12:27:49Z</time>
      </trkpt>
      <trkpt lat="43.46553" lon="6.20813">
        <ele>155</ele>
        <time>2025-04-14T12:27:53.499Z</time>
      </trkpt>
      <trkpt lat="43.46547" lon="6.20817">
        <ele>155.1</ele>
        <time>2025-04-14T12:27:58Z</time>
      </trkpt>
      <trkpt lat="43.46542" lon="6.20822">
        <ele>155</ele>
        <time>2025-04-14T12:28:02.499Z</time>
      </trkpt>
      <trkpt lat="43.46537" lon="6.20826">
        <ele>154.8</ele>
        <time>2025-04-14T12:28:07Z</time>
      </trkpt>
      <trkpt lat="43.46532" lon="6.20831">
        <ele>154.4</ele>
        <time>2025-04-14T12:28:11.999Z</time>
      </trkpt>
      <trkpt lat="43.46527" lon="6.20835">
        <ele>154.1</ele>
        <time>2025-04-14T12:28:17Z</time>
      </trkpt>
      <trkpt lat="43.46521" lon="6.20839">
        <ele>154.8</ele>
        <time>2025-04-14T12:28:22.499Z</time>
      </trkpt>
      <trkpt lat="43.46515" lon="6.20842">
        <ele>155.3</ele>
        <time>2025-04-14T12:28:28Z</time>
      </trkpt>
      <trkpt lat="43.46509" lon="6.20846">
        <ele>155.5</ele>
        <time>2025-04-14T12:28:33.499Z</time>
      </trkpt>
      <trkpt lat="43.46503" lon="6.2085">
        <ele>155.4</ele>
        <time>2025-04-14T12:28:39Z</time>
      </trkpt>
      <trkpt lat="43.46498" lon="6.20855">
        <ele>155.3</ele>
        <time>2025-04-14T12:28:44.499Z</time>
      </trkpt>
      <trkpt lat="43.46493" lon="6.2086">
        <ele>155.5</ele>
        <time>2025-04-14T12:28:50Z</time>
      </trkpt>
      <trkpt lat="43.46489" lon="6.20867">
        <ele>155.6</ele>
        <time>2025-04-14T12:28:56.999Z</time>
      </trkpt>
      <trkpt lat="43.46485" lon="6.20874">
        <ele>155.4</ele>
        <time>2025-04-14T12:29:04Z</time>
      </trkpt>
      <trkpt lat="43.4649" lon="6.20881">
        <ele>154.5</ele>
        <time>2025-04-14T12:29:26Z</time>
      </trkpt>
      <trkpt lat="43.4649" lon="6.20885">
        <ele>154.3</ele>
        <time>2025-04-14T12:29:39Z</time>
      </trkpt>
      <trkpt lat="43.46485" lon="6.20886">
        <ele>154.3</ele>
        <time>2025-04-14T12:29:53Z</time>
      </trkpt>
      <trkpt lat="43.46484" lon="6.20888">
        <ele>154.1</ele>
        <time>2025-04-14T12:30:14Z</time>
      </trkpt>
      <trkpt lat="43.4648" lon="6.20887">
        <ele>154.2</ele>
        <time>2025-04-14T12:30:32Z</time>
      </trkpt>
      <trkpt lat="43.4648" lon="6.20881">
        <ele>155.1</ele>
        <time>2025-04-14T12:30:45.000Z</time>
      </trkpt>
      <trkpt lat="43.4648" lon="6.20874">
        <ele>155.9</ele>
        <time>2025-04-14T12:30:58Z</time>
      </trkpt>
      <trkpt lat="43.46479" lon="6.20867">
        <ele>157</ele>
        <time>2025-04-14T12:31:21Z</time>
      </trkpt>
      <trkpt lat="43.46473" lon="6.20874">
        <ele>156.6</ele>
        <time>2025-04-14T12:31:41Z</time>
      </trkpt>
      <trkpt lat="43.46467" lon="6.20877">
        <ele>157.9</ele>
        <time>2025-04-14T12:31:50.499Z</time>
      </trkpt>
      <trkpt lat="43.46461" lon="6.2088">
        <ele>159.2</ele>
        <time>2025-04-14T12:32:00Z</time>
      </trkpt>
      <trkpt lat="43.46455" lon="6.20888">
        <ele>158.6</ele>
        <time>2025-04-14T12:32:24Z</time>
      </trkpt>
      <trkpt lat="43.46449" lon="6.20893">
        <ele>159</ele>
        <time>2025-04-14T12:32:54Z</time>
      </trkpt>
      <trkpt lat="43.4645" lon="6.20892">
        <ele>159</ele>
        <time>2025-04-14T12:33:22Z</time>
      </trkpt>
      <trkpt lat="43.46445" lon="6.20889">
        <ele>160.8</ele>
        <time>2025-04-14T12:33:48Z</time>
      </trkpt>
      <trkpt lat="43.46442" lon="6.20879">
        <ele>165.5</ele>
        <time>2025-04-14T12:34:14Z</time>
      </trkpt>
      <trkpt lat="43.46435" lon="6.20873">
        <ele>169.5</ele>
        <time>2025-04-14T12:34:33Z</time>
      </trkpt>
      <trkpt lat="43.4643" lon="6.20876">
        <ele>169.6</ele>
        <time>2025-04-14T12:34:38.999Z</time>
      </trkpt>
      <trkpt lat="43.46424" lon="6.20879">
        <ele>169.8</ele>
        <time>2025-04-14T12:34:45Z</time>
      </trkpt>
      <trkpt lat="43.46419" lon="6.20881">
        <ele>170.4</ele>
        <time>2025-04-14T12:34:49.999Z</time>
      </trkpt>
      <trkpt lat="43.46413" lon="6.20883">
        <ele>170.9</ele>
        <time>2025-04-14T12:34:55Z</time>
      </trkpt>
      <trkpt lat="43.46408" lon="6.20888">
        <ele>170.4</ele>
        <time>2025-04-14T12:34:59.999Z</time>
      </trkpt>
      <trkpt lat="43.46402" lon="6.20892">
        <ele>169.7</ele>
        <time>2025-04-14T12:35:05Z</time>
      </trkpt>
      <trkpt lat="43.46397" lon="6.20897">
        <ele>168.2</ele>
        <time>2025-04-14T12:35:09.999Z</time>
      </trkpt>
      <trkpt lat="43.46392" lon="6.20902">
        <ele>166.8</ele>
        <time>2025-04-14T12:35:15Z</time>
      </trkpt>
      <trkpt lat="43.46387" lon="6.20905">
        <ele>166.1</ele>
        <time>2025-04-14T12:35:19.999Z</time>
      </trkpt>
      <trkpt lat="43.46382" lon="6.20908">
        <ele>165.4</ele>
        <time>2025-04-14T12:35:25Z</time>
      </trkpt>
      <trkpt lat="43.46376" lon="6.20907">
        <ele>166.7</ele>
        <time>2025-04-14T12:35:30.500Z</time>
      </trkpt>
      <trkpt lat="43.4637" lon="6.20906">
        <ele>168</ele>
        <time>2025-04-14T12:35:36Z</time>
      </trkpt>
      <trkpt lat="43.46366" lon="6.20908">
        <ele>168</ele>
        <time>2025-04-14T12:35:43.499Z</time>
      </trkpt>
      <trkpt lat="43.46361" lon="6.20909">
        <ele>168</ele>
        <time>2025-04-14T12:35:51Z</time>
      </trkpt>
      <trkpt lat="43.46357" lon="6.20905">
        <ele>169.3</ele>
        <time>2025-04-14T12:36:15.999Z</time>
      </trkpt>
      <trkpt lat="43.46353" lon="6.20901">
        <ele>170.6</ele>
        <time>2025-04-14T12:36:41Z</time>
      </trkpt>
      <trkpt lat="43.46347" lon="6.209">
        <ele>170.5</ele>
        <time>2025-04-14T12:36:53.000Z</time>
      </trkpt>
      <trkpt lat="43.4634" lon="6.20899">
        <ele>170.5</ele>
        <time>2025-04-14T12:37:05Z</time>
      </trkpt>
      <trkpt lat="43.46332" lon="6.209">
        <ele>169.6</ele>
        <time>2025-04-14T12:37:13Z</time>
      </trkpt>
      <trkpt lat="43.46327" lon="6.20899">
        <ele>170</ele>
        <time>2025-04-14T12:37:17.000Z</time>
      </trkpt>
      <trkpt lat="43.46322" lon="6.20897">
        <ele>170.3</ele>
        <time>2025-04-14T12:37:21Z</time>
      </trkpt>
      <trkpt lat="43.46318" lon="6.20896">
        <ele>170.6</ele>
        <time>2025-04-14T12:37:25.000Z</time>
      </trkpt>
      <trkpt lat="43.46313" lon="6.20894">
        <ele>170.9</ele>
        <time>2025-04-14T12:37:29Z</time>
      </trkpt>
      <trkpt lat="43.46309" lon="6.20894">
        <ele>170.7</ele>
        <time>2025-04-14T12:37:33.000Z</time>
      </trkpt>
      <trkpt lat="43.46304" lon="6.20894">
        <ele>170.5</ele>
        <time>2025-04-14T12:37:37Z</time>
      </trkpt>
      <trkpt lat="43.46299" lon="6.20894">
        <ele>170.4</ele>
        <time>2025-04-14T12:37:41.000Z</time>
      </trkpt>
      <trkpt lat="43.46293" lon="6.20894">
        <ele>170.2</ele>
        <time>2025-04-14T12:37:45Z</time>
      </trkpt>
      <trkpt lat="43.46288" lon="6.20896">
        <ele>169.8</ele>
        <time>2025-04-14T12:37:49.000Z</time>
      </trkpt>
      <trkpt lat="43.46282" lon="6.20897">
        <ele>169.3</ele>
        <time>2025-04-14T12:37:53Z</time>
      </trkpt>
      <trkpt lat="43.46277" lon="6.20898">
        <ele>169.1</ele>
        <time>2025-04-14T12:37:57.000Z</time>
      </trkpt>
      <trkpt lat="43.46272" lon="6.20898">
        <ele>169</ele>
        <time>2025-04-14T12:38:01Z</time>
      </trkpt>
      <trkpt lat="43.46267" lon="6.20897">
        <ele>169.3</ele>
        <time>2025-04-14T12:38:05.000Z</time>
      </trkpt>
      <trkpt lat="43.46262" lon="6.20895">
        <ele>169.5</ele>
        <time>2025-04-14T12:38:09Z</time>
      </trkpt>
      <trkpt lat="43.46257" lon="6.20893">
        <ele>169.7</ele>
        <time>2025-04-14T12:38:12.999Z</time>
      </trkpt>
      <trkpt lat="43.46252" lon="6.20891">
        <ele>169.8</ele>
        <time>2025-04-14T12:38:17Z</time>
      </trkpt>
      <trkpt lat="43.46247" lon="6.2089">
        <ele>169.9</ele>
        <time>2025-04-14T12:38:21.500Z</time>
      </trkpt>
      <trkpt lat="43.46241" lon="6.20889">
        <ele>170</ele>
        <time>2025-04-14T12:38:26Z</time>
      </trkpt>
      <trkpt lat="43.46236" lon="6.2089">
        <ele>169.9</ele>
        <time>2025-04-14T12:38:30.500Z</time>
      </trkpt>
      <trkpt lat="43.46231" lon="6.2089">
        <ele>169.9</ele>
        <time>2025-04-14T12:38:35Z</time>
      </trkpt>
      <trkpt lat="43.46227" lon="6.20899">
        <ele>168.9</ele>
        <time>2025-04-14T12:38:45Z</time>
      </trkpt>
      <trkpt lat="43.46226" lon="6.209">
        <ele>168.8</ele>
        <time>2025-04-14T12:39:36Z</time>
      </trkpt>
      <trkpt lat="43.46229" lon="6.20894">
        <ele>169.4</ele>
        <time>2025-04-14T12:42:34Z</time>
      </trkpt>
      <trkpt lat="43.46238" lon="6.20895">
        <ele>169.4</ele>
        <time>2025-04-14T12:42:40.000Z</time>
      </trkpt>
      <trkpt lat="43.46246" lon="6.20895">
        <ele>169.3</ele>
        <time>2025-04-14T12:42:46Z</time>
      </trkpt>
      <trkpt lat="43.46251" lon="6.20895">
        <ele>169.3</ele>
        <time>2025-04-14T12:42:48.250Z</time>
      </trkpt>
      <trkpt lat="43.46255" lon="6.20896">
        <ele>169.3</ele>
        <time>2025-04-14T12:42:50.500Z</time>
      </trkpt>
      <trkpt lat="43.4626" lon="6.20896">
        <ele>169.3</ele>
        <time>2025-04-14T12:42:52.750Z</time>
      </trkpt>
      <trkpt lat="43.46264" lon="6.20896">
        <ele>169.3</ele>
        <time>2025-04-14T12:42:55Z</time>
      </trkpt>
      <trkpt lat="43.4627" lon="6.20897">
        <ele>169.3</ele>
        <time>2025-04-14T12:42:59.000Z</time>
      </trkpt>
      <trkpt lat="43.46276" lon="6.20897">
        <ele>169.2</ele>
        <time>2025-04-14T12:43:03Z</time>
      </trkpt>
      <trkpt lat="43.46281" lon="6.20897">
        <ele>169.3</ele>
        <time>2025-04-14T12:43:07.500Z</time>
      </trkpt>
      <trkpt lat="43.46286" lon="6.20897">
        <ele>169.4</ele>
        <time>2025-04-14T12:43:12Z</time>
      </trkpt>
      <trkpt lat="43.46291" lon="6.20897">
        <ele>169.4</ele>
        <time>2025-04-14T12:43:16.500Z</time>
      </trkpt>
      <trkpt lat="43.46296" lon="6.20897">
        <ele>169.5</ele>
        <time>2025-04-14T12:43:21Z</time>
      </trkpt>
      <trkpt lat="43.46302" lon="6.20896">
        <ele>169.9</ele>
        <time>2025-04-14T12:43:26.000Z</time>
      </trkpt>
      <trkpt lat="43.46308" lon="6.20895">
        <ele>170.4</ele>
        <time>2025-04-14T12:43:31Z</time>
      </trkpt>
      <trkpt lat="43.46314" lon="6.20895">
        <ele>170.8</ele>
        <time>2025-04-14T12:43:35.000Z</time>
      </trkpt>
      <trkpt lat="43.4632" lon="6.20894">
        <ele>171.3</ele>
        <time>2025-04-14T12:43:39Z</time>
      </trkpt>
      <trkpt lat="43.46326" lon="6.20898">
        <ele>170.3</ele>
        <time>2025-04-14T12:43:43.500Z</time>
      </trkpt>
      <trkpt lat="43.46332" lon="6.20901">
        <ele>169.2</ele>
        <time>2025-04-14T12:43:48Z</time>
      </trkpt>
      <trkpt lat="43.46338" lon="6.20901">
        <ele>169.5</ele>
        <time>2025-04-14T12:43:53.000Z</time>
      </trkpt>
      <trkpt lat="43.46343" lon="6.20901">
        <ele>169.9</ele>
        <time>2025-04-14T12:43:58Z</time>
      </trkpt>
      <trkpt lat="43.46348" lon="6.20903">
        <ele>169.7</ele>
        <time>2025-04-14T12:44:02.500Z</time>
      </trkpt>
      <trkpt lat="43.46353" lon="6.20904">
        <ele>169.4</ele>
        <time>2025-04-14T12:44:07Z</time>
      </trkpt>
      <trkpt lat="43.46359" lon="6.20906">
        <ele>169</ele>
        <time>2025-04-14T12:44:11.000Z</time>
      </trkpt>
      <trkpt lat="43.46364" lon="6.20908">
        <ele>168</ele>
        <time>2025-04-14T12:44:15Z</time>
      </trkpt>
      <trkpt lat="43.46369" lon="6.20908">
        <ele>167.3</ele>
        <time>2025-04-14T12:44:19.500Z</time>
      </trkpt>
      <trkpt lat="43.46374" lon="6.20908">
        <ele>166.5</ele>
        <time>2025-04-14T12:44:24Z</time>
      </trkpt>
      <trkpt lat="43.46379" lon="6.20907">
        <ele>166.3</ele>
        <time>2025-04-14T12:44:28.000Z</time>
      </trkpt>
      <trkpt lat="43.46384" lon="6.20906">
        <ele>166.1</ele>
        <time>2025-04-14T12:44:32Z</time>
      </trkpt>
      <trkpt lat="43.46389" lon="6.20903">
        <ele>166.9</ele>
        <time>2025-04-14T12:44:36.000Z</time>
      </trkpt>
      <trkpt lat="43.46393" lon="6.209">
        <ele>167.6</ele>
        <time>2025-04-14T12:44:40Z</time>
      </trkpt>
      <trkpt lat="43.46398" lon="6.20896">
        <ele>168.6</ele>
        <time>2025-04-14T12:44:44.000Z</time>
      </trkpt>
      <trkpt lat="43.46402" lon="6.20892">
        <ele>169.7</ele>
        <time>2025-04-14T12:44:48Z</time>
      </trkpt>
      <trkpt lat="43.46408" lon="6.20889">
        <ele>169.9</ele>
        <time>2025-04-14T12:44:52.000Z</time>
      </trkpt>
      <trkpt lat="43.46413" lon="6.20886">
        <ele>169.8</ele>
        <time>2025-04-14T12:44:56Z</time>
      </trkpt>
      <trkpt lat="43.46418" lon="6.20884">
        <ele>169.6</ele>
        <time>2025-04-14T12:45:00.198Z</time>
      </trkpt>
      <trkpt lat="43.46423" lon="6.20881">
        <ele>169.3</ele>
        <time>2025-04-14T12:45:04.396Z</time>
        <extensions>
          <visugpx:TrkExtension xmlns:visugpx="https://www.visugpx.com/editgpx/">
            <visugpx:node>16</visugpx:node>
            </visugpx:TrkExtension>
        </extensions>
      </trkpt>
      <trkpt lat="43.46422" lon="6.2088">
        <ele>169.9</ele>
        <time>2025-04-14T12:45:05.371Z</time>
      </trkpt>
      <trkpt lat="43.46424" lon="6.20878">
        <ele>170.2</ele>
        <time>2025-04-14T12:45:07.321Z</time>
      </trkpt>
      <trkpt lat="43.46429" lon="6.20874">
        <ele>170.6</ele>
        <time>2025-04-14T12:45:11.548Z</time>
      </trkpt>
      <trkpt lat="43.46433" lon="6.2087">
        <ele>171.1</ele>
        <time>2025-04-14T12:45:15.775Z</time>
      </trkpt>
      <trkpt lat="43.46438" lon="6.20866">
        <ele>171.6</ele>
        <time>2025-04-14T12:45:20.002Z</time>
      </trkpt>
      <trkpt lat="43.46442" lon="6.20862">
        <ele>172.2</ele>
        <time>2025-04-14T12:45:24.229Z</time>
      </trkpt>
      <trkpt lat="43.46446" lon="6.20857">
        <ele>172.2</ele>
        <time>2025-04-14T12:45:28.589Z</time>
      </trkpt>
      <trkpt lat="43.4645" lon="6.20852">
        <ele>171.7</ele>
        <time>2025-04-14T12:45:32.949Z</time>
      </trkpt>
      <trkpt lat="43.46454" lon="6.20846">
        <ele>171.3</ele>
        <time>2025-04-14T12:45:37.309Z</time>
      </trkpt>
      <trkpt lat="43.46458" lon="6.20841">
        <ele>171.1</ele>
        <time>2025-04-14T12:45:41.669Z</time>
      </trkpt>
      <trkpt lat="43.46463" lon="6.20832">
        <ele>171.8</ele>
        <time>2025-04-14T12:45:47.930Z</time>
      </trkpt>
      <trkpt lat="43.46467" lon="6.20823">
        <ele>172.1</ele>
        <time>2025-04-14T12:45:54.191Z</time>
        <extensions>
          <visugpx:TrkExtension xmlns:visugpx="https://www.visugpx.com/editgpx/">
            <visugpx:node>17</visugpx:node>
            </visugpx:TrkExtension>
        </extensions>
      </trkpt>
      <trkpt lat="43.46471" lon="6.20815">
        <ele>172.6</ele>
        <time>2025-04-14T12:45:59.542Z</time>
      </trkpt>
      <trkpt lat="43.46474" lon="6.20807">
        <ele>173.2</ele>
        <time>2025-04-14T12:46:04.893Z</time>
      </trkpt>
      <trkpt lat="43.46478" lon="6.20799">
        <ele>173.6</ele>
        <time>2025-04-14T12:46:10.244Z</time>
      </trkpt>
      <trkpt lat="43.46481" lon="6.20791">
        <ele>173.9</ele>
        <time>2025-04-14T12:46:15.595Z</time>
      </trkpt>
      <trkpt lat="43.46483" lon="6.20785">
        <ele>174.3</ele>
        <time>2025-04-14T12:46:19.337Z</time>
      </trkpt>
      <trkpt lat="43.46485" lon="6.20779">
        <ele>174.8</ele>
        <time>2025-04-14T12:46:23.079Z</time>
      </trkpt>
      <trkpt lat="43.46487" lon="6.20773">
        <ele>174.3</ele>
        <time>2025-04-14T12:46:26.821Z</time>
      </trkpt>
      <trkpt lat="43.46489" lon="6.20767">
        <ele>173.6</ele>
        <time>2025-04-14T12:46:30.563Z</time>
      </trkpt>
      <trkpt lat="43.4649" lon="6.20761">
        <ele>172.9</ele>
        <time>2025-04-14T12:46:34.305Z</time>
      </trkpt>
      <trkpt lat="43.46492" lon="6.20755">
        <ele>172.3</ele>
        <time>2025-04-14T12:46:38.047Z</time>
      </trkpt>
      <trkpt lat="43.46494" lon="6.20749">
        <ele>171.7</ele>
        <time>2025-04-14T12:46:41.789Z</time>
      </trkpt>
      <trkpt lat="43.46496" lon="6.20743">
        <ele>171.3</ele>
        <time>2025-04-14T12:46:45.531Z</time>
      </trkpt>
      <trkpt lat="43.46501" lon="6.20733">
        <ele>170.5</ele>
        <time>2025-04-14T12:46:52.488Z</time>
      </trkpt>
      <trkpt lat="43.46508" lon="6.2073">
        <ele>170</ele>
        <time>2025-04-14T12:46:57.899Z</time>
      </trkpt>
      <trkpt lat="43.46514" lon="6.20727">
        <ele>169.6</ele>
        <time>2025-04-14T12:47:03.310Z</time>
      </trkpt>
      <trkpt lat="43.4652" lon="6.20726">
        <ele>169.3</ele>
        <time>2025-04-14T12:47:08.123Z</time>
      </trkpt>
      <trkpt lat="43.46526" lon="6.20724">
        <ele>168.9</ele>
        <time>2025-04-14T12:47:12.936Z</time>
      </trkpt>
      <trkpt lat="43.46531" lon="6.20723">
        <ele>168.8</ele>
        <time>2025-04-14T12:47:16.924Z</time>
      </trkpt>
      <trkpt lat="43.46531" lon="6.20723">
        <ele>168.8</ele>
        <time>2025-04-14T12:47:16.924Z</time>
        <extensions>
          <visugpx:TrkExtension xmlns:visugpx="https://www.visugpx.com/editgpx/">
            <visugpx:node>18</visugpx:node>
            </visugpx:TrkExtension>
        </extensions>
      </trkpt>
      <trkpt lat="43.46531" lon="6.20723">
        <ele>168.8</ele>
        <time>2025-04-14T12:47:16.924Z</time>
      </trkpt>
      <trkpt lat="43.46539" lon="6.20722">
        <ele>168.7</ele>
        <time>2025-04-14T12:47:23.297Z</time>
      </trkpt>
      <trkpt lat="43.46547" lon="6.2072">
        <ele>168.5</ele>
        <time>2025-04-14T12:47:29.670Z</time>
      </trkpt>
      <trkpt lat="43.46553" lon="6.20717">
        <ele>168.5</ele>
        <time>2025-04-14T12:47:34.813Z</time>
      </trkpt>
      <trkpt lat="43.46559" lon="6.20713">
        <ele>168.3</ele>
        <time>2025-04-14T12:47:39.956Z</time>
      </trkpt>
      <trkpt lat="43.46565" lon="6.2071">
        <ele>167.7</ele>
        <time>2025-04-14T12:47:45.099Z</time>
      </trkpt>
      <trkpt lat="43.46571" lon="6.20706">
        <ele>167.2</ele>
        <time>2025-04-14T12:47:50.242Z</time>
      </trkpt>
      <trkpt lat="43.46578" lon="6.20699">
        <ele>166.5</ele>
        <time>2025-04-14T12:47:57.313Z</time>
      </trkpt>
      <trkpt lat="43.46586" lon="6.20692">
        <ele>166.4</ele>
        <time>2025-04-14T12:48:04.384Z</time>
      </trkpt>
      <trkpt lat="43.46593" lon="6.20684">
        <ele>166.9</ele>
        <time>2025-04-14T12:48:11.455Z</time>
      </trkpt>
      <trkpt lat="43.466" lon="6.20677">
        <ele>167.2</ele>
        <time>2025-04-14T12:48:18.526Z</time>
      </trkpt>
      <trkpt lat="43.46607" lon="6.20672">
        <ele>167</ele>
        <time>2025-04-14T12:48:24.887Z</time>
      </trkpt>
      <trkpt lat="43.46614" lon="6.20666">
        <ele>166.7</ele>
        <time>2025-04-14T12:48:31.248Z</time>
      </trkpt>
      <trkpt lat="43.46621" lon="6.20661">
        <ele>166.3</ele>
        <time>2025-04-14T12:48:37.609Z</time>
      </trkpt>
      <trkpt lat="43.46628" lon="6.20655">
        <ele>166.1</ele>
        <time>2025-04-14T12:48:43.970Z</time>
      </trkpt>
      <trkpt lat="43.46632" lon="6.2065">
        <ele>166.2</ele>
        <time>2025-04-14T12:48:48.381Z</time>
      </trkpt>
      <trkpt lat="43.46637" lon="6.20645">
        <ele>166.5</ele>
        <time>2025-04-14T12:48:52.792Z</time>
      </trkpt>
      <trkpt lat="43.46641" lon="6.2064">
        <ele>166.5</ele>
        <time>2025-04-14T12:48:57.203Z</time>
      </trkpt>
      <trkpt lat="43.46645" lon="6.20635">
        <ele>165.9</ele>
        <time>2025-04-14T12:49:01.614Z</time>
      </trkpt>
      <trkpt lat="43.46649" lon="6.2063">
        <ele>165.4</ele>
        <time>2025-04-14T12:49:06.025Z</time>
      </trkpt>
      <trkpt lat="43.46654" lon="6.20625">
        <ele>165.1</ele>
        <time>2025-04-14T12:49:10.436Z</time>
      </trkpt>
      <trkpt lat="43.46658" lon="6.2062">
        <ele>165</ele>
        <time>2025-04-14T12:49:14.847Z</time>
      </trkpt>
      <trkpt lat="43.46662" lon="6.20615">
        <ele>165</ele>
        <time>2025-04-14T12:49:19.258Z</time>
      </trkpt>
      <trkpt lat="43.46668" lon="6.20607">
        <ele>165.1</ele>
        <time>2025-04-14T12:49:25.676Z</time>
      </trkpt>
      <trkpt lat="43.46673" lon="6.20599">
        <ele>164.3</ele>
        <time>2025-04-14T12:49:32.094Z</time>
      </trkpt>
      <trkpt lat="43.46679" lon="6.2059">
        <ele>163.7</ele>
        <time>2025-04-14T12:49:38.512Z</time>
      </trkpt>
      <trkpt lat="43.46684" lon="6.20582">
        <ele>163.4</ele>
        <time>2025-04-14T12:49:44.930Z</time>
      </trkpt>
      <trkpt lat="43.46687" lon="6.20572">
        <ele>163.6</ele>
        <time>2025-04-14T12:49:50.997Z</time>
      </trkpt>
      <trkpt lat="43.4669" lon="6.20563">
        <ele>164</ele>
        <time>2025-04-14T12:49:57.064Z</time>
      </trkpt>
      <trkpt lat="43.46693" lon="6.20553">
        <ele>164.4</ele>
        <time>2025-04-14T12:50:03.131Z</time>
      </trkpt>
      <trkpt lat="43.46696" lon="6.20543">
        <ele>164.5</ele>
        <time>2025-04-14T12:50:09.198Z</time>
      </trkpt>
      <trkpt lat="43.46697" lon="6.20537">
        <ele>164.6</ele>
        <time>2025-04-14T12:50:12.956Z</time>
      </trkpt>
      <trkpt lat="43.46698" lon="6.2053">
        <ele>164.6</ele>
        <time>2025-04-14T12:50:16.714Z</time>
      </trkpt>
      <trkpt lat="43.46699" lon="6.20524">
        <ele>164.4</ele>
        <time>2025-04-14T12:50:20.472Z</time>
      </trkpt>
      <trkpt lat="43.46701" lon="6.20518">
        <ele>164</ele>
        <time>2025-04-14T12:50:24.230Z</time>
      </trkpt>
      <trkpt lat="43.46702" lon="6.20511">
        <ele>163.7</ele>
        <time>2025-04-14T12:50:27.988Z</time>
      </trkpt>
      <trkpt lat="43.46703" lon="6.20505">
        <ele>163.3</ele>
        <time>2025-04-14T12:50:31.746Z</time>
      </trkpt>
      <trkpt lat="43.46704" lon="6.20498">
        <ele>163</ele>
        <time>2025-04-14T12:50:35.504Z</time>
      </trkpt>
      <trkpt lat="43.46705" lon="6.20492">
        <ele>162.8</ele>
        <time>2025-04-14T12:50:39.262Z</time>
      </trkpt>
      <trkpt lat="43.46704" lon="6.20485">
        <ele>163.2</ele>
        <time>2025-04-14T12:50:43.231Z</time>
      </trkpt>
      <trkpt lat="43.46704" lon="6.20478">
        <ele>163.5</ele>
        <time>2025-04-14T12:50:47.200Z</time>
      </trkpt>
      <trkpt lat="43.46703" lon="6.20471">
        <ele>163.8</ele>
        <time>2025-04-14T12:50:51.169Z</time>
      </trkpt>
      <trkpt lat="43.46703" lon="6.20465">
        <ele>163.7</ele>
        <time>2025-04-14T12:50:55.138Z</time>
      </trkpt>
      <trkpt lat="43.46702" lon="6.20458">
        <ele>163.6</ele>
        <time>2025-04-14T12:50:59.107Z</time>
      </trkpt>
      <trkpt lat="43.46701" lon="6.20451">
        <ele>163.5</ele>
        <time>2025-04-14T12:51:03.076Z</time>
      </trkpt>
      <trkpt lat="43.46701" lon="6.20444">
        <ele>163.4</ele>
        <time>2025-04-14T12:51:07.045Z</time>
      </trkpt>
      <trkpt lat="43.467" lon="6.20437">
        <ele>163.3</ele>
        <time>2025-04-14T12:51:11.014Z</time>
      </trkpt>
      <trkpt lat="43.46696" lon="6.20427">
        <ele>164</ele>
        <time>2025-04-14T12:51:17.556Z</time>
      </trkpt>
      <trkpt lat="43.46692" lon="6.20417">
        <ele>164.4</ele>
        <time>2025-04-14T12:51:24.098Z</time>
      </trkpt>
      <trkpt lat="43.46688" lon="6.20407">
        <ele>163.9</ele>
        <time>2025-04-14T12:51:30.640Z</time>
      </trkpt>
      <trkpt lat="43.46684" lon="6.20397">
        <ele>164</ele>
        <time>2025-04-14T12:51:37.182Z</time>
      </trkpt>
      <trkpt lat="43.46682" lon="6.20387">
        <ele>164</ele>
        <time>2025-04-14T12:51:43.377Z</time>
      </trkpt>
      <trkpt lat="43.46679" lon="6.20377">
        <ele>164.1</ele>
        <time>2025-04-14T12:51:49.572Z</time>
      </trkpt>
      <trkpt lat="43.46677" lon="6.20366">
        <ele>164.2</ele>
        <time>2025-04-14T12:51:55.767Z</time>
      </trkpt>
      <trkpt lat="43.46674" lon="6.20356">
        <ele>164.4</ele>
        <time>2025-04-14T12:52:01.962Z</time>
      </trkpt>
      <trkpt lat="43.46673" lon="6.20344">
        <ele>164.5</ele>
        <time>2025-04-14T12:52:08.938Z</time>
      </trkpt>
      <trkpt lat="43.46671" lon="6.20332">
        <ele>164.6</ele>
        <time>2025-04-14T12:52:15.914Z</time>
      </trkpt>
      <trkpt lat="43.4667" lon="6.2032">
        <ele>164.7</ele>
        <time>2025-04-14T12:52:22.890Z</time>
      </trkpt>
      <trkpt lat="43.46668" lon="6.20308">
        <ele>164.7</ele>
        <time>2025-04-14T12:52:29.866Z</time>
        <extensions>
          <visugpx:TrkExtension xmlns:visugpx="https://www.visugpx.com/editgpx/">
            <visugpx:node>19</visugpx:node>
            </visugpx:TrkExtension>
        </extensions>
      </trkpt>
      <trkpt lat="43.46667" lon="6.20296">
        <ele>165</ele>
        <time>2025-04-14T12:52:36.826Z</time>
      </trkpt>
      <trkpt lat="43.46665" lon="6.20284">
        <ele>165.3</ele>
        <time>2025-04-14T12:52:43.786Z</time>
      </trkpt>
      <trkpt lat="43.46664" lon="6.20272">
        <ele>165.5</ele>
        <time>2025-04-14T12:52:50.746Z</time>
      </trkpt>
      <trkpt lat="43.46663" lon="6.2026">
        <ele>165.7</ele>
        <time>2025-04-14T12:52:57.706Z</time>
      </trkpt>
      <trkpt lat="43.46661" lon="6.20248">
        <ele>165.8</ele>
        <time>2025-04-14T12:53:04.666Z</time>
      </trkpt>
      <trkpt lat="43.4666" lon="6.20236">
        <ele>165.6</ele>
        <time>2025-04-14T12:53:11.626Z</time>
      </trkpt>
      <trkpt lat="43.46658" lon="6.20224">
        <ele>165.4</ele>
        <time>2025-04-14T12:53:18.586Z</time>
      </trkpt>
      <trkpt lat="43.46657" lon="6.20212">
        <ele>164.9</ele>
        <time>2025-04-14T12:53:25.546Z</time>
      </trkpt>
      <trkpt lat="43.46655" lon="6.20206">
        <ele>164.6</ele>
        <time>2025-04-14T12:53:29.591Z</time>
      </trkpt>
      <trkpt lat="43.46653" lon="6.20199">
        <ele>164.2</ele>
        <time>2025-04-14T12:53:33.636Z</time>
      </trkpt>
      <trkpt lat="43.46651" lon="6.20193">
        <ele>163.9</ele>
        <time>2025-04-14T12:53:37.681Z</time>
      </trkpt>
      <trkpt lat="43.46649" lon="6.20186">
        <ele>163.6</ele>
        <time>2025-04-14T12:53:41.726Z</time>
      </trkpt>
      <trkpt lat="43.46647" lon="6.2018">
        <ele>163.3</ele>
        <time>2025-04-14T12:53:45.771Z</time>
      </trkpt>
      <trkpt lat="43.46645" lon="6.20173">
        <ele>163.1</ele>
        <time>2025-04-14T12:53:49.816Z</time>
      </trkpt>
      <trkpt lat="43.46643" lon="6.20167">
        <ele>162.8</ele>
        <time>2025-04-14T12:53:53.861Z</time>
      </trkpt>
      <trkpt lat="43.46641" lon="6.2016">
        <ele>162.4</ele>
        <time>2025-04-14T12:53:57.906Z</time>
      </trkpt>
      <trkpt lat="43.46639" lon="6.20154">
        <ele>162</ele>
        <time>2025-04-14T12:54:01.951Z</time>
      </trkpt>
      <trkpt lat="43.46637" lon="6.20147">
        <ele>161.7</ele>
        <time>2025-04-14T12:54:05.996Z</time>
      </trkpt>
      <trkpt lat="43.46635" lon="6.20141">
        <ele>161.5</ele>
        <time>2025-04-14T12:54:10.041Z</time>
      </trkpt>
      <trkpt lat="43.46633" lon="6.20134">
        <ele>161.3</ele>
        <time>2025-04-14T12:54:14.086Z</time>
      </trkpt>
      <trkpt lat="43.46631" lon="6.20128">
        <ele>161.1</ele>
        <time>2025-04-14T12:54:18.131Z</time>
      </trkpt>
      <trkpt lat="43.46629" lon="6.20121">
        <ele>161</ele>
        <time>2025-04-14T12:54:22.176Z</time>
      </trkpt>
      <trkpt lat="43.46627" lon="6.20115">
        <ele>160.9</ele>
        <time>2025-04-14T12:54:26.221Z</time>
      </trkpt>
      <trkpt lat="43.46625" lon="6.20108">
        <ele>160.9</ele>
        <time>2025-04-14T12:54:30.266Z</time>
      </trkpt>
      <trkpt lat="43.4662" lon="6.20106">
        <ele>161.4</ele>
        <time>2025-04-14T12:54:34.231Z</time>
      </trkpt>
      <trkpt lat="43.46616" lon="6.20104">
        <ele>161.9</ele>
        <time>2025-04-14T12:54:38.196Z</time>
      </trkpt>
      <trkpt lat="43.46611" lon="6.20101">
        <ele>162.3</ele>
        <time>2025-04-14T12:54:42.161Z</time>
      </trkpt>
      <trkpt lat="43.46606" lon="6.20099">
        <ele>162.2</ele>
        <time>2025-04-14T12:54:46.126Z</time>
      </trkpt>
      <trkpt lat="43.46601" lon="6.20097">
        <ele>161.9</ele>
        <time>2025-04-14T12:54:50.091Z</time>
      </trkpt>
      <trkpt lat="43.46597" lon="6.20095">
        <ele>161.7</ele>
        <time>2025-04-14T12:54:54.056Z</time>
      </trkpt>
      <trkpt lat="43.46592" lon="6.20092">
        <ele>161.4</ele>
        <time>2025-04-14T12:54:58.021Z</time>
      </trkpt>
      <trkpt lat="43.46587" lon="6.2009">
        <ele>161</ele>
        <time>2025-04-14T12:55:01.986Z</time>
      </trkpt>
      <trkpt lat="43.46583" lon="6.20086">
        <ele>160.5</ele>
        <time>2025-04-14T12:55:06.091Z</time>
      </trkpt>
      <trkpt lat="43.46578" lon="6.20082">
        <ele>160.4</ele>
        <time>2025-04-14T12:55:10.197Z</time>
      </trkpt>
      <trkpt lat="43.46574" lon="6.20078">
        <ele>160.4</ele>
        <time>2025-04-14T12:55:14.303Z</time>
      </trkpt>
      <trkpt lat="43.4657" lon="6.20075">
        <ele>160.4</ele>
        <time>2025-04-14T12:55:18.409Z</time>
      </trkpt>
      <trkpt lat="43.46565" lon="6.20071">
        <ele>160.3</ele>
        <time>2025-04-14T12:55:22.515Z</time>
      </trkpt>
      <trkpt lat="43.46561" lon="6.20067">
        <ele>160.2</ele>
        <time>2025-04-14T12:55:26.621Z</time>
      </trkpt>
      <trkpt lat="43.46556" lon="6.20063">
        <ele>160</ele>
        <time>2025-04-14T12:55:30.727Z</time>
      </trkpt>
      <trkpt lat="43.46552" lon="6.20059">
        <ele>160.4</ele>
        <time>2025-04-14T12:55:34.833Z</time>
      </trkpt>
      <trkpt lat="43.46548" lon="6.20052">
        <ele>160.3</ele>
        <time>2025-04-14T12:55:39.934Z</time>
      </trkpt>
      <trkpt lat="43.46544" lon="6.20045">
        <ele>160.2</ele>
        <time>2025-04-14T12:55:45.035Z</time>
      </trkpt>
      <trkpt lat="43.4654" lon="6.20038">
        <ele>159.9</ele>
        <time>2025-04-14T12:55:50.136Z</time>
      </trkpt>
      <trkpt lat="43.46537" lon="6.20031">
        <ele>159.6</ele>
        <time>2025-04-14T12:55:55.237Z</time>
      </trkpt>
      <trkpt lat="43.46533" lon="6.20023">
        <ele>159.3</ele>
        <time>2025-04-14T12:56:00.338Z</time>
      </trkpt>
      <trkpt lat="43.46529" lon="6.20016">
        <ele>159.1</ele>
        <time>2025-04-14T12:56:05.439Z</time>
      </trkpt>
      <trkpt lat="43.46525" lon="6.20009">
        <ele>159.1</ele>
        <time>2025-04-14T12:56:10.540Z</time>
      </trkpt>
      <trkpt lat="43.46521" lon="6.20002">
        <ele>159</ele>
        <time>2025-04-14T12:56:15.641Z</time>
      </trkpt>
      <trkpt lat="43.46518" lon="6.19994">
        <ele>159.1</ele>
        <time>2025-04-14T12:56:20.756Z</time>
      </trkpt>
      <trkpt lat="43.46515" lon="6.19986">
        <ele>159.4</ele>
        <time>2025-04-14T12:56:25.871Z</time>
      </trkpt>
      <trkpt lat="43.46512" lon="6.19978">
        <ele>159.7</ele>
        <time>2025-04-14T12:56:30.986Z</time>
      </trkpt>
      <trkpt lat="43.4651" lon="6.1997">
        <ele>159.9</ele>
        <time>2025-04-14T12:56:36.101Z</time>
      </trkpt>
      <trkpt lat="43.46507" lon="6.19962">
        <ele>159.5</ele>
        <time>2025-04-14T12:56:41.216Z</time>
      </trkpt>
      <trkpt lat="43.46504" lon="6.19954">
        <ele>159.2</ele>
        <time>2025-04-14T12:56:46.331Z</time>
      </trkpt>
      <trkpt lat="43.46501" lon="6.19946">
        <ele>158.9</ele>
        <time>2025-04-14T12:56:51.446Z</time>
      </trkpt>
      <trkpt lat="43.46498" lon="6.19938">
        <ele>158.8</ele>
        <time>2025-04-14T12:56:56.561Z</time>
      </trkpt>
      <trkpt lat="43.46494" lon="6.19932">
        <ele>159.2</ele>
        <time>2025-04-14T12:57:01.207Z</time>
      </trkpt>
      <trkpt lat="43.46491" lon="6.19926">
        <ele>159.3</ele>
        <time>2025-04-14T12:57:05.853Z</time>
      </trkpt>
      <trkpt lat="43.46487" lon="6.19919">
        <ele>159.3</ele>
        <time>2025-04-14T12:57:10.499Z</time>
      </trkpt>
      <trkpt lat="43.46483" lon="6.19913">
        <ele>158.8</ele>
        <time>2025-04-14T12:57:15.145Z</time>
      </trkpt>
      <trkpt lat="43.46479" lon="6.19907">
        <ele>157.8</ele>
        <time>2025-04-14T12:57:19.791Z</time>
      </trkpt>
      <trkpt lat="43.46476" lon="6.19901">
        <ele>156.9</ele>
        <time>2025-04-14T12:57:24.437Z</time>
      </trkpt>
      <trkpt lat="43.46472" lon="6.19894">
        <ele>155.9</ele>
        <time>2025-04-14T12:57:29.083Z</time>
      </trkpt>
      <trkpt lat="43.46468" lon="6.19888">
        <ele>155.9</ele>
        <time>2025-04-14T12:57:33.729Z</time>
      </trkpt>
      <trkpt lat="43.46464" lon="6.19878">
        <ele>156.5</ele>
        <time>2025-04-14T12:57:40.198Z</time>
      </trkpt>
      <trkpt lat="43.46461" lon="6.19868">
        <ele>157.1</ele>
        <time>2025-04-14T12:57:46.667Z</time>
      </trkpt>
      <trkpt lat="43.46457" lon="6.19858">
        <ele>157.4</ele>
        <time>2025-04-14T12:57:53.136Z</time>
      </trkpt>
      <trkpt lat="43.46454" lon="6.19848">
        <ele>157.3</ele>
        <time>2025-04-14T12:57:59.605Z</time>
      </trkpt>
      <trkpt lat="43.4645" lon="6.19837">
        <ele>157.2</ele>
        <time>2025-04-14T12:58:06.074Z</time>
      </trkpt>
      <trkpt lat="43.46446" lon="6.19827">
        <ele>157.5</ele>
        <time>2025-04-14T12:58:12.543Z</time>
      </trkpt>
      <trkpt lat="43.46443" lon="6.19817">
        <ele>157.9</ele>
        <time>2025-04-14T12:58:19.012Z</time>
      </trkpt>
      <trkpt lat="43.46439" lon="6.19807">
        <ele>158.1</ele>
        <time>2025-04-14T12:58:25.481Z</time>
      </trkpt>
      <trkpt lat="43.46435" lon="6.19798">
        <ele>158.4</ele>
        <time>2025-04-14T12:58:31.650Z</time>
      </trkpt>
      <trkpt lat="43.46431" lon="6.19789">
        <ele>158.7</ele>
        <time>2025-04-14T12:58:37.819Z</time>
      </trkpt>
      <trkpt lat="43.46427" lon="6.19779">
        <ele>159.1</ele>
        <time>2025-04-14T12:58:43.988Z</time>
      </trkpt>
      <trkpt lat="43.46423" lon="6.1977">
        <ele>158.7</ele>
        <time>2025-04-14T12:58:50.157Z</time>
      </trkpt>
      <trkpt lat="43.46419" lon="6.19761">
        <ele>158.4</ele>
        <time>2025-04-14T12:58:56.326Z</time>
      </trkpt>
      <trkpt lat="43.46415" lon="6.19752">
        <ele>158.2</ele>
        <time>2025-04-14T12:59:02.495Z</time>
      </trkpt>
      <trkpt lat="43.46411" lon="6.19742">
        <ele>158.8</ele>
        <time>2025-04-14T12:59:08.664Z</time>
      </trkpt>
      <trkpt lat="43.46407" lon="6.19733">
        <ele>159.6</ele>
        <time>2025-04-14T12:59:14.833Z</time>
      </trkpt>
      <trkpt lat="43.46405" lon="6.19724">
        <ele>159.5</ele>
        <time>2025-04-14T12:59:19.964Z</time>
      </trkpt>
      <trkpt lat="43.46404" lon="6.19716">
        <ele>159.2</ele>
        <time>2025-04-14T12:59:25.095Z</time>
      </trkpt>
      <trkpt lat="43.46402" lon="6.19707">
        <ele>158.9</ele>
        <time>2025-04-14T12:59:30.226Z</time>
      </trkpt>
      <trkpt lat="43.464" lon="6.19699">
        <ele>158.4</ele>
        <time>2025-04-14T12:59:35.357Z</time>
      </trkpt>
      <trkpt lat="43.46398" lon="6.1969">
        <ele>157.8</ele>
        <time>2025-04-14T12:59:40.488Z</time>
      </trkpt>
      <trkpt lat="43.46397" lon="6.19681">
        <ele>157.1</ele>
        <time>2025-04-14T12:59:45.620Z</time>
      </trkpt>
      <trkpt lat="43.46395" lon="6.19673">
        <ele>156.2</ele>
        <time>2025-04-14T12:59:50.752Z</time>
      </trkpt>
      <trkpt lat="43.46393" lon="6.19664">
        <ele>155.5</ele>
        <time>2025-04-14T12:59:55.884Z</time>
      </trkpt>
      <trkpt lat="43.46396" lon="6.19657">
        <ele>154.1</ele>
        <time>2025-04-14T13:00:00.354Z</time>
      </trkpt>
      <trkpt lat="43.46398" lon="6.1965">
        <ele>152.7</ele>
        <time>2025-04-14T13:00:04.824Z</time>
      </trkpt>
      <trkpt lat="43.46399" lon="6.1964">
        <ele>151.6</ele>
        <time>2025-04-14T13:00:10.853Z</time>
      </trkpt>
      <trkpt lat="43.46399" lon="6.19629">
        <ele>152</ele>
        <time>2025-04-14T13:00:16.882Z</time>
      </trkpt>
      <trkpt lat="43.464" lon="6.19629">
        <ele>151.6</ele>
        <time>2025-04-14T13:00:17.671Z</time>
        <extensions>
          <visugpx:TrkExtension xmlns:visugpx="https://www.visugpx.com/editgpx/">
            <visugpx:node>20</visugpx:node>
            </visugpx:TrkExtension>
        </extensions>
      </trkpt>
      <trkpt lat="43.46399" lon="6.19629">
        <ele>152</ele>
        <time>2025-04-14T13:00:18.460Z</time>
      </trkpt>
      <trkpt lat="43.46399" lon="6.19623">
        <ele>152.4</ele>
        <time>2025-04-14T13:00:22.080Z</time>
      </trkpt>
      <trkpt lat="43.46399" lon="6.19616">
        <ele>152.7</ele>
        <time>2025-04-14T13:00:25.700Z</time>
      </trkpt>
      <trkpt lat="43.464" lon="6.1961">
        <ele>153.1</ele>
        <time>2025-04-14T13:00:29.320Z</time>
      </trkpt>
      <trkpt lat="43.464" lon="6.19604">
        <ele>153.4</ele>
        <time>2025-04-14T13:00:32.940Z</time>
      </trkpt>
      <trkpt lat="43.464" lon="6.19597">
        <ele>153.8</ele>
        <time>2025-04-14T13:00:36.560Z</time>
      </trkpt>
      <trkpt lat="43.464" lon="6.19591">
        <ele>154.2</ele>
        <time>2025-04-14T13:00:40.180Z</time>
      </trkpt>
      <trkpt lat="43.464" lon="6.19585">
        <ele>154.6</ele>
        <time>2025-04-14T13:00:43.800Z</time>
      </trkpt>
      <trkpt lat="43.46401" lon="6.19579">
        <ele>154.4</ele>
        <time>2025-04-14T13:00:47.420Z</time>
      </trkpt>
      <trkpt lat="43.46401" lon="6.19572">
        <ele>154.1</ele>
        <time>2025-04-14T13:00:51.040Z</time>
      </trkpt>
      <trkpt lat="43.46401" lon="6.19566">
        <ele>153.8</ele>
        <time>2025-04-14T13:00:54.660Z</time>
      </trkpt>
      <trkpt lat="43.46401" lon="6.1956">
        <ele>153.5</ele>
        <time>2025-04-14T13:00:58.280Z</time>
      </trkpt>
      <trkpt lat="43.46401" lon="6.19553">
        <ele>153.5</ele>
        <time>2025-04-14T13:01:01.900Z</time>
      </trkpt>
      <trkpt lat="43.46401" lon="6.19547">
        <ele>153.8</ele>
        <time>2025-04-14T13:01:05.520Z</time>
      </trkpt>
      <trkpt lat="43.46402" lon="6.19541">
        <ele>154</ele>
        <time>2025-04-14T13:01:09.140Z</time>
      </trkpt>
      <trkpt lat="43.46402" lon="6.19534">
        <ele>154.3</ele>
        <time>2025-04-14T13:01:12.760Z</time>
      </trkpt>
      <trkpt lat="43.46402" lon="6.19528">
        <ele>154.5</ele>
        <time>2025-04-14T13:01:16.380Z</time>
      </trkpt>
      <trkpt lat="43.46402" lon="6.19521">
        <ele>154.4</ele>
        <time>2025-04-14T13:01:20.696Z</time>
      </trkpt>
      <trkpt lat="43.46401" lon="6.19513">
        <ele>154.3</ele>
        <time>2025-04-14T13:01:25.012Z</time>
      </trkpt>
      <trkpt lat="43.46401" lon="6.19506">
        <ele>154.2</ele>
        <time>2025-04-14T13:01:29.328Z</time>
      </trkpt>
      <trkpt lat="43.464" lon="6.19498">
        <ele>154.2</ele>
        <time>2025-04-14T13:01:33.644Z</time>
        <extensions>
          <visugpx:TrkExtension xmlns:visugpx="https://www.visugpx.com/editgpx/">
            <visugpx:node>21</visugpx:node>
            </visugpx:TrkExtension>
        </extensions>
      </trkpt>
      <trkpt lat="43.464" lon="6.19489">
        <ele>154.4</ele>
        <time>2025-04-14T13:01:38.602Z</time>
      </trkpt>
      <trkpt lat="43.46399" lon="6.19481">
        <ele>154.6</ele>
        <time>2025-04-14T13:01:43.560Z</time>
      </trkpt>
      <trkpt lat="43.46399" lon="6.19472">
        <ele>154.8</ele>
        <time>2025-04-14T13:01:48.518Z</time>
      </trkpt>
      <trkpt lat="43.46398" lon="6.19464">
        <ele>154.7</ele>
        <time>2025-04-14T13:01:53.476Z</time>
      </trkpt>
      <trkpt lat="43.46398" lon="6.19455">
        <ele>154.5</ele>
        <time>2025-04-14T13:01:58.434Z</time>
      </trkpt>
      <trkpt lat="43.46397" lon="6.19446">
        <ele>154.3</ele>
        <time>2025-04-14T13:02:03.393Z</time>
      </trkpt>
      <trkpt lat="43.46397" lon="6.19438">
        <ele>153.9</ele>
        <time>2025-04-14T13:02:08.352Z</time>
      </trkpt>
      <trkpt lat="43.46396" lon="6.19429">
        <ele>153.4</ele>
        <time>2025-04-14T13:02:13.311Z</time>
      </trkpt>
      <trkpt lat="43.46394" lon="6.19421">
        <ele>153.9</ele>
        <time>2025-04-14T13:02:18.161Z</time>
      </trkpt>
      <trkpt lat="43.46392" lon="6.19413">
        <ele>154.1</ele>
        <time>2025-04-14T13:02:23.011Z</time>
      </trkpt>
      <trkpt lat="43.46389" lon="6.19405">
        <ele>153.8</ele>
        <time>2025-04-14T13:02:27.861Z</time>
      </trkpt>
      <trkpt lat="43.46387" lon="6.19398">
        <ele>153</ele>
        <time>2025-04-14T13:02:32.711Z</time>
      </trkpt>
      <trkpt lat="43.46385" lon="6.1939">
        <ele>152</ele>
        <time>2025-04-14T13:02:37.561Z</time>
      </trkpt>
      <trkpt lat="43.46383" lon="6.19382">
        <ele>151.5</ele>
        <time>2025-04-14T13:02:42.412Z</time>
      </trkpt>
      <trkpt lat="43.4638" lon="6.19374">
        <ele>150.9</ele>
        <time>2025-04-14T13:02:47.263Z</time>
      </trkpt>
      <trkpt lat="43.46378" lon="6.19366">
        <ele>150.2</ele>
        <time>2025-04-14T13:02:52.114Z</time>
      </trkpt>
      <trkpt lat="43.46378" lon="6.19367">
        <ele>150.4</ele>
        <time>2025-04-14T13:02:52.687Z</time>
        <extensions>
          <visugpx:TrkExtension xmlns:visugpx="https://www.visugpx.com/editgpx/">
            <visugpx:node>22</visugpx:node>
            </visugpx:TrkExtension>
        </extensions>
      </trkpt>
      <trkpt lat="43.46376" lon="6.19361">
        <ele>149.8</ele>
        <time>2025-04-14T13:02:56.903Z</time>
      </trkpt>
      <trkpt lat="43.46373" lon="6.19354">
        <ele>148.7</ele>
        <time>2025-04-14T13:03:01.120Z</time>
      </trkpt>
      <trkpt lat="43.46368" lon="6.19359">
        <ele>150.5</ele>
        <time>2025-04-14T13:03:06Z</time>
      </trkpt>
      <trkpt lat="43.46362" lon="6.19366">
        <ele>152.8</ele>
        <time>2025-04-14T13:03:13.499Z</time>
      </trkpt>
      <trkpt lat="43.46355" lon="6.19373">
        <ele>152.7</ele>
        <time>2025-04-14T13:03:21Z</time>
      </trkpt>
      <trkpt lat="43.46348" lon="6.1938">
        <ele>152.5</ele>
        <time>2025-04-14T13:03:28.499Z</time>
      </trkpt>
      <trkpt lat="43.46341" lon="6.19386">
        <ele>152.6</ele>
        <time>2025-04-14T13:03:36Z</time>
      </trkpt>
      <trkpt lat="43.46334" lon="6.19388">
        <ele>151.7</ele>
        <time>2025-04-14T13:03:43.500Z</time>
      </trkpt>
      <trkpt lat="43.46327" lon="6.19389">
        <ele>152.3</ele>
        <time>2025-04-14T13:03:51Z</time>
      </trkpt>
      <trkpt lat="43.46321" lon="6.19389">
        <ele>152.3</ele>
        <time>2025-04-14T13:03:55.000Z</time>
      </trkpt>
      <trkpt lat="43.46315" lon="6.19388">
        <ele>152.4</ele>
        <time>2025-04-14T13:03:59Z</time>
      </trkpt>
      <trkpt lat="43.46308" lon="6.19389">
        <ele>153</ele>
        <time>2025-04-14T13:04:07Z</time>
      </trkpt>
      <trkpt lat="43.46303" lon="6.1939">
        <ele>153.4</ele>
        <time>2025-04-14T13:04:18Z</time>
      </trkpt>
      <trkpt lat="43.46295" lon="6.19392">
        <ele>154.1</ele>
        <time>2025-04-14T13:04:23.999Z</time>
      </trkpt>
      <trkpt lat="43.46287" lon="6.19394">
        <ele>154.8</ele>
        <time>2025-04-14T13:04:30Z</time>
      </trkpt>
      <trkpt lat="43.46283" lon="6.19397">
        <ele>155.7</ele>
        <time>2025-04-14T13:04:33.499Z</time>
      </trkpt>
      <trkpt lat="43.46279" lon="6.194">
        <ele>156.6</ele>
        <time>2025-04-14T13:04:36.999Z</time>
      </trkpt>
      <trkpt lat="43.46274" lon="6.19403">
        <ele>157.1</ele>
        <time>2025-04-14T13:04:40.499Z</time>
      </trkpt>
      <trkpt lat="43.4627" lon="6.19406">
        <ele>157.2</ele>
        <time>2025-04-14T13:04:44Z</time>
      </trkpt>
      <trkpt lat="43.46265" lon="6.1941">
        <ele>157.2</ele>
        <time>2025-04-14T13:04:46.999Z</time>
      </trkpt>
      <trkpt lat="43.46259" lon="6.19415">
        <ele>156.9</ele>
        <time>2025-04-14T13:04:49.999Z</time>
      </trkpt>
      <trkpt lat="43.46254" lon="6.19419">
        <ele>156.7</ele>
        <time>2025-04-14T13:04:52.999Z</time>
      </trkpt>
      <trkpt lat="43.46248" lon="6.19423">
        <ele>157.7</ele>
        <time>2025-04-14T13:04:56Z</time>
      </trkpt>
      <trkpt lat="43.46244" lon="6.19415">
        <ele>155.2</ele>
        <time>2025-04-14T13:05:02.686Z</time>
      </trkpt>
      <trkpt lat="43.46245" lon="6.19403">
        <ele>154.8</ele>
        <time>2025-04-14T13:05:11Z</time>
      </trkpt>
      <trkpt lat="43.46248" lon="6.19393">
        <ele>153.5</ele>
        <time>2025-04-14T13:05:17.000Z</time>
      </trkpt>
      <trkpt lat="43.4625" lon="6.19383">
        <ele>153.1</ele>
        <time>2025-04-14T13:05:23Z</time>
      </trkpt>
      <trkpt lat="43.46254" lon="6.19374">
        <ele>154.1</ele>
        <time>2025-04-14T13:05:28.000Z</time>
      </trkpt>
      <trkpt lat="43.46258" lon="6.19365">
        <ele>154.4</ele>
        <time>2025-04-14T13:05:33Z</time>
      </trkpt>
      <trkpt lat="43.46265" lon="6.19358">
        <ele>153.2</ele>
        <time>2025-04-14T13:05:41.581Z</time>
        <extensions>
          <visugpx:TrkExtension xmlns:visugpx="https://www.visugpx.com/editgpx/">
            <visugpx:node>23</visugpx:node>
            </visugpx:TrkExtension>
        </extensions>
      </trkpt>
      <trkpt lat="43.46265" lon="6.19358">
        <ele>153.2</ele>
        <time>2025-04-14T13:05:41.581Z</time>
      </trkpt>
      <trkpt lat="43.46268" lon="6.19352">
        <ele>153.3</ele>
        <time>2025-04-14T13:05:47.128Z</time>
      </trkpt>
      <trkpt lat="43.46271" lon="6.19345">
        <ele>153.3</ele>
        <time>2025-04-14T13:05:52.675Z</time>
      </trkpt>
      <trkpt lat="43.46274" lon="6.19339">
        <ele>153</ele>
        <time>2025-04-14T13:05:58.222Z</time>
      </trkpt>
      <trkpt lat="43.46277" lon="6.19332">
        <ele>152.8</ele>
        <time>2025-04-14T13:06:03.769Z</time>
      </trkpt>
      <trkpt lat="43.46283" lon="6.19327">
        <ele>153.3</ele>
        <time>2025-04-14T13:06:10.726Z</time>
      </trkpt>
      <trkpt lat="43.4629" lon="6.19326">
        <ele>152.6</ele>
        <time>2025-04-14T13:06:17.215Z</time>
      </trkpt>
      <trkpt lat="43.46296" lon="6.19325">
        <ele>151.9</ele>
        <time>2025-04-14T13:06:23.704Z</time>
      </trkpt>
      <trkpt lat="43.463" lon="6.19321">
        <ele>152.6</ele>
        <time>2025-04-14T13:06:28.332Z</time>
      </trkpt>
      <trkpt lat="43.46303" lon="6.19317">
        <ele>153.3</ele>
        <time>2025-04-14T13:06:32.960Z</time>
      </trkpt>
      <trkpt lat="43.46307" lon="6.19312">
        <ele>153.7</ele>
        <time>2025-04-14T13:06:37.588Z</time>
      </trkpt>
      <trkpt lat="43.4631" lon="6.19308">
        <ele>153.5</ele>
        <time>2025-04-14T13:06:42.216Z</time>
      </trkpt>
      <trkpt lat="43.46314" lon="6.19301">
        <ele>153.3</ele>
        <time>2025-04-14T13:06:48.918Z</time>
      </trkpt>
      <trkpt lat="43.46318" lon="6.19293">
        <ele>152.9</ele>
        <time>2025-04-14T13:06:55.620Z</time>
      </trkpt>
      <trkpt lat="43.46322" lon="6.19288">
        <ele>152.1</ele>
        <time>2025-04-14T13:07:00.978Z</time>
      </trkpt>
      <trkpt lat="43.46326" lon="6.19283">
        <ele>151.2</ele>
        <time>2025-04-14T13:07:06.336Z</time>
      </trkpt>
      <trkpt lat="43.46327" lon="6.19275">
        <ele>152</ele>
        <time>2025-04-14T13:07:12.477Z</time>
      </trkpt>
      <trkpt lat="43.46327" lon="6.19266">
        <ele>152.1</ele>
        <time>2025-04-14T13:07:18.618Z</time>
      </trkpt>
      <trkpt lat="43.46326" lon="6.19261">
        <ele>152.6</ele>
        <time>2025-04-14T13:07:22.352Z</time>
        <extensions>
          <visugpx:TrkExtension xmlns:visugpx="https://www.visugpx.com/editgpx/">
            <visugpx:node>24</visugpx:node>
            </visugpx:TrkExtension>
        </extensions>
      </trkpt>
      <trkpt lat="43.46325" lon="6.1925">
        <ele>153.4</ele>
        <time>2025-04-14T13:07:30.192Z</time>
      </trkpt>
      <trkpt lat="43.46324" lon="6.1924">
        <ele>154</ele>
        <time>2025-04-14T13:07:38.032Z</time>
      </trkpt>
      <trkpt lat="43.46322" lon="6.19229">
        <ele>154.5</ele>
        <time>2025-04-14T13:07:45.872Z</time>
      </trkpt>
      <trkpt lat="43.46321" lon="6.19218">
        <ele>155.4</ele>
        <time>2025-04-14T13:07:53.712Z</time>
      </trkpt>
      <trkpt lat="43.46324" lon="6.19209">
        <ele>155.4</ele>
        <time>2025-04-14T13:08:00.651Z</time>
      </trkpt>
      <trkpt lat="43.46326" lon="6.192">
        <ele>155.6</ele>
        <time>2025-04-14T13:08:07.590Z</time>
      </trkpt>
      <trkpt lat="43.46331" lon="6.19193">
        <ele>155</ele>
        <time>2025-04-14T13:08:14.662Z</time>
      </trkpt>
      <trkpt lat="43.46337" lon="6.1919">
        <ele>154.5</ele>
        <time>2025-04-14T13:08:20.531Z</time>
      </trkpt>
      <trkpt lat="43.46342" lon="6.19187">
        <ele>154.4</ele>
        <time>2025-04-14T13:08:26.400Z</time>
      </trkpt>
      <trkpt lat="43.46348" lon="6.19184">
        <ele>154.2</ele>
        <time>2025-04-14T13:08:32.269Z</time>
      </trkpt>
      <trkpt lat="43.46353" lon="6.19181">
        <ele>154.1</ele>
        <time>2025-04-14T13:08:38.138Z</time>
      </trkpt>
      <trkpt lat="43.4636" lon="6.19181">
        <ele>153.2</ele>
        <time>2025-04-14T13:08:45.092Z</time>
      </trkpt>
      <trkpt lat="43.46367" lon="6.1918">
        <ele>153.1</ele>
        <time>2025-04-14T13:08:52.046Z</time>
      </trkpt>
      <trkpt lat="43.46373" lon="6.19181">
        <ele>152.8</ele>
        <time>2025-04-14T13:08:57.592Z</time>
      </trkpt>
      <trkpt lat="43.46378" lon="6.19183">
        <ele>152.4</ele>
        <time>2025-04-14T13:09:03.138Z</time>
      </trkpt>
      <trkpt lat="43.46384" lon="6.19184">
        <ele>152</ele>
        <time>2025-04-14T13:09:08.684Z</time>
      </trkpt>
      <trkpt lat="43.46389" lon="6.19186">
        <ele>151.6</ele>
        <time>2025-04-14T13:09:14.230Z</time>
      </trkpt>
      <trkpt lat="43.46395" lon="6.19187">
        <ele>151.3</ele>
        <time>2025-04-14T13:09:19.776Z</time>
      </trkpt>
      <trkpt lat="43.464" lon="6.19188">
        <ele>151</ele>
        <time>2025-04-14T13:09:25.322Z</time>
      </trkpt>
      <trkpt lat="43.46406" lon="6.1919">
        <ele>150.8</ele>
        <time>2025-04-14T13:09:30.868Z</time>
      </trkpt>
      <trkpt lat="43.46411" lon="6.19191">
        <ele>150.6</ele>
        <time>2025-04-14T13:09:36.414Z</time>
      </trkpt>
      <trkpt lat="43.46417" lon="6.19185">
        <ele>151.9</ele>
        <time>2025-04-14T13:09:43.769Z</time>
      </trkpt>
      <trkpt lat="43.46423" lon="6.19179">
        <ele>150.7</ele>
        <time>2025-04-14T13:09:51.124Z</time>
      </trkpt>
      <trkpt lat="43.46424" lon="6.19177">
        <ele>150.6</ele>
        <time>2025-04-14T13:09:52.872Z</time>
      </trkpt>
      <trkpt lat="43.46424" lon="6.19177">
        <ele>150.6</ele>
        <time>2025-04-14T13:09:52.872Z</time>
        <extensions>
          <visugpx:TrkExtension xmlns:visugpx="https://www.visugpx.com/editgpx/">
            <visugpx:node>25</visugpx:node>
            </visugpx:TrkExtension>
        </extensions>
      </trkpt>
      <trkpt lat="43.46424" lon="6.19177">
        <ele>150.6</ele>
        <time>2025-04-14T13:09:52.872Z</time>
      </trkpt>
      <trkpt lat="43.46426" lon="6.1917">
        <ele>151</ele>
        <time>2025-04-14T13:09:58.122Z</time>
      </trkpt>
      <trkpt lat="43.46428" lon="6.19164">
        <ele>151.3</ele>
        <time>2025-04-14T13:10:03.372Z</time>
      </trkpt>
      <trkpt lat="43.4643" lon="6.19157">
        <ele>151.9</ele>
        <time>2025-04-14T13:10:08.622Z</time>
      </trkpt>
      <trkpt lat="43.46432" lon="6.1915">
        <ele>152.5</ele>
        <time>2025-04-14T13:10:13.872Z</time>
      </trkpt>
      <trkpt lat="43.46438" lon="6.19143">
        <ele>152.2</ele>
        <time>2025-04-14T13:10:21.910Z</time>
      </trkpt>
      <trkpt lat="43.46444" lon="6.19135">
        <ele>152.1</ele>
        <time>2025-04-14T13:10:29.948Z</time>
      </trkpt>
      <trkpt lat="43.4645" lon="6.19128">
        <ele>151.3</ele>
        <time>2025-04-14T13:10:37.986Z</time>
      </trkpt>
      <trkpt lat="43.46456" lon="6.1912">
        <ele>150.1</ele>
        <time>2025-04-14T13:10:46.024Z</time>
      </trkpt>
      <trkpt lat="43.46459" lon="6.19111">
        <ele>150.2</ele>
        <time>2025-04-14T13:10:52.940Z</time>
      </trkpt>
      <trkpt lat="43.46462" lon="6.19103">
        <ele>150.4</ele>
        <time>2025-04-14T13:10:59.856Z</time>
      </trkpt>
      <trkpt lat="43.46465" lon="6.19094">
        <ele>151</ele>
        <time>2025-04-14T13:11:06.772Z</time>
      </trkpt>
      <trkpt lat="43.46468" lon="6.19085">
        <ele>151.7</ele>
        <time>2025-04-14T13:11:13.688Z</time>
      </trkpt>
      <trkpt lat="43.4647" lon="6.19076">
        <ele>151.8</ele>
        <time>2025-04-14T13:11:20.604Z</time>
      </trkpt>
      <trkpt lat="43.46473" lon="6.19068">
        <ele>151.9</ele>
        <time>2025-04-14T13:11:27.520Z</time>
      </trkpt>
      <trkpt lat="43.46476" lon="6.19059">
        <ele>152</ele>
        <time>2025-04-14T13:11:34.436Z</time>
      </trkpt>
      <trkpt lat="43.46479" lon="6.1905">
        <ele>151.9</ele>
        <time>2025-04-14T13:11:41.352Z</time>
        <extensions>
          <visugpx:TrkExtension xmlns:visugpx="https://www.visugpx.com/editgpx/">
            <visugpx:node>26</visugpx:node>
            </visugpx:TrkExtension>
        </extensions>
      </trkpt>
      <trkpt lat="43.46483" lon="6.1904">
        <ele>151.6</ele>
        <time>2025-04-14T13:11:49.509Z</time>
      </trkpt>
      <trkpt lat="43.46486" lon="6.1903">
        <ele>151.4</ele>
        <time>2025-04-14T13:11:57.666Z</time>
      </trkpt>
      <trkpt lat="43.4649" lon="6.19019">
        <ele>151.8</ele>
        <time>2025-04-14T13:12:05.823Z</time>
      </trkpt>
      <trkpt lat="43.46493" lon="6.19009">
        <ele>152.2</ele>
        <time>2025-04-14T13:12:13.980Z</time>
      </trkpt>
      <trkpt lat="43.46498" lon="6.19">
        <ele>151.3</ele>
        <time>2025-04-14T13:12:21.850Z</time>
      </trkpt>
      <trkpt lat="43.46502" lon="6.18991">
        <ele>152.2</ele>
        <time>2025-04-14T13:12:29.720Z</time>
      </trkpt>
      <trkpt lat="43.46507" lon="6.18986">
        <ele>152.7</ele>
        <time>2025-04-14T13:12:36.068Z</time>
      </trkpt>
      <trkpt lat="43.46512" lon="6.1898">
        <ele>153.2</ele>
        <time>2025-04-14T13:12:42.416Z</time>
      </trkpt>
      <trkpt lat="43.4652" lon="6.18975">
        <ele>153</ele>
        <time>2025-04-14T13:12:50.682Z</time>
      </trkpt>
      <trkpt lat="43.46527" lon="6.1897">
        <ele>152.2</ele>
        <time>2025-04-14T13:12:58.948Z</time>
        <extensions>
          <visugpx:TrkExtension xmlns:visugpx="https://www.visugpx.com/editgpx/">
            <visugpx:node>27</visugpx:node>
            </visugpx:TrkExtension>
        </extensions>
      </trkpt>
      <trkpt lat="43.46527" lon="6.1897">
        <ele>152.2</ele>
        <time>2025-04-14T13:12:58.948Z</time>
      </trkpt>
      <trkpt lat="43.46532" lon="6.18967">
        <ele>151.5</ele>
        <time>2025-04-14T13:13:04.358Z</time>
      </trkpt>
      <trkpt lat="43.46532" lon="6.18955">
        <ele>151.4</ele>
        <time>2025-04-14T13:13:12.999Z</time>
        <extensions>
          <visugpx:TrkExtension xmlns:visugpx="https://www.visugpx.com/editgpx/">
            <visugpx:node>28</visugpx:node>
            </visugpx:TrkExtension>
        </extensions>
      </trkpt>
      <trkpt lat="43.46532" lon="6.18946">
        <ele>151.3</ele>
        <time>2025-04-14T13:13:19.480Z</time>
      </trkpt>
      <trkpt lat="43.46529" lon="6.18942">
        <ele>151.3</ele>
        <time>2025-04-14T13:13:23.622Z</time>
      </trkpt>
      <trkpt lat="43.46529" lon="6.18942">
        <ele>151.3</ele>
        <time>2025-04-14T13:13:23.622Z</time>
        <extensions>
          <visugpx:TrkExtension xmlns:visugpx="https://www.visugpx.com/editgpx/">
            <visugpx:node>29</visugpx:node>
            </visugpx:TrkExtension>
        </extensions>
      </trkpt>
      <trkpt lat="43.46529" lon="6.18942">
        <ele>151.3</ele>
        <time>2025-04-14T13:13:23.622Z</time>
      </trkpt>
      <trkpt lat="43.46523" lon="6.18935">
        <ele>151.6</ele>
        <time>2025-04-14T13:13:31.697Z</time>
      </trkpt>
      <trkpt lat="43.46516" lon="6.18929">
        <ele>151.6</ele>
        <time>2025-04-14T13:13:39.772Z</time>
      </trkpt>
      <trkpt lat="43.4651" lon="6.18922">
        <ele>151.4</ele>
        <time>2025-04-14T13:13:47.847Z</time>
      </trkpt>
      <trkpt lat="43.46503" lon="6.18915">
        <ele>151.2</ele>
        <time>2025-04-14T13:13:55.922Z</time>
      </trkpt>
      <trkpt lat="43.46497" lon="6.18908">
        <ele>151.4</ele>
        <time>2025-04-14T13:14:03.960Z</time>
      </trkpt>
      <trkpt lat="43.46491" lon="6.189">
        <ele>152.2</ele>
        <time>2025-04-14T13:14:11.998Z</time>
      </trkpt>
      <trkpt lat="43.46488" lon="6.18895">
        <ele>152.3</ele>
        <time>2025-04-14T13:14:16.879Z</time>
      </trkpt>
      <trkpt lat="43.46485" lon="6.18889">
        <ele>152.3</ele>
        <time>2025-04-14T13:14:21.760Z</time>
      </trkpt>
      <trkpt lat="43.46482" lon="6.18884">
        <ele>152.7</ele>
        <time>2025-04-14T13:14:26.641Z</time>
      </trkpt>
      <trkpt lat="43.4648" lon="6.18878">
        <ele>152.7</ele>
        <time>2025-04-14T13:14:31.522Z</time>
      </trkpt>
      <trkpt lat="43.46477" lon="6.18873">
        <ele>152.5</ele>
        <time>2025-04-14T13:14:36.403Z</time>
      </trkpt>
      <trkpt lat="43.46474" lon="6.18867">
        <ele>152</ele>
        <time>2025-04-14T13:14:41.284Z</time>
      </trkpt>
      <trkpt lat="43.46471" lon="6.18862">
        <ele>151.5</ele>
        <time>2025-04-14T13:14:46.165Z</time>
      </trkpt>
      <trkpt lat="43.46468" lon="6.18856">
        <ele>152.6</ele>
        <time>2025-04-14T13:14:51.046Z</time>
      </trkpt>
      <trkpt lat="43.46467" lon="6.1885">
        <ele>153.3</ele>
        <time>2025-04-14T13:14:55.957Z</time>
      </trkpt>
      <trkpt lat="43.46465" lon="6.18843">
        <ele>154</ele>
        <time>2025-04-14T13:15:00.868Z</time>
      </trkpt>
      <trkpt lat="43.46472" lon="6.18839">
        <ele>152.6</ele>
        <time>2025-04-14T13:15:08.387Z</time>
      </trkpt>
      <trkpt lat="43.46479" lon="6.18839">
        <ele>152.3</ele>
        <time>2025-04-14T13:15:14.836Z</time>
      </trkpt>
      <trkpt lat="43.46485" lon="6.18839">
        <ele>151.9</ele>
        <time>2025-04-14T13:15:21.285Z</time>
      </trkpt>
      <trkpt lat="43.46492" lon="6.18839">
        <ele>151.6</ele>
        <time>2025-04-14T13:15:27.734Z</time>
      </trkpt>
      <trkpt lat="43.46498" lon="6.18839">
        <ele>151.3</ele>
        <time>2025-04-14T13:15:34.183Z</time>
      </trkpt>
      <trkpt lat="43.46504" lon="6.18835">
        <ele>151.6</ele>
        <time>2025-04-14T13:15:40.529Z</time>
      </trkpt>
      <trkpt lat="43.46509" lon="6.1883">
        <ele>152</ele>
        <time>2025-04-14T13:15:46.875Z</time>
      </trkpt>
      <trkpt lat="43.46514" lon="6.18829">
        <ele>151.9</ele>
        <time>2025-04-14T13:15:51.397Z</time>
      </trkpt>
      <trkpt lat="43.46518" lon="6.18828">
        <ele>151.7</ele>
        <time>2025-04-14T13:15:55.919Z</time>
        <extensions>
          <visugpx:TrkExtension xmlns:visugpx="https://www.visugpx.com/editgpx/">
            <visugpx:node>30</visugpx:node>
            </visugpx:TrkExtension>
        </extensions>
      </trkpt>
      <trkpt lat="43.46523" lon="6.18827">
        <ele>151.5</ele>
        <time>2025-04-14T13:16:00.909Z</time>
      </trkpt>
      <trkpt lat="43.46528" lon="6.18827">
        <ele>151.2</ele>
        <time>2025-04-14T13:16:05.899Z</time>
      </trkpt>
      <trkpt lat="43.46533" lon="6.18826">
        <ele>151</ele>
        <time>2025-04-14T13:16:10.889Z</time>
      </trkpt>
      <trkpt lat="43.46538" lon="6.18825">
        <ele>150.8</ele>
        <time>2025-04-14T13:16:15.879Z</time>
      </trkpt>
      <trkpt lat="43.46543" lon="6.18822">
        <ele>151</ele>
        <time>2025-04-14T13:16:21.443Z</time>
      </trkpt>
      <trkpt lat="43.46548" lon="6.18818">
        <ele>151.3</ele>
        <time>2025-04-14T13:16:27.007Z</time>
      </trkpt>
      <trkpt lat="43.46548" lon="6.18818">
        <ele>151.3</ele>
        <time>2025-04-14T13:16:27.007Z</time>
        <extensions>
          <visugpx:TrkExtension xmlns:visugpx="https://www.visugpx.com/editgpx/">
            <visugpx:node>31</visugpx:node>
            </visugpx:TrkExtension>
        </extensions>
      </trkpt>
      <trkpt lat="43.46548" lon="6.18818">
        <ele>151.3</ele>
        <time>2025-04-14T13:16:27.007Z</time>
      </trkpt>
      <trkpt lat="43.46556" lon="6.18813">
        <ele>151.5</ele>
        <time>2025-04-14T13:16:35.723Z</time>
      </trkpt>
      <trkpt lat="43.46561" lon="6.18804">
        <ele>151.5</ele>
        <time>2025-04-14T13:16:43.884Z</time>
      </trkpt>
      <trkpt lat="43.4656" lon="6.18798">
        <ele>152.2</ele>
        <time>2025-04-14T13:16:48.317Z</time>
      </trkpt>
      <trkpt lat="43.46563" lon="6.18788">
        <ele>152</ele>
        <time>2025-04-14T13:16:56.443Z</time>
      </trkpt>
      <trkpt lat="43.46566" lon="6.18777">
        <ele>151.7</ele>
        <time>2025-04-14T13:17:04.569Z</time>
        <extensions>
          <visugpx:TrkExtension xmlns:visugpx="https://www.visugpx.com/editgpx/">
            <visugpx:node>32</visugpx:node>
            </visugpx:TrkExtension>
        </extensions>
      </trkpt>
      <trkpt lat="43.46568" lon="6.18771">
        <ele>151.5</ele>
        <time>2025-04-14T13:17:09.653Z</time>
      </trkpt>
      <trkpt lat="43.4657" lon="6.18764">
        <ele>151.3</ele>
        <time>2025-04-14T13:17:14.737Z</time>
      </trkpt>
      <trkpt lat="43.46572" lon="6.18758">
        <ele>151.1</ele>
        <time>2025-04-14T13:17:19.821Z</time>
      </trkpt>
      <trkpt lat="43.46574" lon="6.18751">
        <ele>151</ele>
        <time>2025-04-14T13:17:24.905Z</time>
      </trkpt>
      <trkpt lat="43.46575" lon="6.18744">
        <ele>151.1</ele>
        <time>2025-04-14T13:17:29.921Z</time>
      </trkpt>
      <trkpt lat="43.46577" lon="6.18738">
        <ele>151.2</ele>
        <time>2025-04-14T13:17:34.937Z</time>
      </trkpt>
      <trkpt lat="43.46578" lon="6.18731">
        <ele>151.3</ele>
        <time>2025-04-14T13:17:39.953Z</time>
      </trkpt>
      <trkpt lat="43.46579" lon="6.18724">
        <ele>151.4</ele>
        <time>2025-04-14T13:17:44.969Z</time>
      </trkpt>
      <trkpt lat="43.46579" lon="6.18724">
        <ele>151.4</ele>
        <time>2025-04-14T13:17:44.969Z</time>
        <extensions>
          <visugpx:TrkExtension xmlns:visugpx="https://www.visugpx.com/editgpx/">
            <visugpx:node>33</visugpx:node>
            </visugpx:TrkExtension>
        </extensions>
      </trkpt>
      <trkpt lat="43.46579" lon="6.18724">
        <ele>151.4</ele>
        <time>2025-04-14T13:17:44.969Z</time>
      </trkpt>
      <trkpt lat="43.4658" lon="6.18718">
        <ele>151.4</ele>
        <time>2025-04-14T13:17:49.693Z</time>
      </trkpt>
      <trkpt lat="43.46581" lon="6.18711">
        <ele>151.5</ele>
        <time>2025-04-14T13:17:54.417Z</time>
      </trkpt>
      <trkpt lat="43.46582" lon="6.18705">
        <ele>151.5</ele>
        <time>2025-04-14T13:17:59.141Z</time>
      </trkpt>
      <trkpt lat="43.46584" lon="6.18699">
        <ele>151.7</ele>
        <time>2025-04-14T13:18:03.865Z</time>
      </trkpt>
      <trkpt lat="43.46585" lon="6.18692">
        <ele>152</ele>
        <time>2025-04-14T13:18:08.589Z</time>
      </trkpt>
      <trkpt lat="43.46586" lon="6.18686">
        <ele>152.3</ele>
        <time>2025-04-14T13:18:13.313Z</time>
      </trkpt>
      <trkpt lat="43.46587" lon="6.18679">
        <ele>152.6</ele>
        <time>2025-04-14T13:18:18.037Z</time>
      </trkpt>
      <trkpt lat="43.46588" lon="6.18673">
        <ele>153</ele>
        <time>2025-04-14T13:18:22.761Z</time>
      </trkpt>
      <trkpt lat="43.46593" lon="6.18667">
        <ele>153</ele>
        <time>2025-04-14T13:18:29.229Z</time>
      </trkpt>
      <trkpt lat="43.46597" lon="6.1866">
        <ele>153.6</ele>
        <time>2025-04-14T13:18:35.697Z</time>
      </trkpt>
      <trkpt lat="43.46602" lon="6.18659">
        <ele>153.3</ele>
        <time>2025-04-14T13:18:40.290Z</time>
      </trkpt>
      <trkpt lat="43.46606" lon="6.18657">
        <ele>153</ele>
        <time>2025-04-14T13:18:44.883Z</time>
      </trkpt>
      <trkpt lat="43.46613" lon="6.18659">
        <ele>152.2</ele>
        <time>2025-04-14T13:18:52.186Z</time>
      </trkpt>
      <trkpt lat="43.46621" lon="6.18661">
        <ele>152.1</ele>
        <time>2025-04-14T13:18:59.489Z</time>
      </trkpt>
      <trkpt lat="43.46628" lon="6.18662">
        <ele>152</ele>
        <time>2025-04-14T13:19:06.792Z</time>
      </trkpt>
      <trkpt lat="43.46635" lon="6.18664">
        <ele>152.1</ele>
        <time>2025-04-14T13:19:14.095Z</time>
      </trkpt>
      <trkpt lat="43.46641" lon="6.1867">
        <ele>151.7</ele>
        <time>2025-04-14T13:19:20.837Z</time>
      </trkpt>
      <trkpt lat="43.46646" lon="6.18675">
        <ele>151.1</ele>
        <time>2025-04-14T13:19:27.579Z</time>
      </trkpt>
      <trkpt lat="43.46651" lon="6.18676">
        <ele>151.3</ele>
        <time>2025-04-14T13:19:32.816Z</time>
      </trkpt>
      <trkpt lat="43.46657" lon="6.18677">
        <ele>151.4</ele>
        <time>2025-04-14T13:19:38.053Z</time>
      </trkpt>
      <trkpt lat="43.46662" lon="6.18677">
        <ele>151.6</ele>
        <time>2025-04-14T13:19:43.290Z</time>
      </trkpt>
      <trkpt lat="43.46667" lon="6.18678">
        <ele>151.8</ele>
        <time>2025-04-14T13:19:48.527Z</time>
      </trkpt>
      <trkpt lat="43.46671" lon="6.1868">
        <ele>151.7</ele>
        <time>2025-04-14T13:19:53.192Z</time>
      </trkpt>
      <trkpt lat="43.46676" lon="6.18683">
        <ele>151.6</ele>
        <time>2025-04-14T13:19:57.857Z</time>
      </trkpt>
      <trkpt lat="43.4668" lon="6.18685">
        <ele>151.5</ele>
        <time>2025-04-14T13:20:02.522Z</time>
      </trkpt>
      <trkpt lat="43.46685" lon="6.18688">
        <ele>151.4</ele>
        <time>2025-04-14T13:20:07.187Z</time>
      </trkpt>
      <trkpt lat="43.46689" lon="6.1869">
        <ele>151.3</ele>
        <time>2025-04-14T13:20:11.852Z</time>
      </trkpt>
      <trkpt lat="43.46693" lon="6.18692">
        <ele>151.2</ele>
        <time>2025-04-14T13:20:16.517Z</time>
      </trkpt>
      <trkpt lat="43.46698" lon="6.18695">
        <ele>150.5</ele>
        <time>2025-04-14T13:20:21.182Z</time>
      </trkpt>
      <trkpt lat="43.46702" lon="6.18697">
        <ele>149.5</ele>
        <time>2025-04-14T13:20:25.847Z</time>
      </trkpt>
      <trkpt lat="43.46706" lon="6.18698">
        <ele>148.8</ele>
        <time>2025-04-14T13:20:29.880Z</time>
      </trkpt>
      <trkpt lat="43.46708" lon="6.18691">
        <ele>149.5</ele>
        <time>2025-04-14T13:20:35.393Z</time>
      </trkpt>
      <trkpt lat="43.46711" lon="6.18684">
        <ele>150</ele>
        <time>2025-04-14T13:20:40.906Z</time>
      </trkpt>
      <trkpt lat="43.46713" lon="6.18677">
        <ele>150.7</ele>
        <time>2025-04-14T13:20:46.419Z</time>
      </trkpt>
      <trkpt lat="43.46715" lon="6.1867">
        <ele>151.3</ele>
        <time>2025-04-14T13:20:51.932Z</time>
      </trkpt>
      <trkpt lat="43.46717" lon="6.18663">
        <ele>151.7</ele>
        <time>2025-04-14T13:20:57.445Z</time>
      </trkpt>
      <trkpt lat="43.4672" lon="6.18656">
        <ele>151.6</ele>
        <time>2025-04-14T13:21:02.958Z</time>
      </trkpt>
      <trkpt lat="43.46722" lon="6.18649">
        <ele>151.7</ele>
        <time>2025-04-14T13:21:08.471Z</time>
      </trkpt>
      <trkpt lat="43.46724" lon="6.18642">
        <ele>151.6</ele>
        <time>2025-04-14T13:21:13.984Z</time>
      </trkpt>
      <trkpt lat="43.46725" lon="6.18634">
        <ele>151.9</ele>
        <time>2025-04-14T13:21:19.829Z</time>
        <extensions>
          <visugpx:TrkExtension xmlns:visugpx="https://www.visugpx.com/editgpx/">
            <visugpx:node>34</visugpx:node>
            </visugpx:TrkExtension>
        </extensions>
      </trkpt>
      <trkpt lat="43.46726" lon="6.18625">
        <ele>152.4</ele>
        <time>2025-04-14T13:21:26.741Z</time>
      </trkpt>
      <trkpt lat="43.46727" lon="6.18615">
        <ele>153</ele>
        <time>2025-04-14T13:21:33.653Z</time>
      </trkpt>
      <trkpt lat="43.4673" lon="6.18608">
        <ele>153</ele>
        <time>2025-04-14T13:21:39.507Z</time>
      </trkpt>
      <trkpt lat="43.46735" lon="6.18602">
        <ele>152.6</ele>
        <time>2025-04-14T13:21:46.085Z</time>
      </trkpt>
      <trkpt lat="43.4674" lon="6.18601">
        <ele>152.2</ele>
        <time>2025-04-14T13:21:50.607Z</time>
      </trkpt>
      <trkpt lat="43.46744" lon="6.186">
        <ele>151.8</ele>
        <time>2025-04-14T13:21:55.129Z</time>
      </trkpt>
      <trkpt lat="43.4675" lon="6.18603">
        <ele>150.9</ele>
        <time>2025-04-14T13:22:01.789Z</time>
      </trkpt>
      <trkpt lat="43.46757" lon="6.18607">
        <ele>150.8</ele>
        <time>2025-04-14T13:22:08.449Z</time>
      </trkpt>
      <trkpt lat="43.46763" lon="6.1861">
        <ele>150.6</ele>
        <time>2025-04-14T13:22:15.109Z</time>
      </trkpt>
      <trkpt lat="43.46769" lon="6.18614">
        <ele>150.4</ele>
        <time>2025-04-14T13:22:21.769Z</time>
      </trkpt>
      <trkpt lat="43.46775" lon="6.18617">
        <ele>150.1</ele>
        <time>2025-04-14T13:22:28.429Z</time>
      </trkpt>
      <trkpt lat="43.46782" lon="6.1862">
        <ele>149.8</ele>
        <time>2025-04-14T13:22:35.089Z</time>
      </trkpt>
      <trkpt lat="43.46788" lon="6.18624">
        <ele>149.5</ele>
        <time>2025-04-14T13:22:41.749Z</time>
      </trkpt>
      <trkpt lat="43.46794" lon="6.18627">
        <ele>149.4</ele>
        <time>2025-04-14T13:22:48.409Z</time>
      </trkpt>
      <trkpt lat="43.46801" lon="6.18632">
        <ele>149.3</ele>
        <time>2025-04-14T13:22:55.929Z</time>
      </trkpt>
      <trkpt lat="43.46808" lon="6.18637">
        <ele>149.4</ele>
        <time>2025-04-14T13:23:03.449Z</time>
      </trkpt>
      <trkpt lat="43.46814" lon="6.18641">
        <ele>150.2</ele>
        <time>2025-04-14T13:23:10.969Z</time>
      </trkpt>
      <trkpt lat="43.46821" lon="6.18646">
        <ele>151.3</ele>
        <time>2025-04-14T13:23:18.489Z</time>
      </trkpt>
      <trkpt lat="43.46828" lon="6.18651">
        <ele>152.4</ele>
        <time>2025-04-14T13:23:26.009Z</time>
      </trkpt>
      <trkpt lat="43.46835" lon="6.18656">
        <ele>153.7</ele>
        <time>2025-04-14T13:23:33.529Z</time>
      </trkpt>
      <trkpt lat="43.46841" lon="6.1866">
        <ele>154.5</ele>
        <time>2025-04-14T13:23:41.049Z</time>
      </trkpt>
      <trkpt lat="43.46848" lon="6.18665">
        <ele>155.5</ele>
        <time>2025-04-14T13:23:48.569Z</time>
      </trkpt>
      <trkpt lat="43.46848" lon="6.18667">
        <ele>155.6</ele>
        <time>2025-04-14T13:23:50.009Z</time>
      </trkpt>
      <trkpt lat="43.46847" lon="6.18666">
        <ele>155.4</ele>
        <time>2025-04-14T13:23:51.234Z</time>
        <extensions>
          <visugpx:TrkExtension xmlns:visugpx="https://www.visugpx.com/editgpx/">
            <visugpx:node>35</visugpx:node>
            </visugpx:TrkExtension>
        </extensions>
      </trkpt>
      <trkpt lat="43.46848" lon="6.18667">
        <ele>155.6</ele>
        <time>2025-04-14T13:23:52.459Z</time>
      </trkpt>
      <trkpt lat="43.46848" lon="6.18665">
        <ele>155.5</ele>
        <time>2025-04-14T13:23:53.899Z</time>
      </trkpt>
      <trkpt lat="43.46854" lon="6.18662">
        <ele>155.8</ele>
        <time>2025-04-14T13:24:00.592Z</time>
      </trkpt>
      <trkpt lat="43.46861" lon="6.18658">
        <ele>156</ele>
        <time>2025-04-14T13:24:07.285Z</time>
      </trkpt>
      <trkpt lat="43.46867" lon="6.18655">
        <ele>156.2</ele>
        <time>2025-04-14T13:24:13.978Z</time>
      </trkpt>
      <trkpt lat="43.46873" lon="6.18651">
        <ele>156.5</ele>
        <time>2025-04-14T13:24:20.672Z</time>
      </trkpt>
      <trkpt lat="43.46878" lon="6.18656">
        <ele>157.2</ele>
        <time>2025-04-14T13:24:26.806Z</time>
      </trkpt>
      <trkpt lat="43.46884" lon="6.1866">
        <ele>157.7</ele>
        <time>2025-04-14T13:24:32.940Z</time>
      </trkpt>
      <trkpt lat="43.46889" lon="6.18665">
        <ele>158</ele>
        <time>2025-04-14T13:24:39.074Z</time>
      </trkpt>
      <trkpt lat="43.46894" lon="6.18669">
        <ele>158.1</ele>
        <time>2025-04-14T13:24:45.208Z</time>
      </trkpt>
      <trkpt lat="43.469" lon="6.18662">
        <ele>158</ele>
        <time>2025-04-14T13:24:52.516Z</time>
      </trkpt>
      <trkpt lat="43.46905" lon="6.18656">
        <ele>158</ele>
        <time>2025-04-14T13:24:59.824Z</time>
      </trkpt>
      <trkpt lat="43.46911" lon="6.18649">
        <ele>158</ele>
        <time>2025-04-14T13:25:07.132Z</time>
      </trkpt>
      <trkpt lat="43.46916" lon="6.18642">
        <ele>158</ele>
        <time>2025-04-14T13:25:14.440Z</time>
        <extensions>
          <visugpx:TrkExtension xmlns:visugpx="https://www.visugpx.com/editgpx/">
            <visugpx:node>36</visugpx:node>
            </visugpx:TrkExtension>
        </extensions>
      </trkpt>
      <trkpt lat="43.46921" lon="6.18637">
        <ele>157.7</ele>
        <time>2025-04-14T13:25:20.788Z</time>
      </trkpt>
      <trkpt lat="43.46926" lon="6.18631">
        <ele>157.3</ele>
        <time>2025-04-14T13:25:27.136Z</time>
      </trkpt>
      <trkpt lat="43.4693" lon="6.18623">
        <ele>156.9</ele>
        <time>2025-04-14T13:25:34.421Z</time>
      </trkpt>
      <trkpt lat="43.46935" lon="6.18615">
        <ele>156.7</ele>
        <time>2025-04-14T13:25:41.706Z</time>
      </trkpt>
      <trkpt lat="43.46939" lon="6.18606">
        <ele>156.6</ele>
        <time>2025-04-14T13:25:48.991Z</time>
      </trkpt>
      <trkpt lat="43.46943" lon="6.18598">
        <ele>156.5</ele>
        <time>2025-04-14T13:25:56.276Z</time>
      </trkpt>
      <trkpt lat="43.46945" lon="6.18592">
        <ele>156.3</ele>
        <time>2025-04-14T13:26:00.887Z</time>
      </trkpt>
      <trkpt lat="43.46946" lon="6.18586">
        <ele>156</ele>
        <time>2025-04-14T13:26:05.498Z</time>
      </trkpt>
      <trkpt lat="43.46948" lon="6.1858">
        <ele>155.7</ele>
        <time>2025-04-14T13:26:10.109Z</time>
      </trkpt>
      <trkpt lat="43.4695" lon="6.18574">
        <ele>155.2</ele>
        <time>2025-04-14T13:26:14.720Z</time>
      </trkpt>
      <trkpt lat="43.46951" lon="6.18568">
        <ele>154.8</ele>
        <time>2025-04-14T13:26:19.331Z</time>
      </trkpt>
      <trkpt lat="43.46953" lon="6.18562">
        <ele>154.4</ele>
        <time>2025-04-14T13:26:23.942Z</time>
      </trkpt>
      <trkpt lat="43.46954" lon="6.18556">
        <ele>154</ele>
        <time>2025-04-14T13:26:28.553Z</time>
      </trkpt>
      <trkpt lat="43.46956" lon="6.1855">
        <ele>153.5</ele>
        <time>2025-04-14T13:26:33.164Z</time>
      </trkpt>
      <trkpt lat="43.46962" lon="6.1855">
        <ele>153.5</ele>
        <time>2025-04-14T13:26:39.368Z</time>
      </trkpt>
      <trkpt lat="43.46969" lon="6.18551">
        <ele>153.5</ele>
        <time>2025-04-14T13:26:45.572Z</time>
      </trkpt>
      <trkpt lat="43.46975" lon="6.18551">
        <ele>153.2</ele>
        <time>2025-04-14T13:26:51.776Z</time>
      </trkpt>
      <trkpt lat="43.46981" lon="6.18551">
        <ele>152.7</ele>
        <time>2025-04-14T13:26:57.980Z</time>
      </trkpt>
      <trkpt lat="43.46989" lon="6.18554">
        <ele>152.1</ele>
        <time>2025-04-14T13:27:05.967Z</time>
      </trkpt>
      <trkpt lat="43.46997" lon="6.18557">
        <ele>151.4</ele>
        <time>2025-04-14T13:27:13.954Z</time>
      </trkpt>
      <trkpt lat="43.47004" lon="6.1856">
        <ele>150.9</ele>
        <time>2025-04-14T13:27:21.941Z</time>
      </trkpt>
      <trkpt lat="43.47012" lon="6.18563">
        <ele>150.5</ele>
        <time>2025-04-14T13:27:29.928Z</time>
      </trkpt>
      <trkpt lat="43.47017" lon="6.18561">
        <ele>150.2</ele>
        <time>2025-04-14T13:27:35.332Z</time>
      </trkpt>
      <trkpt lat="43.47023" lon="6.18559">
        <ele>150</ele>
        <time>2025-04-14T13:27:40.736Z</time>
      </trkpt>
      <trkpt lat="43.47028" lon="6.18557">
        <ele>149.9</ele>
        <time>2025-04-14T13:27:46.140Z</time>
      </trkpt>
      <trkpt lat="43.47033" lon="6.18555">
        <ele>150.4</ele>
        <time>2025-04-14T13:27:51.544Z</time>
      </trkpt>
      <trkpt lat="43.47037" lon="6.18557">
        <ele>150.6</ele>
        <time>2025-04-14T13:27:55.766Z</time>
      </trkpt>
      <trkpt lat="43.47037" lon="6.18556">
        <ele>150.6</ele>
        <time>2025-04-14T13:27:56.486Z</time>
        <extensions>
          <visugpx:TrkExtension xmlns:visugpx="https://www.visugpx.com/editgpx/">
            <visugpx:node>37</visugpx:node>
            </visugpx:TrkExtension>
        </extensions>
      </trkpt>
      <trkpt lat="43.47037" lon="6.18557">
        <ele>150.6</ele>
        <time>2025-04-14T13:27:57.206Z</time>
      </trkpt>
      <trkpt lat="43.47041" lon="6.1856">
        <ele>150.6</ele>
        <time>2025-04-14T13:28:01.724Z</time>
      </trkpt>
      <trkpt lat="43.47045" lon="6.18563">
        <ele>150.7</ele>
        <time>2025-04-14T13:28:06.242Z</time>
      </trkpt>
      <trkpt lat="43.47048" lon="6.18569">
        <ele>150.5</ele>
        <time>2025-04-14T13:28:11.563Z</time>
      </trkpt>
      <trkpt lat="43.47051" lon="6.18575">
        <ele>150.3</ele>
        <time>2025-04-14T13:28:16.884Z</time>
      </trkpt>
      <trkpt lat="43.47054" lon="6.18581">
        <ele>150</ele>
        <time>2025-04-14T13:28:22.205Z</time>
      </trkpt>
      <trkpt lat="43.47057" lon="6.18588">
        <ele>149.8</ele>
        <time>2025-04-14T13:28:27.526Z</time>
      </trkpt>
      <trkpt lat="43.4706" lon="6.18594">
        <ele>149.6</ele>
        <time>2025-04-14T13:28:32.847Z</time>
      </trkpt>
      <trkpt lat="43.47063" lon="6.186">
        <ele>149.5</ele>
        <time>2025-04-14T13:28:38.168Z</time>
      </trkpt>
      <trkpt lat="43.47066" lon="6.18606">
        <ele>149.4</ele>
        <time>2025-04-14T13:28:43.489Z</time>
      </trkpt>
      <trkpt lat="43.47069" lon="6.18612">
        <ele>149.4</ele>
        <time>2025-04-14T13:28:48.810Z</time>
      </trkpt>
      <trkpt lat="43.4707" lon="6.18619">
        <ele>149.5</ele>
        <time>2025-04-14T13:28:53.695Z</time>
      </trkpt>
      <trkpt lat="43.4707" lon="6.18626">
        <ele>149.6</ele>
        <time>2025-04-14T13:28:58.580Z</time>
      </trkpt>
      <trkpt lat="43.47071" lon="6.18632">
        <ele>149.7</ele>
        <time>2025-04-14T13:29:03.465Z</time>
      </trkpt>
      <trkpt lat="43.47071" lon="6.18639">
        <ele>149.8</ele>
        <time>2025-04-14T13:29:08.350Z</time>
        <extensions>
          <visugpx:TrkExtension xmlns:visugpx="https://www.visugpx.com/editgpx/">
            <visugpx:node>38</visugpx:node>
            </visugpx:TrkExtension>
        </extensions>
      </trkpt>
      <trkpt lat="43.47072" lon="6.18647">
        <ele>149.6</ele>
        <time>2025-04-14T13:29:14.132Z</time>
      </trkpt>
      <trkpt lat="43.47072" lon="6.18655">
        <ele>149.4</ele>
        <time>2025-04-14T13:29:19.914Z</time>
      </trkpt>
      <trkpt lat="43.47073" lon="6.18663">
        <ele>149.2</ele>
        <time>2025-04-14T13:29:25.696Z</time>
      </trkpt>
      <trkpt lat="43.47073" lon="6.18671">
        <ele>148.9</ele>
        <time>2025-04-14T13:29:31.478Z</time>
      </trkpt>
      <trkpt lat="43.47076" lon="6.18681">
        <ele>148.7</ele>
        <time>2025-04-14T13:29:39.270Z</time>
      </trkpt>
      <trkpt lat="43.4708" lon="6.18685">
        <ele>148.7</ele>
        <time>2025-04-14T13:29:44.174Z</time>
      </trkpt>
      <trkpt lat="43.47084" lon="6.18689">
        <ele>148.6</ele>
        <time>2025-04-14T13:29:49.078Z</time>
      </trkpt>
      <trkpt lat="43.4709" lon="6.1869">
        <ele>148.5</ele>
        <time>2025-04-14T13:29:55.042Z</time>
      </trkpt>
      <trkpt lat="43.47096" lon="6.1869">
        <ele>148.5</ele>
        <time>2025-04-14T13:30:01.006Z</time>
      </trkpt>
      <trkpt lat="43.47101" lon="6.18688">
        <ele>148.7</ele>
        <time>2025-04-14T13:30:06.410Z</time>
      </trkpt>
      <trkpt lat="43.47107" lon="6.18686">
        <ele>148.9</ele>
        <time>2025-04-14T13:30:11.814Z</time>
      </trkpt>
      <trkpt lat="43.47112" lon="6.18684">
        <ele>149</ele>
        <time>2025-04-14T13:30:17.218Z</time>
      </trkpt>
      <trkpt lat="43.47117" lon="6.18682">
        <ele>148.5</ele>
        <time>2025-04-14T13:30:22.622Z</time>
      </trkpt>
      <trkpt lat="43.47121" lon="6.18676">
        <ele>148.4</ele>
        <time>2025-04-14T13:30:28.531Z</time>
      </trkpt>
      <trkpt lat="43.47126" lon="6.18671">
        <ele>148.1</ele>
        <time>2025-04-14T13:30:34.440Z</time>
      </trkpt>
      <trkpt lat="43.4713" lon="6.18665">
        <ele>148</ele>
        <time>2025-04-14T13:30:40.349Z</time>
      </trkpt>
      <trkpt lat="43.47134" lon="6.18659">
        <ele>148.2</ele>
        <time>2025-04-14T13:30:46.259Z</time>
      </trkpt>
      <trkpt lat="43.47135" lon="6.1866">
        <ele>147.8</ele>
        <time>2025-04-14T13:30:47.485Z</time>
        <extensions>
          <visugpx:TrkExtension xmlns:visugpx="https://www.visugpx.com/editgpx/">
            <visugpx:node>39</visugpx:node>
            </visugpx:TrkExtension>
        </extensions>
      </trkpt>
      <trkpt lat="43.47134" lon="6.18659">
        <ele>148.2</ele>
        <time>2025-04-14T13:30:48.711Z</time>
      </trkpt>
      <trkpt lat="43.47139" lon="6.18652">
        <ele>148.6</ele>
        <time>2025-04-14T13:30:56.150Z</time>
      </trkpt>
      <trkpt lat="43.47145" lon="6.18644">
        <ele>148.5</ele>
        <time>2025-04-14T13:31:03.589Z</time>
      </trkpt>
      <trkpt lat="43.4715" lon="6.18637">
        <ele>148.3</ele>
        <time>2025-04-14T13:31:11.028Z</time>
      </trkpt>
      <trkpt lat="43.47155" lon="6.1863">
        <ele>148.2</ele>
        <time>2025-04-14T13:31:18.467Z</time>
      </trkpt>
      <trkpt lat="43.4716" lon="6.18622">
        <ele>148.3</ele>
        <time>2025-04-14T13:31:25.906Z</time>
      </trkpt>
      <trkpt lat="43.47166" lon="6.18615">
        <ele>148.5</ele>
        <time>2025-04-14T13:31:33.345Z</time>
      </trkpt>
      <trkpt lat="43.47171" lon="6.18607">
        <ele>148.8</ele>
        <time>2025-04-14T13:31:40.784Z</time>
      </trkpt>
      <trkpt lat="43.47176" lon="6.186">
        <ele>149.2</ele>
        <time>2025-04-14T13:31:48.223Z</time>
      </trkpt>
      <trkpt lat="43.47181" lon="6.18598">
        <ele>148.7</ele>
        <time>2025-04-14T13:31:53.037Z</time>
      </trkpt>
      <trkpt lat="43.47185" lon="6.18595">
        <ele>148.2</ele>
        <time>2025-04-14T13:31:57.851Z</time>
      </trkpt>
      <trkpt lat="43.4719" lon="6.18593">
        <ele>147.8</ele>
        <time>2025-04-14T13:32:02.665Z</time>
      </trkpt>
      <trkpt lat="43.47194" lon="6.1859">
        <ele>147.4</ele>
        <time>2025-04-14T13:32:07.479Z</time>
      </trkpt>
      <trkpt lat="43.47198" lon="6.18581">
        <ele>147.4</ele>
        <time>2025-04-14T13:32:15.078Z</time>
      </trkpt>
      <trkpt lat="43.47198" lon="6.18569">
        <ele>147.9</ele>
        <time>2025-04-14T13:32:23.542Z</time>
      </trkpt>
      <trkpt lat="43.47199" lon="6.18558">
        <ele>148.5</ele>
        <time>2025-04-14T13:32:32.006Z</time>
      </trkpt>
      <trkpt lat="43.47199" lon="6.18546">
        <ele>148.8</ele>
        <time>2025-04-14T13:32:40.470Z</time>
      </trkpt>
      <trkpt lat="43.47199" lon="6.18534">
        <ele>148.9</ele>
        <time>2025-04-14T13:32:48.934Z</time>
        <extensions>
          <visugpx:TrkExtension xmlns:visugpx="https://www.visugpx.com/editgpx/">
            <visugpx:node>40</visugpx:node>
            </visugpx:TrkExtension>
        </extensions>
      </trkpt>
      <trkpt lat="43.47199" lon="6.18531">
        <ele>149</ele>
        <time>2025-04-14T13:32:51.094Z</time>
      </trkpt>
      <trkpt lat="43.47201" lon="6.18522">
        <ele>148.7</ele>
        <time>2025-04-14T13:32:57.977Z</time>
      </trkpt>
      <trkpt lat="43.47203" lon="6.18513">
        <ele>148.8</ele>
        <time>2025-04-14T13:33:04.860Z</time>
      </trkpt>
      <trkpt lat="43.47204" lon="6.18503">
        <ele>148.8</ele>
        <time>2025-04-14T13:33:11.743Z</time>
      </trkpt>
      <trkpt lat="43.47206" lon="6.18494">
        <ele>149</ele>
        <time>2025-04-14T13:33:18.626Z</time>
      </trkpt>
      <trkpt lat="43.47206" lon="6.18494">
        <ele>149</ele>
        <time>2025-04-14T13:33:18.626Z</time>
        <extensions>
          <visugpx:TrkExtension xmlns:visugpx="https://www.visugpx.com/editgpx/">
            <visugpx:node>41</visugpx:node>
            </visugpx:TrkExtension>
        </extensions>
      </trkpt>
      <trkpt lat="43.47206" lon="6.18494">
        <ele>149</ele>
        <time>2025-04-14T13:33:18.626Z</time>
      </trkpt>
      <trkpt lat="43.47208" lon="6.18483">
        <ele>149</ele>
        <time>2025-04-14T13:33:26.855Z</time>
      </trkpt>
      <trkpt lat="43.47211" lon="6.18472">
        <ele>148.9</ele>
        <time>2025-04-14T13:33:35.084Z</time>
      </trkpt>
      <trkpt lat="43.47213" lon="6.18461">
        <ele>149.1</ele>
        <time>2025-04-14T13:33:43.313Z</time>
      </trkpt>
      <trkpt lat="43.47215" lon="6.1845">
        <ele>149.3</ele>
        <time>2025-04-14T13:33:51.542Z</time>
      </trkpt>
      <trkpt lat="43.4722" lon="6.1844">
        <ele>148.2</ele>
        <time>2025-04-14T13:34:00.168Z</time>
      </trkpt>
      <trkpt lat="43.47224" lon="6.1843">
        <ele>148.5</ele>
        <time>2025-04-14T13:34:08.794Z</time>
      </trkpt>
      <trkpt lat="43.47229" lon="6.18419">
        <ele>149.2</ele>
        <time>2025-04-14T13:34:17.420Z</time>
      </trkpt>
      <trkpt lat="43.47233" lon="6.18409">
        <ele>150.1</ele>
        <time>2025-04-14T13:34:26.046Z</time>
      </trkpt>
      <trkpt lat="43.47237" lon="6.18402">
        <ele>150.3</ele>
        <time>2025-04-14T13:34:32.461Z</time>
      </trkpt>
      <trkpt lat="43.47241" lon="6.18395">
        <ele>150.6</ele>
        <time>2025-04-14T13:34:38.876Z</time>
      </trkpt>
      <trkpt lat="43.47245" lon="6.18392">
        <ele>149.8</ele>
        <time>2025-04-14T13:34:43.370Z</time>
      </trkpt>
      <trkpt lat="43.47249" lon="6.18388">
        <ele>149</ele>
        <time>2025-04-14T13:34:47.864Z</time>
      </trkpt>
      <trkpt lat="43.47252" lon="6.18385">
        <ele>148.5</ele>
        <time>2025-04-14T13:34:52.358Z</time>
      </trkpt>
      <trkpt lat="43.47256" lon="6.18381">
        <ele>147.9</ele>
        <time>2025-04-14T13:34:56.852Z</time>
      </trkpt>
      <trkpt lat="43.47259" lon="6.18375">
        <ele>148.3</ele>
        <time>2025-04-14T13:35:02.098Z</time>
        <extensions>
          <visugpx:TrkExtension xmlns:visugpx="https://www.visugpx.com/editgpx/">
            <visugpx:node>42</visugpx:node>
            </visugpx:TrkExtension>
        </extensions>
      </trkpt>
      <trkpt lat="43.47263" lon="6.18367">
        <ele>148.5</ele>
        <time>2025-04-14T13:35:09.093Z</time>
      </trkpt>
      <trkpt lat="43.4727" lon="6.1836">
        <ele>146.9</ele>
        <time>2025-04-14T13:35:17.475Z</time>
      </trkpt>
      <trkpt lat="43.47277" lon="6.18353">
        <ele>147.3</ele>
        <time>2025-04-14T13:35:25.857Z</time>
      </trkpt>
      <trkpt lat="43.47283" lon="6.18346">
        <ele>148.4</ele>
        <time>2025-04-14T13:35:34.239Z</time>
      </trkpt>
      <trkpt lat="43.4729" lon="6.18339">
        <ele>148.3</ele>
        <time>2025-04-14T13:35:42.621Z</time>
      </trkpt>
      <trkpt lat="43.47297" lon="6.18331">
        <ele>147.7</ele>
        <time>2025-04-14T13:35:51.512Z</time>
      </trkpt>
      <trkpt lat="43.47303" lon="6.18322">
        <ele>147.7</ele>
        <time>2025-04-14T13:36:00.403Z</time>
      </trkpt>
      <trkpt lat="43.47306" lon="6.18316">
        <ele>149</ele>
        <time>2025-04-14T13:36:05.229Z</time>
      </trkpt>
      <trkpt lat="43.47308" lon="6.18311">
        <ele>150.4</ele>
        <time>2025-04-14T13:36:10.055Z</time>
      </trkpt>
      <trkpt lat="43.47311" lon="6.18305">
        <ele>151.1</ele>
        <time>2025-04-14T13:36:14.881Z</time>
      </trkpt>
      <trkpt lat="43.47313" lon="6.18299">
        <ele>150.9</ele>
        <time>2025-04-14T13:36:19.707Z</time>
      </trkpt>
      <trkpt lat="43.47314" lon="6.183">
        <ele>150.1</ele>
        <time>2025-04-14T13:36:20.933Z</time>
        <extensions>
          <visugpx:TrkExtension xmlns:visugpx="https://www.visugpx.com/editgpx/">
            <visugpx:node>43</visugpx:node>
            </visugpx:TrkExtension>
        </extensions>
      </trkpt>
      <trkpt lat="43.47313" lon="6.18299">
        <ele>150.9</ele>
        <time>2025-04-14T13:36:22.159Z</time>
      </trkpt>
      <trkpt lat="43.47314" lon="6.18297">
        <ele>150.8</ele>
        <time>2025-04-14T13:36:23.907Z</time>
      </trkpt>
      <trkpt lat="43.47319" lon="6.18289">
        <ele>150.6</ele>
        <time>2025-04-14T13:36:31.483Z</time>
      </trkpt>
      <trkpt lat="43.47323" lon="6.1828">
        <ele>150.8</ele>
        <time>2025-04-14T13:36:39.059Z</time>
      </trkpt>
      <trkpt lat="43.47328" lon="6.18277">
        <ele>149.7</ele>
        <time>2025-04-14T13:36:43.943Z</time>
      </trkpt>
      <trkpt lat="43.47332" lon="6.18275">
        <ele>148.7</ele>
        <time>2025-04-14T13:36:48.827Z</time>
      </trkpt>
      <trkpt lat="43.47337" lon="6.18272">
        <ele>149.1</ele>
        <time>2025-04-14T13:36:53.711Z</time>
      </trkpt>
      <trkpt lat="43.47341" lon="6.18269">
        <ele>150</ele>
        <time>2025-04-14T13:36:58.595Z</time>
      </trkpt>
      <trkpt lat="43.47346" lon="6.18266">
        <ele>150.7</ele>
        <time>2025-04-14T13:37:03.479Z</time>
      </trkpt>
      <trkpt lat="43.4735" lon="6.18264">
        <ele>151.2</ele>
        <time>2025-04-14T13:37:08.363Z</time>
      </trkpt>
      <trkpt lat="43.47355" lon="6.18261">
        <ele>151.6</ele>
        <time>2025-04-14T13:37:13.247Z</time>
      </trkpt>
      <trkpt lat="43.47359" lon="6.18258">
        <ele>151.8</ele>
        <time>2025-04-14T13:37:18.131Z</time>
      </trkpt>
      <trkpt lat="43.47366" lon="6.18262">
        <ele>152</ele>
        <time>2025-04-14T13:37:25.650Z</time>
      </trkpt>
      <trkpt lat="43.47368" lon="6.18273">
        <ele>150.9</ele>
        <time>2025-04-14T13:37:33.583Z</time>
      </trkpt>
      <trkpt lat="43.4737" lon="6.18284">
        <ele>149.7</ele>
        <time>2025-04-14T13:37:41.516Z</time>
      </trkpt>
      <trkpt lat="43.47371" lon="6.18294">
        <ele>148.6</ele>
        <time>2025-04-14T13:37:49.449Z</time>
      </trkpt>
      <trkpt lat="43.47373" lon="6.18305">
        <ele>147.6</ele>
        <time>2025-04-14T13:37:57.382Z</time>
        <extensions>
          <visugpx:TrkExtension xmlns:visugpx="https://www.visugpx.com/editgpx/">
            <visugpx:node>44</visugpx:node>
            </visugpx:TrkExtension>
        </extensions>
      </trkpt>
      <trkpt lat="43.47375" lon="6.18315">
        <ele>145.1</ele>
        <time>2025-04-14T13:38:04.851Z</time>
      </trkpt>
      <trkpt lat="43.4738" lon="6.18318">
        <ele>145.9</ele>
        <time>2025-04-14T13:38:09.665Z</time>
      </trkpt>
      <trkpt lat="43.47384" lon="6.1832">
        <ele>146.5</ele>
        <time>2025-04-14T13:38:14.479Z</time>
      </trkpt>
      <trkpt lat="43.47385" lon="6.1832">
        <ele>146.9</ele>
        <time>2025-04-14T13:38:15.471Z</time>
        <extensions>
          <visugpx:TrkExtension xmlns:visugpx="https://www.visugpx.com/editgpx/">
            <visugpx:node>45</visugpx:node>
            </visugpx:TrkExtension>
        </extensions>
      </trkpt>
      <trkpt lat="43.47384" lon="6.1832">
        <ele>146.5</ele>
        <time>2025-04-14T13:38:16.463Z</time>
      </trkpt>
      <trkpt lat="43.47391" lon="6.18325">
        <ele>147.1</ele>
        <time>2025-04-14T13:38:24.128Z</time>
      </trkpt>
      <trkpt lat="43.47398" lon="6.18329">
        <ele>148.5</ele>
        <time>2025-04-14T13:38:31.793Z</time>
      </trkpt>
      <trkpt lat="43.47403" lon="6.18334">
        <ele>149.1</ele>
        <time>2025-04-14T13:38:37.529Z</time>
      </trkpt>
      <trkpt lat="43.47407" lon="6.18339">
        <ele>149.2</ele>
        <time>2025-04-14T13:38:43.265Z</time>
      </trkpt>
      <trkpt lat="43.47412" lon="6.18344">
        <ele>148.7</ele>
        <time>2025-04-14T13:38:49.001Z</time>
      </trkpt>
      <trkpt lat="43.47416" lon="6.18349">
        <ele>147.7</ele>
        <time>2025-04-14T13:38:54.737Z</time>
      </trkpt>
      <trkpt lat="43.47421" lon="6.18352">
        <ele>147.8</ele>
        <time>2025-04-14T13:39:00.015Z</time>
      </trkpt>
      <trkpt lat="43.47426" lon="6.18354">
        <ele>148</ele>
        <time>2025-04-14T13:39:05.293Z</time>
      </trkpt>
      <trkpt lat="43.47431" lon="6.18357">
        <ele>148.4</ele>
        <time>2025-04-14T13:39:10.571Z</time>
      </trkpt>
      <trkpt lat="43.47436" lon="6.18359">
        <ele>148.9</ele>
        <time>2025-04-14T13:39:15.849Z</time>
      </trkpt>
      <trkpt lat="43.47443" lon="6.18366">
        <ele>147.9</ele>
        <time>2025-04-14T13:39:24.431Z</time>
      </trkpt>
      <trkpt lat="43.4745" lon="6.18373">
        <ele>145.8</ele>
        <time>2025-04-14T13:39:33.013Z</time>
      </trkpt>
      <trkpt lat="43.47458" lon="6.18376">
        <ele>146.2</ele>
        <time>2025-04-14T13:39:41.240Z</time>
        <extensions>
          <visugpx:TrkExtension xmlns:visugpx="https://www.visugpx.com/editgpx/">
            <visugpx:node>46</visugpx:node>
            </visugpx:TrkExtension>
        </extensions>
      </trkpt>
      <trkpt lat="43.47465" lon="6.18379">
        <ele>146.8</ele>
        <time>2025-04-14T13:39:47.936Z</time>
      </trkpt>
      <trkpt lat="43.47471" lon="6.18381">
        <ele>147.5</ele>
        <time>2025-04-14T13:39:54.632Z</time>
      </trkpt>
      <trkpt lat="43.47478" lon="6.18379">
        <ele>147.7</ele>
        <time>2025-04-14T13:40:01.726Z</time>
      </trkpt>
      <trkpt lat="43.47485" lon="6.18377">
        <ele>147.3</ele>
        <time>2025-04-14T13:40:08.820Z</time>
      </trkpt>
      <trkpt lat="43.47491" lon="6.18368">
        <ele>149.2</ele>
        <time>2025-04-14T13:40:17.571Z</time>
      </trkpt>
      <trkpt lat="43.47496" lon="6.18358">
        <ele>150.1</ele>
        <time>2025-04-14T13:40:26.322Z</time>
      </trkpt>
      <trkpt lat="43.47496" lon="6.18359">
        <ele>150</ele>
        <time>2025-04-14T13:40:27.042Z</time>
        <extensions>
          <visugpx:TrkExtension xmlns:visugpx="https://www.visugpx.com/editgpx/">
            <visugpx:node>47</visugpx:node>
            </visugpx:TrkExtension>
        </extensions>
      </trkpt>
      <trkpt lat="43.47496" lon="6.18358">
        <ele>150.1</ele>
        <time>2025-04-14T13:40:27.762Z</time>
      </trkpt>
      <trkpt lat="43.47501" lon="6.1835">
        <ele>149.4</ele>
        <time>2025-04-14T13:40:35.365Z</time>
      </trkpt>
      <trkpt lat="43.47502" lon="6.18341">
        <ele>149.7</ele>
        <time>2025-04-14T13:40:42.278Z</time>
      </trkpt>
      <trkpt lat="43.47503" lon="6.18331">
        <ele>149.8</ele>
        <time>2025-04-14T13:40:49.191Z</time>
      </trkpt>
      <trkpt lat="43.47502" lon="6.1832">
        <ele>150.2</ele>
        <time>2025-04-14T13:40:57.532Z</time>
      </trkpt>
      <trkpt lat="43.47501" lon="6.18308">
        <ele>150.6</ele>
        <time>2025-04-14T13:41:05.873Z</time>
      </trkpt>
      <trkpt lat="43.47503" lon="6.18299">
        <ele>150.4</ele>
        <time>2025-04-14T13:41:12.996Z</time>
      </trkpt>
      <trkpt lat="43.47505" lon="6.18289">
        <ele>150.4</ele>
        <time>2025-04-14T13:41:20.119Z</time>
      </trkpt>
      <trkpt lat="43.47507" lon="6.1828">
        <ele>150.4</ele>
        <time>2025-04-14T13:41:27.242Z</time>
      </trkpt>
      <trkpt lat="43.47509" lon="6.1827">
        <ele>149.9</ele>
        <time>2025-04-14T13:41:34.365Z</time>
      </trkpt>
      <trkpt lat="43.4751" lon="6.18263">
        <ele>149.8</ele>
        <time>2025-04-14T13:41:39.789Z</time>
      </trkpt>
      <trkpt lat="43.4751" lon="6.18255">
        <ele>149.7</ele>
        <time>2025-04-14T13:41:45.213Z</time>
        <extensions>
          <visugpx:TrkExtension xmlns:visugpx="https://www.visugpx.com/editgpx/">
            <visugpx:node>48</visugpx:node>
            </visugpx:TrkExtension>
        </extensions>
      </trkpt>
      <trkpt lat="43.4751" lon="6.18248">
        <ele>149.8</ele>
        <time>2025-04-14T13:41:50.254Z</time>
      </trkpt>
      <trkpt lat="43.4751" lon="6.18241">
        <ele>150</ele>
        <time>2025-04-14T13:41:55.295Z</time>
      </trkpt>
      <trkpt lat="43.4751" lon="6.1823">
        <ele>150.2</ele>
        <time>2025-04-14T13:42:03.577Z</time>
      </trkpt>
      <trkpt lat="43.4751" lon="6.18218">
        <ele>150.5</ele>
        <time>2025-04-14T13:42:11.859Z</time>
      </trkpt>
      <trkpt lat="43.47511" lon="6.1821">
        <ele>150.3</ele>
        <time>2025-04-14T13:42:18.060Z</time>
      </trkpt>
      <trkpt lat="43.47512" lon="6.18201">
        <ele>150.1</ele>
        <time>2025-04-14T13:42:24.261Z</time>
      </trkpt>
      <trkpt lat="43.47514" lon="6.18195">
        <ele>149.5</ele>
        <time>2025-04-14T13:42:28.751Z</time>
      </trkpt>
      <trkpt lat="43.47516" lon="6.1819">
        <ele>149.4</ele>
        <time>2025-04-14T13:42:33.241Z</time>
      </trkpt>
      <trkpt lat="43.47517" lon="6.18184">
        <ele>149.5</ele>
        <time>2025-04-14T13:42:37.731Z</time>
      </trkpt>
      <trkpt lat="43.47519" lon="6.18178">
        <ele>149.7</ele>
        <time>2025-04-14T13:42:42.221Z</time>
      </trkpt>
      <trkpt lat="43.47521" lon="6.18172">
        <ele>150</ele>
        <time>2025-04-14T13:42:46.711Z</time>
      </trkpt>
      <trkpt lat="43.47523" lon="6.18167">
        <ele>150.3</ele>
        <time>2025-04-14T13:42:51.201Z</time>
      </trkpt>
      <trkpt lat="43.47524" lon="6.18161">
        <ele>150.3</ele>
        <time>2025-04-14T13:42:55.691Z</time>
      </trkpt>
      <trkpt lat="43.47526" lon="6.18155">
        <ele>150.3</ele>
        <time>2025-04-14T13:43:00.182Z</time>
      </trkpt>
      <trkpt lat="43.47526" lon="6.18155">
        <ele>150.3</ele>
        <time>2025-04-14T13:43:00.182Z</time>
        <extensions>
          <visugpx:TrkExtension xmlns:visugpx="https://www.visugpx.com/editgpx/">
            <visugpx:node>49</visugpx:node>
            </visugpx:TrkExtension>
        </extensions>
      </trkpt>
      <trkpt lat="43.47532" lon="6.18157">
        <ele>149.4</ele>
        <time>2025-04-14T13:43:05.746Z</time>
      </trkpt>
      <trkpt lat="43.47537" lon="6.18158">
        <ele>148.9</ele>
        <time>2025-04-14T13:43:11.311Z</time>
      </trkpt>
      <trkpt lat="43.47543" lon="6.1816">
        <ele>148.3</ele>
        <time>2025-04-14T13:43:16.876Z</time>
      </trkpt>
      <trkpt lat="43.47548" lon="6.18161">
        <ele>147.8</ele>
        <time>2025-04-14T13:43:22.441Z</time>
      </trkpt>
      <trkpt lat="43.47549" lon="6.1817">
        <ele>147.1</ele>
        <time>2025-04-14T13:43:29Z</time>
      </trkpt>
      <trkpt lat="43.47549" lon="6.18179">
        <ele>145.9</ele>
        <time>2025-04-14T13:43:43Z</time>
      </trkpt>
      <trkpt lat="43.47548" lon="6.18187">
        <ele>144.9</ele>
        <time>2025-04-14T13:43:48.999Z</time>
      </trkpt>
      <trkpt lat="43.47547" lon="6.18195">
        <ele>144</ele>
        <time>2025-04-14T13:43:55Z</time>
      </trkpt>
      <trkpt lat="43.47547" lon="6.18205">
        <ele>143.7</ele>
        <time>2025-04-14T13:44:01.499Z</time>
      </trkpt>
      <trkpt lat="43.47546" lon="6.18215">
        <ele>143.5</ele>
        <time>2025-04-14T13:44:08Z</time>
      </trkpt>
      <trkpt lat="43.47546" lon="6.18224">
        <ele>143.3</ele>
        <time>2025-04-14T13:44:12.499Z</time>
      </trkpt>
      <trkpt lat="43.47545" lon="6.18232">
        <ele>142.9</ele>
        <time>2025-04-14T13:44:17Z</time>
      </trkpt>
      <trkpt lat="43.47545" lon="6.18241">
        <ele>142.6</ele>
        <time>2025-04-14T13:44:21.999Z</time>
      </trkpt>
      <trkpt lat="43.47544" lon="6.1825">
        <ele>142.2</ele>
        <time>2025-04-14T13:44:27Z</time>
      </trkpt>
      <trkpt lat="43.47543" lon="6.18259">
        <ele>142.1</ele>
        <time>2025-04-14T13:44:31.499Z</time>
      </trkpt>
      <trkpt lat="43.47541" lon="6.18267">
        <ele>142</ele>
        <time>2025-04-14T13:44:36Z</time>
      </trkpt>
      <trkpt lat="43.47541" lon="6.18276">
        <ele>141.6</ele>
        <time>2025-04-14T13:44:41.000Z</time>
      </trkpt>
      <trkpt lat="43.47541" lon="6.18285">
        <ele>141.3</ele>
        <time>2025-04-14T13:44:46Z</time>
      </trkpt>
      <trkpt lat="43.4754" lon="6.18294">
        <ele>141</ele>
        <time>2025-04-14T13:44:48.616Z</time>
      </trkpt>
      <trkpt lat="43.47539" lon="6.18302">
        <ele>140.7</ele>
        <time>2025-04-14T13:44:51.232Z</time>
      </trkpt>
      <trkpt lat="43.4754" lon="6.18311">
        <ele>140.3</ele>
        <time>2025-04-14T13:44:54Z</time>
      </trkpt>
      <trkpt lat="43.47545" lon="6.1831">
        <ele>140.1</ele>
        <time>2025-04-14T13:44:56.250Z</time>
      </trkpt>
      <trkpt lat="43.47551" lon="6.1831">
        <ele>139.9</ele>
        <time>2025-04-14T13:44:58.500Z</time>
      </trkpt>
      <trkpt lat="43.47556" lon="6.18309">
        <ele>139.8</ele>
        <time>2025-04-14T13:45:00.750Z</time>
      </trkpt>
      <trkpt lat="43.47561" lon="6.18308">
        <ele>139.7</ele>
        <time>2025-04-14T13:45:03Z</time>
        <extensions>
          <visugpx:TrkExtension xmlns:visugpx="https://www.visugpx.com/editgpx/">
            <visugpx:node>50</visugpx:node>
            </visugpx:TrkExtension>
        </extensions>
      </trkpt>
    </trkseg>
  </trk>
</gpx>